<?xml version="1.0" encoding="UTF-8" standalone="no" ?>
<gpx xmlns="http://www.topografix.com/GPX/1/1" xmlns:xsi="http://www.w3.org/2001/XMLSchema-instance" xsi:schemaLocation="http://www.topografix.com/GPX/1/1 http://www.topografix.com/GPX/1/1/gpx.xsd" version="1.1" creator="VisuGPX - https://www.visugpx.com">
  <metadata>
    <name>rocca spaviera</name>
    <desc><![CDATA[rocca spaviera 19/11/2012 OVS Patricia]]></desc>
  </metadata>
  <trk>
    <name><![CDATA[Trace 9]]></name>
    <desc><![CDATA[18 nov. 2012 09:48:44]]></desc>
    <trkseg>
      <trkpt lat="43.86475" lon="7.2937">
        <ele>618</ele>
        <time>2012-11-18T08:48:53Z</time>
      </trkpt>
      <trkpt lat="43.86492" lon="7.29363">
        <ele>617</ele>
        <time>2012-11-18T08:49:07Z</time>
      </trkpt>
      <trkpt lat="43.86491" lon="7.29357">
        <ele>617</ele>
        <time>2012-11-18T08:49:36Z</time>
      </trkpt>
      <trkpt lat="43.8649" lon="7.2936">
        <ele>617</ele>
        <time>2012-11-18T08:49:42Z</time>
      </trkpt>
      <trkpt lat="43.86487" lon="7.29366">
        <ele>618</ele>
        <time>2012-11-18T08:50:03Z</time>
      </trkpt>
      <trkpt lat="43.86486" lon="7.29363">
        <ele>617</ele>
        <time>2012-11-18T08:50:29Z</time>
      </trkpt>
      <trkpt lat="43.86486" lon="7.29363">
        <ele>617</ele>
        <time>2012-11-18T08:50:39Z</time>
      </trkpt>
      <trkpt lat="43.86486" lon="7.29363">
        <ele>617</ele>
        <time>2012-11-18T08:50:43Z</time>
      </trkpt>
      <trkpt lat="43.86488" lon="7.29363">
        <ele>617</ele>
        <time>2012-11-18T08:50:53Z</time>
      </trkpt>
      <trkpt lat="43.86488" lon="7.29364">
        <ele>617</ele>
        <time>2012-11-18T08:50:57Z</time>
      </trkpt>
      <trkpt lat="43.86489" lon="7.29366">
        <ele>618</ele>
        <time>2012-11-18T08:51:05Z</time>
      </trkpt>
      <trkpt lat="43.86489" lon="7.29366">
        <ele>618</ele>
        <time>2012-11-18T08:51:09Z</time>
      </trkpt>
      <trkpt lat="43.86489" lon="7.29366">
        <ele>618</ele>
        <time>2012-11-18T08:51:16Z</time>
      </trkpt>
      <trkpt lat="43.8649" lon="7.29366">
        <ele>618</ele>
        <time>2012-11-18T08:51:21Z</time>
      </trkpt>
      <trkpt lat="43.86491" lon="7.29365">
        <ele>618</ele>
        <time>2012-11-18T08:51:25Z</time>
      </trkpt>
      <trkpt lat="43.86492" lon="7.29366">
        <ele>618</ele>
        <time>2012-11-18T08:51:29Z</time>
      </trkpt>
      <trkpt lat="43.86495" lon="7.29366">
        <ele>618</ele>
        <time>2012-11-18T08:51:38Z</time>
      </trkpt>
      <trkpt lat="43.86495" lon="7.29366">
        <ele>618</ele>
        <time>2012-11-18T08:51:42Z</time>
      </trkpt>
      <trkpt lat="43.86493" lon="7.29368">
        <ele>618</ele>
        <time>2012-11-18T08:51:54Z</time>
      </trkpt>
      <trkpt lat="43.86491" lon="7.29372">
        <ele>618</ele>
        <time>2012-11-18T08:52:07Z</time>
      </trkpt>
      <trkpt lat="43.86492" lon="7.2937">
        <ele>618</ele>
        <time>2012-11-18T08:52:17Z</time>
      </trkpt>
      <trkpt lat="43.86493" lon="7.29369">
        <ele>618</ele>
        <time>2012-11-18T08:52:25Z</time>
      </trkpt>
      <trkpt lat="43.86493" lon="7.29368">
        <ele>618</ele>
        <time>2012-11-18T08:52:29Z</time>
      </trkpt>
      <trkpt lat="43.86492" lon="7.29368">
        <ele>618</ele>
        <time>2012-11-18T08:52:33Z</time>
      </trkpt>
      <trkpt lat="43.86492" lon="7.29368">
        <ele>618</ele>
        <time>2012-11-18T08:52:37Z</time>
      </trkpt>
      <trkpt lat="43.8649" lon="7.29367">
        <ele>618</ele>
        <time>2012-11-18T08:52:44Z</time>
      </trkpt>
      <trkpt lat="43.86488" lon="7.29364">
        <ele>617</ele>
        <time>2012-11-18T08:52:58Z</time>
      </trkpt>
      <trkpt lat="43.86488" lon="7.29364">
        <ele>617</ele>
        <time>2012-11-18T08:53:04Z</time>
      </trkpt>
      <trkpt lat="43.86486" lon="7.29367">
        <ele>618</ele>
        <time>2012-11-18T08:53:09Z</time>
      </trkpt>
      <trkpt lat="43.86485" lon="7.29368">
        <ele>618</ele>
        <time>2012-11-18T08:53:12Z</time>
      </trkpt>
      <trkpt lat="43.86484" lon="7.29368">
        <ele>618</ele>
        <time>2012-11-18T08:53:19Z</time>
      </trkpt>
      <trkpt lat="43.86484" lon="7.29367">
        <ele>618</ele>
        <time>2012-11-18T08:53:22Z</time>
      </trkpt>
      <trkpt lat="43.86485" lon="7.29366">
        <ele>617</ele>
        <time>2012-11-18T08:53:29Z</time>
      </trkpt>
      <trkpt lat="43.86486" lon="7.29364">
        <ele>617</ele>
        <time>2012-11-18T08:53:36Z</time>
      </trkpt>
      <trkpt lat="43.86487" lon="7.29362">
        <ele>617</ele>
        <time>2012-11-18T08:53:40Z</time>
      </trkpt>
      <trkpt lat="43.86488" lon="7.29361">
        <ele>617</ele>
        <time>2012-11-18T08:53:44Z</time>
      </trkpt>
      <trkpt lat="43.86489" lon="7.29361">
        <ele>617</ele>
        <time>2012-11-18T08:53:50Z</time>
      </trkpt>
      <trkpt lat="43.86489" lon="7.29361">
        <ele>617</ele>
        <time>2012-11-18T08:53:54Z</time>
      </trkpt>
      <trkpt lat="43.8649" lon="7.29362">
        <ele>617</ele>
        <time>2012-11-18T08:53:58Z</time>
      </trkpt>
      <trkpt lat="43.8649" lon="7.29364">
        <ele>617</ele>
        <time>2012-11-18T08:54:09Z</time>
      </trkpt>
      <trkpt lat="43.8649" lon="7.29364">
        <ele>617</ele>
        <time>2012-11-18T08:54:12Z</time>
      </trkpt>
      <trkpt lat="43.86491" lon="7.29363">
        <ele>617</ele>
        <time>2012-11-18T08:54:16Z</time>
      </trkpt>
      <trkpt lat="43.86493" lon="7.29362">
        <ele>617</ele>
        <time>2012-11-18T08:54:23Z</time>
      </trkpt>
      <trkpt lat="43.86493" lon="7.29361">
        <ele>617</ele>
        <time>2012-11-18T08:54:26Z</time>
      </trkpt>
      <trkpt lat="43.86493" lon="7.29359">
        <ele>617</ele>
        <time>2012-11-18T08:54:45Z</time>
      </trkpt>
      <trkpt lat="43.86493" lon="7.29359">
        <ele>617</ele>
        <time>2012-11-18T08:54:48Z</time>
      </trkpt>
      <trkpt lat="43.86495" lon="7.29359">
        <ele>617</ele>
        <time>2012-11-18T08:54:56Z</time>
      </trkpt>
      <trkpt lat="43.86497" lon="7.29359">
        <ele>617</ele>
        <time>2012-11-18T08:55:04Z</time>
      </trkpt>
      <trkpt lat="43.86498" lon="7.29358">
        <ele>617</ele>
        <time>2012-11-18T08:55:14Z</time>
      </trkpt>
      <trkpt lat="43.86497" lon="7.29358">
        <ele>617</ele>
        <time>2012-11-18T08:55:17Z</time>
      </trkpt>
      <trkpt lat="43.86497" lon="7.29357">
        <ele>617</ele>
        <time>2012-11-18T08:55:20Z</time>
      </trkpt>
      <trkpt lat="43.86495" lon="7.29357">
        <ele>617</ele>
        <time>2012-11-18T08:55:25Z</time>
      </trkpt>
      <trkpt lat="43.86493" lon="7.29356">
        <ele>617</ele>
        <time>2012-11-18T08:55:31Z</time>
      </trkpt>
      <trkpt lat="43.86492" lon="7.29355">
        <ele>617</ele>
        <time>2012-11-18T08:55:37Z</time>
      </trkpt>
      <trkpt lat="43.86492" lon="7.29355">
        <ele>617</ele>
        <time>2012-11-18T08:55:41Z</time>
      </trkpt>
      <trkpt lat="43.86491" lon="7.29356">
        <ele>617</ele>
        <time>2012-11-18T08:55:46Z</time>
      </trkpt>
      <trkpt lat="43.86491" lon="7.29356">
        <ele>617</ele>
        <time>2012-11-18T08:55:51Z</time>
      </trkpt>
      <trkpt lat="43.86491" lon="7.29356">
        <ele>617</ele>
        <time>2012-11-18T08:55:55Z</time>
      </trkpt>
      <trkpt lat="43.8649" lon="7.29357">
        <ele>617</ele>
        <time>2012-11-18T08:56:02Z</time>
      </trkpt>
      <trkpt lat="43.86489" lon="7.29357">
        <ele>617</ele>
        <time>2012-11-18T08:56:06Z</time>
      </trkpt>
      <trkpt lat="43.86489" lon="7.29357">
        <ele>617</ele>
        <time>2012-11-18T08:56:09Z</time>
      </trkpt>
      <trkpt lat="43.8649" lon="7.29357">
        <ele>617</ele>
        <time>2012-11-18T08:56:14Z</time>
      </trkpt>
      <trkpt lat="43.8649" lon="7.29357">
        <ele>617</ele>
        <time>2012-11-18T08:56:21Z</time>
      </trkpt>
      <trkpt lat="43.8649" lon="7.29357">
        <ele>617</ele>
        <time>2012-11-18T08:56:24Z</time>
      </trkpt>
      <trkpt lat="43.86489" lon="7.29356">
        <ele>617</ele>
        <time>2012-11-18T08:56:28Z</time>
      </trkpt>
      <trkpt lat="43.86489" lon="7.29355">
        <ele>617</ele>
        <time>2012-11-18T08:56:30Z</time>
      </trkpt>
      <trkpt lat="43.86492" lon="7.29335">
        <ele>617</ele>
        <time>2012-11-18T08:56:51Z</time>
      </trkpt>
      <trkpt lat="43.86494" lon="7.29328">
        <ele>616</ele>
        <time>2012-11-18T08:56:56Z</time>
      </trkpt>
      <trkpt lat="43.86496" lon="7.29323">
        <ele>615</ele>
        <time>2012-11-18T08:57:00Z</time>
      </trkpt>
      <trkpt lat="43.86498" lon="7.29316">
        <ele>615</ele>
        <time>2012-11-18T08:57:04Z</time>
      </trkpt>
      <trkpt lat="43.86501" lon="7.29304">
        <ele>618</ele>
        <time>2012-11-18T08:57:11Z</time>
      </trkpt>
      <trkpt lat="43.86503" lon="7.29296">
        <ele>618</ele>
        <time>2012-11-18T08:57:15Z</time>
      </trkpt>
      <trkpt lat="43.86504" lon="7.29286">
        <ele>618</ele>
        <time>2012-11-18T08:57:20Z</time>
      </trkpt>
      <trkpt lat="43.86505" lon="7.29277">
        <ele>619</ele>
        <time>2012-11-18T08:57:25Z</time>
      </trkpt>
      <trkpt lat="43.86505" lon="7.29267">
        <ele>619</ele>
        <time>2012-11-18T08:57:32Z</time>
      </trkpt>
      <trkpt lat="43.86505" lon="7.29261">
        <ele>619</ele>
        <time>2012-11-18T08:57:37Z</time>
      </trkpt>
      <trkpt lat="43.86505" lon="7.29249">
        <ele>621</ele>
        <time>2012-11-18T08:57:47Z</time>
      </trkpt>
      <trkpt lat="43.86505" lon="7.29243">
        <ele>622</ele>
        <time>2012-11-18T08:57:52Z</time>
      </trkpt>
      <trkpt lat="43.86505" lon="7.29237">
        <ele>623</ele>
        <time>2012-11-18T08:57:57Z</time>
      </trkpt>
      <trkpt lat="43.86504" lon="7.2923">
        <ele>624</ele>
        <time>2012-11-18T08:58:03Z</time>
      </trkpt>
      <trkpt lat="43.86502" lon="7.29222">
        <ele>625</ele>
        <time>2012-11-18T08:58:09Z</time>
      </trkpt>
      <trkpt lat="43.86498" lon="7.2921">
        <ele>621</ele>
        <time>2012-11-18T08:58:17Z</time>
      </trkpt>
      <trkpt lat="43.86498" lon="7.29206">
        <ele>621</ele>
        <time>2012-11-18T08:58:20Z</time>
      </trkpt>
      <trkpt lat="43.86498" lon="7.29202">
        <ele>621</ele>
        <time>2012-11-18T08:58:23Z</time>
      </trkpt>
      <trkpt lat="43.86499" lon="7.29199">
        <ele>622</ele>
        <time>2012-11-18T08:58:26Z</time>
      </trkpt>
      <trkpt lat="43.86501" lon="7.29196">
        <ele>627</ele>
        <time>2012-11-18T08:58:29Z</time>
      </trkpt>
      <trkpt lat="43.86504" lon="7.29195">
        <ele>627</ele>
        <time>2012-11-18T08:58:32Z</time>
      </trkpt>
      <trkpt lat="43.86508" lon="7.29194">
        <ele>627</ele>
        <time>2012-11-18T08:58:35Z</time>
      </trkpt>
      <trkpt lat="43.86518" lon="7.29195">
        <ele>627</ele>
        <time>2012-11-18T08:58:43Z</time>
      </trkpt>
      <trkpt lat="43.86526" lon="7.29197">
        <ele>627</ele>
        <time>2012-11-18T08:58:50Z</time>
      </trkpt>
      <trkpt lat="43.86529" lon="7.29196">
        <ele>627</ele>
        <time>2012-11-18T08:58:54Z</time>
      </trkpt>
      <trkpt lat="43.86532" lon="7.29195">
        <ele>627</ele>
        <time>2012-11-18T08:58:58Z</time>
      </trkpt>
      <trkpt lat="43.86536" lon="7.2919">
        <ele>628</ele>
        <time>2012-11-18T08:59:03Z</time>
      </trkpt>
      <trkpt lat="43.86539" lon="7.29187">
        <ele>628</ele>
        <time>2012-11-18T08:59:06Z</time>
      </trkpt>
      <trkpt lat="43.86541" lon="7.29178">
        <ele>628</ele>
        <time>2012-11-18T08:59:16Z</time>
      </trkpt>
      <trkpt lat="43.86543" lon="7.29169">
        <ele>629</ele>
        <time>2012-11-18T08:59:23Z</time>
      </trkpt>
      <trkpt lat="43.86545" lon="7.29164">
        <ele>637</ele>
        <time>2012-11-18T08:59:27Z</time>
      </trkpt>
      <trkpt lat="43.86547" lon="7.2916">
        <ele>637</ele>
        <time>2012-11-18T08:59:31Z</time>
      </trkpt>
      <trkpt lat="43.86549" lon="7.29156">
        <ele>637</ele>
        <time>2012-11-18T08:59:35Z</time>
      </trkpt>
      <trkpt lat="43.86552" lon="7.29149">
        <ele>638</ele>
        <time>2012-11-18T08:59:40Z</time>
      </trkpt>
      <trkpt lat="43.86554" lon="7.29143">
        <ele>638</ele>
        <time>2012-11-18T08:59:45Z</time>
      </trkpt>
      <trkpt lat="43.86556" lon="7.2914">
        <ele>639</ele>
        <time>2012-11-18T08:59:48Z</time>
      </trkpt>
      <trkpt lat="43.86559" lon="7.29135">
        <ele>639</ele>
        <time>2012-11-18T08:59:52Z</time>
      </trkpt>
      <trkpt lat="43.86564" lon="7.29126">
        <ele>640</ele>
        <time>2012-11-18T08:59:59Z</time>
      </trkpt>
      <trkpt lat="43.86567" lon="7.29122">
        <ele>641</ele>
        <time>2012-11-18T09:00:03Z</time>
      </trkpt>
      <trkpt lat="43.86571" lon="7.29115">
        <ele>642</ele>
        <time>2012-11-18T09:00:09Z</time>
      </trkpt>
      <trkpt lat="43.86575" lon="7.29111">
        <ele>643</ele>
        <time>2012-11-18T09:00:14Z</time>
      </trkpt>
      <trkpt lat="43.86579" lon="7.29109">
        <ele>644</ele>
        <time>2012-11-18T09:00:21Z</time>
      </trkpt>
      <trkpt lat="43.86581" lon="7.29107">
        <ele>644</ele>
        <time>2012-11-18T09:00:24Z</time>
      </trkpt>
      <trkpt lat="43.86584" lon="7.29106">
        <ele>651</ele>
        <time>2012-11-18T09:00:27Z</time>
      </trkpt>
      <trkpt lat="43.86587" lon="7.29103">
        <ele>652</ele>
        <time>2012-11-18T09:00:30Z</time>
      </trkpt>
      <trkpt lat="43.86595" lon="7.291">
        <ele>652</ele>
        <time>2012-11-18T09:00:36Z</time>
      </trkpt>
      <trkpt lat="43.86601" lon="7.29099">
        <ele>652</ele>
        <time>2012-11-18T09:00:40Z</time>
      </trkpt>
      <trkpt lat="43.86606" lon="7.29099">
        <ele>653</ele>
        <time>2012-11-18T09:00:44Z</time>
      </trkpt>
      <trkpt lat="43.86611" lon="7.29099">
        <ele>653</ele>
        <time>2012-11-18T09:00:48Z</time>
      </trkpt>
      <trkpt lat="43.86618" lon="7.29099">
        <ele>654</ele>
        <time>2012-11-18T09:00:54Z</time>
      </trkpt>
      <trkpt lat="43.86623" lon="7.291">
        <ele>654</ele>
        <time>2012-11-18T09:00:59Z</time>
      </trkpt>
      <trkpt lat="43.86626" lon="7.29101">
        <ele>655</ele>
        <time>2012-11-18T09:01:03Z</time>
      </trkpt>
      <trkpt lat="43.8663" lon="7.29103">
        <ele>655</ele>
        <time>2012-11-18T09:01:08Z</time>
      </trkpt>
      <trkpt lat="43.86634" lon="7.29105">
        <ele>655</ele>
        <time>2012-11-18T09:01:12Z</time>
      </trkpt>
      <trkpt lat="43.86639" lon="7.29107">
        <ele>656</ele>
        <time>2012-11-18T09:01:17Z</time>
      </trkpt>
      <trkpt lat="43.86645" lon="7.29108">
        <ele>657</ele>
        <time>2012-11-18T09:01:22Z</time>
      </trkpt>
      <trkpt lat="43.86649" lon="7.29109">
        <ele>657</ele>
        <time>2012-11-18T09:01:26Z</time>
      </trkpt>
      <trkpt lat="43.86653" lon="7.29112">
        <ele>657</ele>
        <time>2012-11-18T09:01:30Z</time>
      </trkpt>
      <trkpt lat="43.86657" lon="7.29117">
        <ele>656</ele>
        <time>2012-11-18T09:01:35Z</time>
      </trkpt>
      <trkpt lat="43.86657" lon="7.29121">
        <ele>656</ele>
        <time>2012-11-18T09:01:38Z</time>
      </trkpt>
      <trkpt lat="43.86658" lon="7.29127">
        <ele>655</ele>
        <time>2012-11-18T09:01:42Z</time>
      </trkpt>
      <trkpt lat="43.86658" lon="7.29136">
        <ele>653</ele>
        <time>2012-11-18T09:01:48Z</time>
      </trkpt>
      <trkpt lat="43.86659" lon="7.29148">
        <ele>652</ele>
        <time>2012-11-18T09:01:55Z</time>
      </trkpt>
      <trkpt lat="43.8666" lon="7.29157">
        <ele>651</ele>
        <time>2012-11-18T09:02:01Z</time>
      </trkpt>
      <trkpt lat="43.86659" lon="7.29163">
        <ele>651</ele>
        <time>2012-11-18T09:02:05Z</time>
      </trkpt>
      <trkpt lat="43.8666" lon="7.29169">
        <ele>647</ele>
        <time>2012-11-18T09:02:10Z</time>
      </trkpt>
      <trkpt lat="43.86659" lon="7.2917">
        <ele>646</ele>
        <time>2012-11-18T09:02:14Z</time>
      </trkpt>
      <trkpt lat="43.8666" lon="7.29171">
        <ele>646</ele>
        <time>2012-11-18T09:02:18Z</time>
      </trkpt>
      <trkpt lat="43.86659" lon="7.29169">
        <ele>647</ele>
        <time>2012-11-18T09:02:25Z</time>
      </trkpt>
      <trkpt lat="43.86659" lon="7.29169">
        <ele>646</ele>
        <time>2012-11-18T09:02:29Z</time>
      </trkpt>
      <trkpt lat="43.86659" lon="7.29172">
        <ele>646</ele>
        <time>2012-11-18T09:02:32Z</time>
      </trkpt>
      <trkpt lat="43.86662" lon="7.29177">
        <ele>645</ele>
        <time>2012-11-18T09:02:35Z</time>
      </trkpt>
      <trkpt lat="43.86665" lon="7.2918">
        <ele>644</ele>
        <time>2012-11-18T09:02:38Z</time>
      </trkpt>
      <trkpt lat="43.86669" lon="7.29183">
        <ele>650</ele>
        <time>2012-11-18T09:02:42Z</time>
      </trkpt>
      <trkpt lat="43.86673" lon="7.29185">
        <ele>650</ele>
        <time>2012-11-18T09:02:45Z</time>
      </trkpt>
      <trkpt lat="43.86679" lon="7.29184">
        <ele>651</ele>
        <time>2012-11-18T09:02:50Z</time>
      </trkpt>
      <trkpt lat="43.86684" lon="7.29182">
        <ele>651</ele>
        <time>2012-11-18T09:02:54Z</time>
      </trkpt>
      <trkpt lat="43.86687" lon="7.2918">
        <ele>652</ele>
        <time>2012-11-18T09:02:57Z</time>
      </trkpt>
      <trkpt lat="43.86691" lon="7.29176">
        <ele>652</ele>
        <time>2012-11-18T09:03:01Z</time>
      </trkpt>
      <trkpt lat="43.86694" lon="7.29173">
        <ele>653</ele>
        <time>2012-11-18T09:03:05Z</time>
      </trkpt>
      <trkpt lat="43.86696" lon="7.29171">
        <ele>653</ele>
        <time>2012-11-18T09:03:08Z</time>
      </trkpt>
      <trkpt lat="43.86699" lon="7.2917">
        <ele>653</ele>
        <time>2012-11-18T09:03:11Z</time>
      </trkpt>
      <trkpt lat="43.86702" lon="7.2917">
        <ele>654</ele>
        <time>2012-11-18T09:03:14Z</time>
      </trkpt>
      <trkpt lat="43.86703" lon="7.29171">
        <ele>654</ele>
        <time>2012-11-18T09:03:17Z</time>
      </trkpt>
      <trkpt lat="43.86705" lon="7.29173">
        <ele>654</ele>
        <time>2012-11-18T09:03:24Z</time>
      </trkpt>
      <trkpt lat="43.86709" lon="7.29176">
        <ele>655</ele>
        <time>2012-11-18T09:03:31Z</time>
      </trkpt>
      <trkpt lat="43.86712" lon="7.29176">
        <ele>655</ele>
        <time>2012-11-18T09:03:35Z</time>
      </trkpt>
      <trkpt lat="43.86716" lon="7.29176">
        <ele>656</ele>
        <time>2012-11-18T09:03:39Z</time>
      </trkpt>
      <trkpt lat="43.86722" lon="7.29177">
        <ele>658</ele>
        <time>2012-11-18T09:03:45Z</time>
      </trkpt>
      <trkpt lat="43.86727" lon="7.29178">
        <ele>659</ele>
        <time>2012-11-18T09:03:50Z</time>
      </trkpt>
      <trkpt lat="43.86731" lon="7.2918">
        <ele>660</ele>
        <time>2012-11-18T09:03:54Z</time>
      </trkpt>
      <trkpt lat="43.86736" lon="7.29181">
        <ele>661</ele>
        <time>2012-11-18T09:03:59Z</time>
      </trkpt>
      <trkpt lat="43.86743" lon="7.29182">
        <ele>662</ele>
        <time>2012-11-18T09:04:05Z</time>
      </trkpt>
      <trkpt lat="43.86746" lon="7.29183">
        <ele>662</ele>
        <time>2012-11-18T09:04:09Z</time>
      </trkpt>
      <trkpt lat="43.86753" lon="7.29187">
        <ele>672</ele>
        <time>2012-11-18T09:04:17Z</time>
      </trkpt>
      <trkpt lat="43.86757" lon="7.2919">
        <ele>672</ele>
        <time>2012-11-18T09:04:21Z</time>
      </trkpt>
      <trkpt lat="43.86762" lon="7.29195">
        <ele>672</ele>
        <time>2012-11-18T09:04:27Z</time>
      </trkpt>
      <trkpt lat="43.86765" lon="7.29199">
        <ele>672</ele>
        <time>2012-11-18T09:04:32Z</time>
      </trkpt>
      <trkpt lat="43.8677" lon="7.29205">
        <ele>671</ele>
        <time>2012-11-18T09:04:38Z</time>
      </trkpt>
      <trkpt lat="43.86773" lon="7.29209">
        <ele>671</ele>
        <time>2012-11-18T09:04:42Z</time>
      </trkpt>
      <trkpt lat="43.86777" lon="7.29213">
        <ele>671</ele>
        <time>2012-11-18T09:04:47Z</time>
      </trkpt>
      <trkpt lat="43.8678" lon="7.29217">
        <ele>671</ele>
        <time>2012-11-18T09:04:51Z</time>
      </trkpt>
      <trkpt lat="43.86785" lon="7.29222">
        <ele>671</ele>
        <time>2012-11-18T09:04:57Z</time>
      </trkpt>
      <trkpt lat="43.86789" lon="7.29225">
        <ele>671</ele>
        <time>2012-11-18T09:05:02Z</time>
      </trkpt>
      <trkpt lat="43.86793" lon="7.29229">
        <ele>672</ele>
        <time>2012-11-18T09:05:07Z</time>
      </trkpt>
      <trkpt lat="43.86798" lon="7.29232">
        <ele>673</ele>
        <time>2012-11-18T09:05:12Z</time>
      </trkpt>
      <trkpt lat="43.86801" lon="7.29234">
        <ele>673</ele>
        <time>2012-11-18T09:05:16Z</time>
      </trkpt>
      <trkpt lat="43.86805" lon="7.29239">
        <ele>674</ele>
        <time>2012-11-18T09:05:20Z</time>
      </trkpt>
      <trkpt lat="43.86809" lon="7.29244">
        <ele>674</ele>
        <time>2012-11-18T09:05:25Z</time>
      </trkpt>
      <trkpt lat="43.86811" lon="7.29247">
        <ele>675</ele>
        <time>2012-11-18T09:05:29Z</time>
      </trkpt>
      <trkpt lat="43.86813" lon="7.29254">
        <ele>667</ele>
        <time>2012-11-18T09:05:34Z</time>
      </trkpt>
      <trkpt lat="43.86817" lon="7.29262">
        <ele>667</ele>
        <time>2012-11-18T09:05:40Z</time>
      </trkpt>
      <trkpt lat="43.8682" lon="7.29267">
        <ele>666</ele>
        <time>2012-11-18T09:05:44Z</time>
      </trkpt>
      <trkpt lat="43.86822" lon="7.29271">
        <ele>666</ele>
        <time>2012-11-18T09:05:48Z</time>
      </trkpt>
      <trkpt lat="43.86823" lon="7.29277">
        <ele>665</ele>
        <time>2012-11-18T09:05:53Z</time>
      </trkpt>
      <trkpt lat="43.86825" lon="7.29282">
        <ele>664</ele>
        <time>2012-11-18T09:05:57Z</time>
      </trkpt>
      <trkpt lat="43.86827" lon="7.29291">
        <ele>663</ele>
        <time>2012-11-18T09:06:04Z</time>
      </trkpt>
      <trkpt lat="43.86828" lon="7.29297">
        <ele>662</ele>
        <time>2012-11-18T09:06:08Z</time>
      </trkpt>
      <trkpt lat="43.86831" lon="7.29307">
        <ele>662</ele>
        <time>2012-11-18T09:06:16Z</time>
      </trkpt>
      <trkpt lat="43.8683" lon="7.29314">
        <ele>663</ele>
        <time>2012-11-18T09:06:21Z</time>
      </trkpt>
      <trkpt lat="43.8683" lon="7.29316">
        <ele>663</ele>
        <time>2012-11-18T09:06:24Z</time>
      </trkpt>
      <trkpt lat="43.86831" lon="7.29319">
        <ele>664</ele>
        <time>2012-11-18T09:06:27Z</time>
      </trkpt>
      <trkpt lat="43.86833" lon="7.29323">
        <ele>665</ele>
        <time>2012-11-18T09:06:31Z</time>
      </trkpt>
      <trkpt lat="43.86836" lon="7.29326">
        <ele>675</ele>
        <time>2012-11-18T09:06:34Z</time>
      </trkpt>
      <trkpt lat="43.86839" lon="7.29329">
        <ele>675</ele>
        <time>2012-11-18T09:06:38Z</time>
      </trkpt>
      <trkpt lat="43.86842" lon="7.29332">
        <ele>677</ele>
        <time>2012-11-18T09:06:42Z</time>
      </trkpt>
      <trkpt lat="43.86845" lon="7.29334">
        <ele>673</ele>
        <time>2012-11-18T09:06:49Z</time>
      </trkpt>
      <trkpt lat="43.86846" lon="7.29335">
        <ele>674</ele>
        <time>2012-11-18T09:06:52Z</time>
      </trkpt>
      <trkpt lat="43.86848" lon="7.29338">
        <ele>674</ele>
        <time>2012-11-18T09:06:56Z</time>
      </trkpt>
      <trkpt lat="43.86851" lon="7.29344">
        <ele>675</ele>
        <time>2012-11-18T09:07:01Z</time>
      </trkpt>
      <trkpt lat="43.86853" lon="7.2935">
        <ele>676</ele>
        <time>2012-11-18T09:07:06Z</time>
      </trkpt>
      <trkpt lat="43.86856" lon="7.29357">
        <ele>676</ele>
        <time>2012-11-18T09:07:12Z</time>
      </trkpt>
      <trkpt lat="43.86858" lon="7.29363">
        <ele>677</ele>
        <time>2012-11-18T09:07:17Z</time>
      </trkpt>
      <trkpt lat="43.8686" lon="7.29369">
        <ele>677</ele>
        <time>2012-11-18T09:07:22Z</time>
      </trkpt>
      <trkpt lat="43.86863" lon="7.29373">
        <ele>677</ele>
        <time>2012-11-18T09:07:27Z</time>
      </trkpt>
      <trkpt lat="43.86863" lon="7.29376">
        <ele>677</ele>
        <time>2012-11-18T09:07:30Z</time>
      </trkpt>
      <trkpt lat="43.86864" lon="7.29378">
        <ele>676</ele>
        <time>2012-11-18T09:07:33Z</time>
      </trkpt>
      <trkpt lat="43.86867" lon="7.29384">
        <ele>676</ele>
        <time>2012-11-18T09:07:38Z</time>
      </trkpt>
      <trkpt lat="43.86872" lon="7.29391">
        <ele>677</ele>
        <time>2012-11-18T09:07:44Z</time>
      </trkpt>
      <trkpt lat="43.86874" lon="7.29394">
        <ele>677</ele>
        <time>2012-11-18T09:07:48Z</time>
      </trkpt>
      <trkpt lat="43.86874" lon="7.29394">
        <ele>677</ele>
        <time>2012-11-18T09:07:51Z</time>
      </trkpt>
      <trkpt lat="43.86873" lon="7.29394">
        <ele>677</ele>
        <time>2012-11-18T09:07:57Z</time>
      </trkpt>
      <trkpt lat="43.86873" lon="7.29395">
        <ele>677</ele>
        <time>2012-11-18T09:08:01Z</time>
      </trkpt>
      <trkpt lat="43.86873" lon="7.29395">
        <ele>677</ele>
        <time>2012-11-18T09:08:04Z</time>
      </trkpt>
      <trkpt lat="43.86873" lon="7.29395">
        <ele>677</ele>
        <time>2012-11-18T09:08:07Z</time>
      </trkpt>
      <trkpt lat="43.86873" lon="7.29395">
        <ele>677</ele>
        <time>2012-11-18T09:08:11Z</time>
      </trkpt>
      <trkpt lat="43.86873" lon="7.29395">
        <ele>677</ele>
        <time>2012-11-18T09:08:15Z</time>
      </trkpt>
      <trkpt lat="43.86873" lon="7.29396">
        <ele>677</ele>
        <time>2012-11-18T09:08:19Z</time>
      </trkpt>
      <trkpt lat="43.86873" lon="7.29396">
        <ele>676</ele>
        <time>2012-11-18T09:08:22Z</time>
      </trkpt>
      <trkpt lat="43.86873" lon="7.29396">
        <ele>676</ele>
        <time>2012-11-18T09:08:25Z</time>
      </trkpt>
      <trkpt lat="43.86873" lon="7.29396">
        <ele>677</ele>
        <time>2012-11-18T09:08:28Z</time>
      </trkpt>
      <trkpt lat="43.86874" lon="7.29396">
        <ele>677</ele>
        <time>2012-11-18T09:08:33Z</time>
      </trkpt>
      <trkpt lat="43.86876" lon="7.29398">
        <ele>677</ele>
        <time>2012-11-18T09:08:37Z</time>
      </trkpt>
      <trkpt lat="43.86879" lon="7.29401">
        <ele>678</ele>
        <time>2012-11-18T09:08:41Z</time>
      </trkpt>
      <trkpt lat="43.86883" lon="7.29404">
        <ele>679</ele>
        <time>2012-11-18T09:08:45Z</time>
      </trkpt>
      <trkpt lat="43.86886" lon="7.29407">
        <ele>680</ele>
        <time>2012-11-18T09:08:49Z</time>
      </trkpt>
      <trkpt lat="43.86889" lon="7.2941">
        <ele>680</ele>
        <time>2012-11-18T09:08:53Z</time>
      </trkpt>
      <trkpt lat="43.86893" lon="7.29413">
        <ele>681</ele>
        <time>2012-11-18T09:08:57Z</time>
      </trkpt>
      <trkpt lat="43.86897" lon="7.29415">
        <ele>683</ele>
        <time>2012-11-18T09:09:02Z</time>
      </trkpt>
      <trkpt lat="43.86902" lon="7.29418">
        <ele>677</ele>
        <time>2012-11-18T09:09:08Z</time>
      </trkpt>
      <trkpt lat="43.86907" lon="7.29421">
        <ele>680</ele>
        <time>2012-11-18T09:09:14Z</time>
      </trkpt>
      <trkpt lat="43.86912" lon="7.29424">
        <ele>681</ele>
        <time>2012-11-18T09:09:19Z</time>
      </trkpt>
      <trkpt lat="43.86914" lon="7.29425">
        <ele>681</ele>
        <time>2012-11-18T09:09:22Z</time>
      </trkpt>
      <trkpt lat="43.86919" lon="7.29426">
        <ele>686</ele>
        <time>2012-11-18T09:09:27Z</time>
      </trkpt>
      <trkpt lat="43.86923" lon="7.29429">
        <ele>685</ele>
        <time>2012-11-18T09:09:32Z</time>
      </trkpt>
      <trkpt lat="43.86927" lon="7.29431">
        <ele>685</ele>
        <time>2012-11-18T09:09:36Z</time>
      </trkpt>
      <trkpt lat="43.8693" lon="7.29434">
        <ele>684</ele>
        <time>2012-11-18T09:09:40Z</time>
      </trkpt>
      <trkpt lat="43.86933" lon="7.29437">
        <ele>683</ele>
        <time>2012-11-18T09:09:44Z</time>
      </trkpt>
      <trkpt lat="43.86936" lon="7.29443">
        <ele>683</ele>
        <time>2012-11-18T09:09:50Z</time>
      </trkpt>
      <trkpt lat="43.86939" lon="7.29447">
        <ele>682</ele>
        <time>2012-11-18T09:09:55Z</time>
      </trkpt>
      <trkpt lat="43.86941" lon="7.29451">
        <ele>682</ele>
        <time>2012-11-18T09:09:59Z</time>
      </trkpt>
      <trkpt lat="43.86943" lon="7.29455">
        <ele>681</ele>
        <time>2012-11-18T09:10:03Z</time>
      </trkpt>
      <trkpt lat="43.86946" lon="7.29459">
        <ele>681</ele>
        <time>2012-11-18T09:10:08Z</time>
      </trkpt>
      <trkpt lat="43.86947" lon="7.29462">
        <ele>680</ele>
        <time>2012-11-18T09:10:12Z</time>
      </trkpt>
      <trkpt lat="43.86948" lon="7.29464">
        <ele>680</ele>
        <time>2012-11-18T09:10:16Z</time>
      </trkpt>
      <trkpt lat="43.86949" lon="7.29468">
        <ele>680</ele>
        <time>2012-11-18T09:10:20Z</time>
      </trkpt>
      <trkpt lat="43.86951" lon="7.29472">
        <ele>680</ele>
        <time>2012-11-18T09:10:24Z</time>
      </trkpt>
      <trkpt lat="43.86953" lon="7.29475">
        <ele>679</ele>
        <time>2012-11-18T09:10:27Z</time>
      </trkpt>
      <trkpt lat="43.86957" lon="7.29477">
        <ele>679</ele>
        <time>2012-11-18T09:10:31Z</time>
      </trkpt>
      <trkpt lat="43.8696" lon="7.29478">
        <ele>679</ele>
        <time>2012-11-18T09:10:35Z</time>
      </trkpt>
      <trkpt lat="43.86965" lon="7.2948">
        <ele>679</ele>
        <time>2012-11-18T09:10:40Z</time>
      </trkpt>
      <trkpt lat="43.86968" lon="7.2948">
        <ele>678</ele>
        <time>2012-11-18T09:10:44Z</time>
      </trkpt>
      <trkpt lat="43.86969" lon="7.2948">
        <ele>678</ele>
        <time>2012-11-18T09:10:48Z</time>
      </trkpt>
      <trkpt lat="43.86971" lon="7.29479">
        <ele>678</ele>
        <time>2012-11-18T09:10:52Z</time>
      </trkpt>
      <trkpt lat="43.86973" lon="7.29477">
        <ele>678</ele>
        <time>2012-11-18T09:10:55Z</time>
      </trkpt>
      <trkpt lat="43.86975" lon="7.29474">
        <ele>679</ele>
        <time>2012-11-18T09:10:58Z</time>
      </trkpt>
      <trkpt lat="43.86978" lon="7.29466">
        <ele>679</ele>
        <time>2012-11-18T09:11:04Z</time>
      </trkpt>
      <trkpt lat="43.86981" lon="7.2946">
        <ele>680</ele>
        <time>2012-11-18T09:11:09Z</time>
      </trkpt>
      <trkpt lat="43.86983" lon="7.29455">
        <ele>680</ele>
        <time>2012-11-18T09:11:13Z</time>
      </trkpt>
      <trkpt lat="43.86985" lon="7.29451">
        <ele>681</ele>
        <time>2012-11-18T09:11:17Z</time>
      </trkpt>
      <trkpt lat="43.86989" lon="7.29436">
        <ele>683</ele>
        <time>2012-11-18T09:11:31Z</time>
      </trkpt>
      <trkpt lat="43.86991" lon="7.29431">
        <ele>683</ele>
        <time>2012-11-18T09:11:35Z</time>
      </trkpt>
      <trkpt lat="43.86992" lon="7.29428">
        <ele>684</ele>
        <time>2012-11-18T09:11:38Z</time>
      </trkpt>
      <trkpt lat="43.86995" lon="7.29417">
        <ele>685</ele>
        <time>2012-11-18T09:11:47Z</time>
      </trkpt>
      <trkpt lat="43.86997" lon="7.29412">
        <ele>688</ele>
        <time>2012-11-18T09:11:51Z</time>
      </trkpt>
      <trkpt lat="43.86999" lon="7.29404">
        <ele>691</ele>
        <time>2012-11-18T09:11:57Z</time>
      </trkpt>
      <trkpt lat="43.87002" lon="7.29396">
        <ele>677</ele>
        <time>2012-11-18T09:12:03Z</time>
      </trkpt>
      <trkpt lat="43.87004" lon="7.29387">
        <ele>676</ele>
        <time>2012-11-18T09:12:09Z</time>
      </trkpt>
      <trkpt lat="43.87005" lon="7.29383">
        <ele>676</ele>
        <time>2012-11-18T09:12:12Z</time>
      </trkpt>
      <trkpt lat="43.87005" lon="7.29378">
        <ele>676</ele>
        <time>2012-11-18T09:12:15Z</time>
      </trkpt>
      <trkpt lat="43.87006" lon="7.29372">
        <ele>677</ele>
        <time>2012-11-18T09:12:20Z</time>
      </trkpt>
      <trkpt lat="43.87007" lon="7.29367">
        <ele>678</ele>
        <time>2012-11-18T09:12:23Z</time>
      </trkpt>
      <trkpt lat="43.87007" lon="7.29361">
        <ele>680</ele>
        <time>2012-11-18T09:12:27Z</time>
      </trkpt>
      <trkpt lat="43.87008" lon="7.2935">
        <ele>686</ele>
        <time>2012-11-18T09:12:34Z</time>
      </trkpt>
      <trkpt lat="43.87008" lon="7.29345">
        <ele>689</ele>
        <time>2012-11-18T09:12:37Z</time>
      </trkpt>
      <trkpt lat="43.8701" lon="7.29341">
        <ele>690</ele>
        <time>2012-11-18T09:12:40Z</time>
      </trkpt>
      <trkpt lat="43.87012" lon="7.29337">
        <ele>690</ele>
        <time>2012-11-18T09:12:44Z</time>
      </trkpt>
      <trkpt lat="43.87014" lon="7.29333">
        <ele>696</ele>
        <time>2012-11-18T09:12:48Z</time>
      </trkpt>
      <trkpt lat="43.87016" lon="7.29328">
        <ele>695</ele>
        <time>2012-11-18T09:12:52Z</time>
      </trkpt>
      <trkpt lat="43.87019" lon="7.29323">
        <ele>693</ele>
        <time>2012-11-18T09:12:56Z</time>
      </trkpt>
      <trkpt lat="43.87023" lon="7.29317">
        <ele>690</ele>
        <time>2012-11-18T09:13:01Z</time>
      </trkpt>
      <trkpt lat="43.87027" lon="7.29311">
        <ele>689</ele>
        <time>2012-11-18T09:13:06Z</time>
      </trkpt>
      <trkpt lat="43.87029" lon="7.29307">
        <ele>688</ele>
        <time>2012-11-18T09:13:10Z</time>
      </trkpt>
      <trkpt lat="43.87031" lon="7.29302">
        <ele>688</ele>
        <time>2012-11-18T09:13:14Z</time>
      </trkpt>
      <trkpt lat="43.87034" lon="7.29296">
        <ele>687</ele>
        <time>2012-11-18T09:13:19Z</time>
      </trkpt>
      <trkpt lat="43.87037" lon="7.2929">
        <ele>687</ele>
        <time>2012-11-18T09:13:24Z</time>
      </trkpt>
      <trkpt lat="43.87038" lon="7.29287">
        <ele>687</ele>
        <time>2012-11-18T09:13:27Z</time>
      </trkpt>
      <trkpt lat="43.8704" lon="7.2928">
        <ele>687</ele>
        <time>2012-11-18T09:13:33Z</time>
      </trkpt>
      <trkpt lat="43.87045" lon="7.29269">
        <ele>686</ele>
        <time>2012-11-18T09:13:42Z</time>
      </trkpt>
      <trkpt lat="43.8705" lon="7.29262">
        <ele>684</ele>
        <time>2012-11-18T09:13:48Z</time>
      </trkpt>
      <trkpt lat="43.87053" lon="7.29257">
        <ele>683</ele>
        <time>2012-11-18T09:13:52Z</time>
      </trkpt>
      <trkpt lat="43.87055" lon="7.29252">
        <ele>682</ele>
        <time>2012-11-18T09:13:56Z</time>
      </trkpt>
      <trkpt lat="43.87058" lon="7.29245">
        <ele>693</ele>
        <time>2012-11-18T09:14:01Z</time>
      </trkpt>
      <trkpt lat="43.87059" lon="7.29238">
        <ele>693</ele>
        <time>2012-11-18T09:14:06Z</time>
      </trkpt>
      <trkpt lat="43.87061" lon="7.29233">
        <ele>694</ele>
        <time>2012-11-18T09:14:10Z</time>
      </trkpt>
      <trkpt lat="43.87064" lon="7.29227">
        <ele>695</ele>
        <time>2012-11-18T09:14:15Z</time>
      </trkpt>
      <trkpt lat="43.87066" lon="7.2922">
        <ele>696</ele>
        <time>2012-11-18T09:14:20Z</time>
      </trkpt>
      <trkpt lat="43.8707" lon="7.29212">
        <ele>697</ele>
        <time>2012-11-18T09:14:27Z</time>
      </trkpt>
      <trkpt lat="43.87074" lon="7.29204">
        <ele>698</ele>
        <time>2012-11-18T09:14:33Z</time>
      </trkpt>
      <trkpt lat="43.87076" lon="7.29197">
        <ele>698</ele>
        <time>2012-11-18T09:14:38Z</time>
      </trkpt>
      <trkpt lat="43.87078" lon="7.29189">
        <ele>698</ele>
        <time>2012-11-18T09:14:42Z</time>
      </trkpt>
      <trkpt lat="43.87079" lon="7.29181">
        <ele>697</ele>
        <time>2012-11-18T09:14:47Z</time>
      </trkpt>
      <trkpt lat="43.8708" lon="7.29173">
        <ele>695</ele>
        <time>2012-11-18T09:14:52Z</time>
      </trkpt>
      <trkpt lat="43.8708" lon="7.29166">
        <ele>696</ele>
        <time>2012-11-18T09:14:58Z</time>
      </trkpt>
      <trkpt lat="43.87082" lon="7.29163">
        <ele>697</ele>
        <time>2012-11-18T09:15:02Z</time>
      </trkpt>
      <trkpt lat="43.87084" lon="7.29162">
        <ele>692</ele>
        <time>2012-11-18T09:15:08Z</time>
      </trkpt>
      <trkpt lat="43.87088" lon="7.2916">
        <ele>692</ele>
        <time>2012-11-18T09:15:13Z</time>
      </trkpt>
      <trkpt lat="43.87091" lon="7.29158">
        <ele>692</ele>
        <time>2012-11-18T09:15:16Z</time>
      </trkpt>
      <trkpt lat="43.87095" lon="7.29154">
        <ele>691</ele>
        <time>2012-11-18T09:15:20Z</time>
      </trkpt>
      <trkpt lat="43.87099" lon="7.2915">
        <ele>691</ele>
        <time>2012-11-18T09:15:24Z</time>
      </trkpt>
      <trkpt lat="43.87102" lon="7.29146">
        <ele>691</ele>
        <time>2012-11-18T09:15:28Z</time>
      </trkpt>
      <trkpt lat="43.87104" lon="7.29142">
        <ele>692</ele>
        <time>2012-11-18T09:15:31Z</time>
      </trkpt>
      <trkpt lat="43.87105" lon="7.29131">
        <ele>693</ele>
        <time>2012-11-18T09:15:38Z</time>
      </trkpt>
      <trkpt lat="43.87106" lon="7.29125">
        <ele>694</ele>
        <time>2012-11-18T09:15:42Z</time>
      </trkpt>
      <trkpt lat="43.87105" lon="7.29118">
        <ele>695</ele>
        <time>2012-11-18T09:15:46Z</time>
      </trkpt>
      <trkpt lat="43.87105" lon="7.29113">
        <ele>697</ele>
        <time>2012-11-18T09:15:50Z</time>
      </trkpt>
      <trkpt lat="43.87106" lon="7.2911">
        <ele>697</ele>
        <time>2012-11-18T09:15:53Z</time>
      </trkpt>
      <trkpt lat="43.87105" lon="7.29102">
        <ele>699</ele>
        <time>2012-11-18T09:15:59Z</time>
      </trkpt>
      <trkpt lat="43.87104" lon="7.29098">
        <ele>701</ele>
        <time>2012-11-18T09:16:03Z</time>
      </trkpt>
      <trkpt lat="43.87102" lon="7.29088">
        <ele>704</ele>
        <time>2012-11-18T09:16:10Z</time>
      </trkpt>
      <trkpt lat="43.87101" lon="7.29084">
        <ele>705</ele>
        <time>2012-11-18T09:16:13Z</time>
      </trkpt>
      <trkpt lat="43.87101" lon="7.29082">
        <ele>717</ele>
        <time>2012-11-18T09:16:15Z</time>
      </trkpt>
      <trkpt lat="43.87104" lon="7.2908">
        <ele>717</ele>
        <time>2012-11-18T09:16:18Z</time>
      </trkpt>
      <trkpt lat="43.87108" lon="7.2908">
        <ele>717</ele>
        <time>2012-11-18T09:16:21Z</time>
      </trkpt>
      <trkpt lat="43.87113" lon="7.29082">
        <ele>716</ele>
        <time>2012-11-18T09:16:25Z</time>
      </trkpt>
      <trkpt lat="43.87117" lon="7.29083">
        <ele>715</ele>
        <time>2012-11-18T09:16:29Z</time>
      </trkpt>
      <trkpt lat="43.87121" lon="7.29085">
        <ele>697</ele>
        <time>2012-11-18T09:16:33Z</time>
      </trkpt>
      <trkpt lat="43.87124" lon="7.29087">
        <ele>696</ele>
        <time>2012-11-18T09:16:37Z</time>
      </trkpt>
      <trkpt lat="43.87128" lon="7.29091">
        <ele>695</ele>
        <time>2012-11-18T09:16:42Z</time>
      </trkpt>
      <trkpt lat="43.87132" lon="7.29094">
        <ele>694</ele>
        <time>2012-11-18T09:16:46Z</time>
      </trkpt>
      <trkpt lat="43.87134" lon="7.29096">
        <ele>693</ele>
        <time>2012-11-18T09:16:51Z</time>
      </trkpt>
      <trkpt lat="43.87137" lon="7.29097">
        <ele>693</ele>
        <time>2012-11-18T09:16:57Z</time>
      </trkpt>
      <trkpt lat="43.87139" lon="7.29099">
        <ele>692</ele>
        <time>2012-11-18T09:17:02Z</time>
      </trkpt>
      <trkpt lat="43.87143" lon="7.29102">
        <ele>691</ele>
        <time>2012-11-18T09:17:07Z</time>
      </trkpt>
      <trkpt lat="43.87149" lon="7.29105">
        <ele>690</ele>
        <time>2012-11-18T09:17:13Z</time>
      </trkpt>
      <trkpt lat="43.87153" lon="7.29108">
        <ele>690</ele>
        <time>2012-11-18T09:17:20Z</time>
      </trkpt>
      <trkpt lat="43.87155" lon="7.2911">
        <ele>689</ele>
        <time>2012-11-18T09:17:24Z</time>
      </trkpt>
      <trkpt lat="43.87158" lon="7.29112">
        <ele>689</ele>
        <time>2012-11-18T09:17:28Z</time>
      </trkpt>
      <trkpt lat="43.8716" lon="7.29113">
        <ele>688</ele>
        <time>2012-11-18T09:17:31Z</time>
      </trkpt>
      <trkpt lat="43.87164" lon="7.29114">
        <ele>688</ele>
        <time>2012-11-18T09:17:35Z</time>
      </trkpt>
      <trkpt lat="43.87167" lon="7.29113">
        <ele>678</ele>
        <time>2012-11-18T09:17:38Z</time>
      </trkpt>
      <trkpt lat="43.87171" lon="7.29111">
        <ele>679</ele>
        <time>2012-11-18T09:17:42Z</time>
      </trkpt>
      <trkpt lat="43.87174" lon="7.29107">
        <ele>680</ele>
        <time>2012-11-18T09:17:47Z</time>
      </trkpt>
      <trkpt lat="43.87177" lon="7.29103">
        <ele>681</ele>
        <time>2012-11-18T09:17:51Z</time>
      </trkpt>
      <trkpt lat="43.87178" lon="7.29099">
        <ele>681</ele>
        <time>2012-11-18T09:17:54Z</time>
      </trkpt>
      <trkpt lat="43.87182" lon="7.29092">
        <ele>682</ele>
        <time>2012-11-18T09:18:02Z</time>
      </trkpt>
      <trkpt lat="43.87184" lon="7.29086">
        <ele>683</ele>
        <time>2012-11-18T09:18:06Z</time>
      </trkpt>
      <trkpt lat="43.87186" lon="7.29077">
        <ele>693</ele>
        <time>2012-11-18T09:18:10Z</time>
      </trkpt>
      <trkpt lat="43.87187" lon="7.29072">
        <ele>693</ele>
        <time>2012-11-18T09:18:13Z</time>
      </trkpt>
      <trkpt lat="43.87188" lon="7.29064">
        <ele>694</ele>
        <time>2012-11-18T09:18:17Z</time>
      </trkpt>
      <trkpt lat="43.8719" lon="7.29051">
        <ele>695</ele>
        <time>2012-11-18T09:18:26Z</time>
      </trkpt>
      <trkpt lat="43.87192" lon="7.29047">
        <ele>696</ele>
        <time>2012-11-18T09:18:29Z</time>
      </trkpt>
      <trkpt lat="43.87196" lon="7.29042">
        <ele>696</ele>
        <time>2012-11-18T09:18:34Z</time>
      </trkpt>
      <trkpt lat="43.87199" lon="7.29036">
        <ele>697</ele>
        <time>2012-11-18T09:18:38Z</time>
      </trkpt>
      <trkpt lat="43.87201" lon="7.29032">
        <ele>697</ele>
        <time>2012-11-18T09:18:41Z</time>
      </trkpt>
      <trkpt lat="43.87201" lon="7.29028">
        <ele>698</ele>
        <time>2012-11-18T09:18:44Z</time>
      </trkpt>
      <trkpt lat="43.87199" lon="7.29026">
        <ele>698</ele>
        <time>2012-11-18T09:18:49Z</time>
      </trkpt>
      <trkpt lat="43.87198" lon="7.29022">
        <ele>699</ele>
        <time>2012-11-18T09:18:57Z</time>
      </trkpt>
      <trkpt lat="43.87198" lon="7.29015">
        <ele>700</ele>
        <time>2012-11-18T09:19:02Z</time>
      </trkpt>
      <trkpt lat="43.87198" lon="7.29008">
        <ele>701</ele>
        <time>2012-11-18T09:19:07Z</time>
      </trkpt>
      <trkpt lat="43.87198" lon="7.29001">
        <ele>701</ele>
        <time>2012-11-18T09:19:13Z</time>
      </trkpt>
      <trkpt lat="43.87197" lon="7.28996">
        <ele>716</ele>
        <time>2012-11-18T09:19:17Z</time>
      </trkpt>
      <trkpt lat="43.8719" lon="7.28985">
        <ele>717</ele>
        <time>2012-11-18T09:19:37Z</time>
      </trkpt>
      <trkpt lat="43.87187" lon="7.28984">
        <ele>717</ele>
        <time>2012-11-18T09:19:41Z</time>
      </trkpt>
      <trkpt lat="43.87182" lon="7.28983">
        <ele>717</ele>
        <time>2012-11-18T09:19:57Z</time>
      </trkpt>
      <trkpt lat="43.87181" lon="7.2898">
        <ele>718</ele>
        <time>2012-11-18T09:20:05Z</time>
      </trkpt>
      <trkpt lat="43.87181" lon="7.28978">
        <ele>718</ele>
        <time>2012-11-18T09:20:08Z</time>
      </trkpt>
      <trkpt lat="43.87181" lon="7.28976">
        <ele>718</ele>
        <time>2012-11-18T09:20:11Z</time>
      </trkpt>
      <trkpt lat="43.87182" lon="7.28974">
        <ele>719</ele>
        <time>2012-11-18T09:20:21Z</time>
      </trkpt>
      <trkpt lat="43.87183" lon="7.28973">
        <ele>719</ele>
        <time>2012-11-18T09:20:27Z</time>
      </trkpt>
      <trkpt lat="43.87184" lon="7.28971">
        <ele>719</ele>
        <time>2012-11-18T09:20:31Z</time>
      </trkpt>
      <trkpt lat="43.87185" lon="7.28969">
        <ele>719</ele>
        <time>2012-11-18T09:20:34Z</time>
      </trkpt>
      <trkpt lat="43.87189" lon="7.28967">
        <ele>719</ele>
        <time>2012-11-18T09:20:41Z</time>
      </trkpt>
      <trkpt lat="43.87191" lon="7.28966">
        <ele>719</ele>
        <time>2012-11-18T09:20:44Z</time>
      </trkpt>
      <trkpt lat="43.87196" lon="7.28966">
        <ele>719</ele>
        <time>2012-11-18T09:20:48Z</time>
      </trkpt>
      <trkpt lat="43.87201" lon="7.28968">
        <ele>718</ele>
        <time>2012-11-18T09:20:51Z</time>
      </trkpt>
      <trkpt lat="43.87206" lon="7.2897">
        <ele>717</ele>
        <time>2012-11-18T09:20:54Z</time>
      </trkpt>
      <trkpt lat="43.8721" lon="7.28973">
        <ele>716</ele>
        <time>2012-11-18T09:20:58Z</time>
      </trkpt>
      <trkpt lat="43.87213" lon="7.28977">
        <ele>715</ele>
        <time>2012-11-18T09:21:04Z</time>
      </trkpt>
      <trkpt lat="43.87213" lon="7.2898">
        <ele>715</ele>
        <time>2012-11-18T09:21:08Z</time>
      </trkpt>
      <trkpt lat="43.87213" lon="7.28981">
        <ele>715</ele>
        <time>2012-11-18T09:21:11Z</time>
      </trkpt>
      <trkpt lat="43.87213" lon="7.28982">
        <ele>715</ele>
        <time>2012-11-18T09:21:14Z</time>
      </trkpt>
      <trkpt lat="43.87212" lon="7.28985">
        <ele>715</ele>
        <time>2012-11-18T09:21:20Z</time>
      </trkpt>
      <trkpt lat="43.87213" lon="7.28986">
        <ele>714</ele>
        <time>2012-11-18T09:21:24Z</time>
      </trkpt>
      <trkpt lat="43.87213" lon="7.28988">
        <ele>714</ele>
        <time>2012-11-18T09:21:32Z</time>
      </trkpt>
      <trkpt lat="43.87213" lon="7.28989">
        <ele>714</ele>
        <time>2012-11-18T09:21:35Z</time>
      </trkpt>
      <trkpt lat="43.87215" lon="7.2899">
        <ele>714</ele>
        <time>2012-11-18T09:21:46Z</time>
      </trkpt>
      <trkpt lat="43.87216" lon="7.28989">
        <ele>714</ele>
        <time>2012-11-18T09:21:52Z</time>
      </trkpt>
      <trkpt lat="43.87218" lon="7.28989">
        <ele>713</ele>
        <time>2012-11-18T09:21:58Z</time>
      </trkpt>
      <trkpt lat="43.8722" lon="7.28989">
        <ele>713</ele>
        <time>2012-11-18T09:22:01Z</time>
      </trkpt>
      <trkpt lat="43.87222" lon="7.28988">
        <ele>712</ele>
        <time>2012-11-18T09:22:04Z</time>
      </trkpt>
      <trkpt lat="43.87224" lon="7.28985">
        <ele>712</ele>
        <time>2012-11-18T09:22:08Z</time>
      </trkpt>
      <trkpt lat="43.87227" lon="7.28982">
        <ele>712</ele>
        <time>2012-11-18T09:22:12Z</time>
      </trkpt>
      <trkpt lat="43.87232" lon="7.28977">
        <ele>713</ele>
        <time>2012-11-18T09:22:18Z</time>
      </trkpt>
      <trkpt lat="43.87236" lon="7.28973">
        <ele>713</ele>
        <time>2012-11-18T09:22:22Z</time>
      </trkpt>
      <trkpt lat="43.8724" lon="7.28969">
        <ele>713</ele>
        <time>2012-11-18T09:22:26Z</time>
      </trkpt>
      <trkpt lat="43.87245" lon="7.28964">
        <ele>714</ele>
        <time>2012-11-18T09:22:31Z</time>
      </trkpt>
      <trkpt lat="43.87248" lon="7.28961">
        <ele>715</ele>
        <time>2012-11-18T09:22:34Z</time>
      </trkpt>
      <trkpt lat="43.87251" lon="7.28957">
        <ele>722</ele>
        <time>2012-11-18T09:22:38Z</time>
      </trkpt>
      <trkpt lat="43.87252" lon="7.28952">
        <ele>723</ele>
        <time>2012-11-18T09:22:42Z</time>
      </trkpt>
      <trkpt lat="43.87253" lon="7.28947">
        <ele>724</ele>
        <time>2012-11-18T09:22:46Z</time>
      </trkpt>
      <trkpt lat="43.87254" lon="7.28943">
        <ele>724</ele>
        <time>2012-11-18T09:22:49Z</time>
      </trkpt>
      <trkpt lat="43.87255" lon="7.2894">
        <ele>724</ele>
        <time>2012-11-18T09:22:53Z</time>
      </trkpt>
      <trkpt lat="43.87258" lon="7.28934">
        <ele>725</ele>
        <time>2012-11-18T09:23:00Z</time>
      </trkpt>
      <trkpt lat="43.87261" lon="7.28931">
        <ele>725</ele>
        <time>2012-11-18T09:23:04Z</time>
      </trkpt>
      <trkpt lat="43.87263" lon="7.28929">
        <ele>725</ele>
        <time>2012-11-18T09:23:07Z</time>
      </trkpt>
      <trkpt lat="43.87266" lon="7.28927">
        <ele>726</ele>
        <time>2012-11-18T09:23:11Z</time>
      </trkpt>
      <trkpt lat="43.87267" lon="7.28926">
        <ele>726</ele>
        <time>2012-11-18T09:23:14Z</time>
      </trkpt>
      <trkpt lat="43.87267" lon="7.28925">
        <ele>726</ele>
        <time>2012-11-18T09:23:17Z</time>
      </trkpt>
      <trkpt lat="43.87267" lon="7.28924">
        <ele>726</ele>
        <time>2012-11-18T09:23:20Z</time>
      </trkpt>
      <trkpt lat="43.87267" lon="7.28923">
        <ele>726</ele>
        <time>2012-11-18T09:23:23Z</time>
      </trkpt>
      <trkpt lat="43.87269" lon="7.28922">
        <ele>726</ele>
        <time>2012-11-18T09:23:29Z</time>
      </trkpt>
      <trkpt lat="43.87271" lon="7.28919">
        <ele>727</ele>
        <time>2012-11-18T09:23:35Z</time>
      </trkpt>
      <trkpt lat="43.87272" lon="7.28918">
        <ele>727</ele>
        <time>2012-11-18T09:23:39Z</time>
      </trkpt>
      <trkpt lat="43.87273" lon="7.28916">
        <ele>739</ele>
        <time>2012-11-18T09:23:43Z</time>
      </trkpt>
      <trkpt lat="43.87274" lon="7.28913">
        <ele>740</ele>
        <time>2012-11-18T09:23:48Z</time>
      </trkpt>
      <trkpt lat="43.87274" lon="7.28911">
        <ele>740</ele>
        <time>2012-11-18T09:23:53Z</time>
      </trkpt>
      <trkpt lat="43.87274" lon="7.28909">
        <ele>740</ele>
        <time>2012-11-18T09:23:57Z</time>
      </trkpt>
      <trkpt lat="43.87274" lon="7.28907">
        <ele>741</ele>
        <time>2012-11-18T09:24:00Z</time>
      </trkpt>
      <trkpt lat="43.87275" lon="7.28906">
        <ele>741</ele>
        <time>2012-11-18T09:24:04Z</time>
      </trkpt>
      <trkpt lat="43.87276" lon="7.28906">
        <ele>741</ele>
        <time>2012-11-18T09:24:08Z</time>
      </trkpt>
      <trkpt lat="43.87277" lon="7.28906">
        <ele>742</ele>
        <time>2012-11-18T09:24:12Z</time>
      </trkpt>
      <trkpt lat="43.8728" lon="7.28906">
        <ele>743</ele>
        <time>2012-11-18T09:24:16Z</time>
      </trkpt>
      <trkpt lat="43.87282" lon="7.28907">
        <ele>744</ele>
        <time>2012-11-18T09:24:19Z</time>
      </trkpt>
      <trkpt lat="43.87284" lon="7.28909">
        <ele>744</ele>
        <time>2012-11-18T09:24:22Z</time>
      </trkpt>
      <trkpt lat="43.87286" lon="7.28911">
        <ele>745</ele>
        <time>2012-11-18T09:24:25Z</time>
      </trkpt>
      <trkpt lat="43.87287" lon="7.28915">
        <ele>745</ele>
        <time>2012-11-18T09:24:28Z</time>
      </trkpt>
      <trkpt lat="43.87288" lon="7.28919">
        <ele>732</ele>
        <time>2012-11-18T09:24:31Z</time>
      </trkpt>
      <trkpt lat="43.87288" lon="7.28926">
        <ele>732</ele>
        <time>2012-11-18T09:24:35Z</time>
      </trkpt>
      <trkpt lat="43.87288" lon="7.28936">
        <ele>731</ele>
        <time>2012-11-18T09:24:40Z</time>
      </trkpt>
      <trkpt lat="43.87288" lon="7.28942">
        <ele>730</ele>
        <time>2012-11-18T09:24:43Z</time>
      </trkpt>
      <trkpt lat="43.87289" lon="7.28947">
        <ele>730</ele>
        <time>2012-11-18T09:24:46Z</time>
      </trkpt>
      <trkpt lat="43.87291" lon="7.2895">
        <ele>730</ele>
        <time>2012-11-18T09:24:49Z</time>
      </trkpt>
      <trkpt lat="43.87293" lon="7.28953">
        <ele>730</ele>
        <time>2012-11-18T09:24:52Z</time>
      </trkpt>
      <trkpt lat="43.87296" lon="7.28957">
        <ele>730</ele>
        <time>2012-11-18T09:24:56Z</time>
      </trkpt>
      <trkpt lat="43.87298" lon="7.2896">
        <ele>730</ele>
        <time>2012-11-18T09:24:59Z</time>
      </trkpt>
      <trkpt lat="43.87298" lon="7.28963">
        <ele>730</ele>
        <time>2012-11-18T09:25:03Z</time>
      </trkpt>
      <trkpt lat="43.87299" lon="7.28965">
        <ele>730</ele>
        <time>2012-11-18T09:25:06Z</time>
      </trkpt>
      <trkpt lat="43.873" lon="7.28967">
        <ele>730</ele>
        <time>2012-11-18T09:25:10Z</time>
      </trkpt>
      <trkpt lat="43.87302" lon="7.2897">
        <ele>730</ele>
        <time>2012-11-18T09:25:15Z</time>
      </trkpt>
      <trkpt lat="43.87302" lon="7.28971">
        <ele>730</ele>
        <time>2012-11-18T09:25:18Z</time>
      </trkpt>
      <trkpt lat="43.87304" lon="7.28973">
        <ele>731</ele>
        <time>2012-11-18T09:25:26Z</time>
      </trkpt>
      <trkpt lat="43.87304" lon="7.28974">
        <ele>731</ele>
        <time>2012-11-18T09:25:29Z</time>
      </trkpt>
      <trkpt lat="43.87304" lon="7.28975">
        <ele>731</ele>
        <time>2012-11-18T09:25:33Z</time>
      </trkpt>
      <trkpt lat="43.87304" lon="7.28975">
        <ele>731</ele>
        <time>2012-11-18T09:25:36Z</time>
      </trkpt>
      <trkpt lat="43.87305" lon="7.28976">
        <ele>731</ele>
        <time>2012-11-18T09:25:39Z</time>
      </trkpt>
      <trkpt lat="43.87306" lon="7.28975">
        <ele>731</ele>
        <time>2012-11-18T09:25:42Z</time>
      </trkpt>
      <trkpt lat="43.87307" lon="7.28973">
        <ele>731</ele>
        <time>2012-11-18T09:25:48Z</time>
      </trkpt>
      <trkpt lat="43.87309" lon="7.2897">
        <ele>732</ele>
        <time>2012-11-18T09:25:52Z</time>
      </trkpt>
      <trkpt lat="43.8731" lon="7.28966">
        <ele>732</ele>
        <time>2012-11-18T09:25:57Z</time>
      </trkpt>
      <trkpt lat="43.87311" lon="7.28964">
        <ele>733</ele>
        <time>2012-11-18T09:26:01Z</time>
      </trkpt>
      <trkpt lat="43.87312" lon="7.28964">
        <ele>733</ele>
        <time>2012-11-18T09:26:04Z</time>
      </trkpt>
      <trkpt lat="43.87312" lon="7.28964">
        <ele>733</ele>
        <time>2012-11-18T09:26:07Z</time>
      </trkpt>
      <trkpt lat="43.87313" lon="7.28966">
        <ele>733</ele>
        <time>2012-11-18T09:26:11Z</time>
      </trkpt>
      <trkpt lat="43.87314" lon="7.28968">
        <ele>733</ele>
        <time>2012-11-18T09:26:15Z</time>
      </trkpt>
      <trkpt lat="43.87315" lon="7.28972">
        <ele>733</ele>
        <time>2012-11-18T09:26:19Z</time>
      </trkpt>
      <trkpt lat="43.87316" lon="7.28977">
        <ele>733</ele>
        <time>2012-11-18T09:26:23Z</time>
      </trkpt>
      <trkpt lat="43.87317" lon="7.28989">
        <ele>734</ele>
        <time>2012-11-18T09:26:30Z</time>
      </trkpt>
      <trkpt lat="43.87317" lon="7.28996">
        <ele>734</ele>
        <time>2012-11-18T09:26:35Z</time>
      </trkpt>
      <trkpt lat="43.87317" lon="7.28999">
        <ele>734</ele>
        <time>2012-11-18T09:26:38Z</time>
      </trkpt>
      <trkpt lat="43.87318" lon="7.29002">
        <ele>727</ele>
        <time>2012-11-18T09:26:41Z</time>
      </trkpt>
      <trkpt lat="43.8732" lon="7.29005">
        <ele>727</ele>
        <time>2012-11-18T09:26:45Z</time>
      </trkpt>
      <trkpt lat="43.87323" lon="7.29009">
        <ele>728</ele>
        <time>2012-11-18T09:26:50Z</time>
      </trkpt>
      <trkpt lat="43.87327" lon="7.29013">
        <ele>727</ele>
        <time>2012-11-18T09:26:55Z</time>
      </trkpt>
      <trkpt lat="43.87331" lon="7.29018">
        <ele>725</ele>
        <time>2012-11-18T09:27:00Z</time>
      </trkpt>
      <trkpt lat="43.87336" lon="7.29026">
        <ele>746</ele>
        <time>2012-11-18T09:27:06Z</time>
      </trkpt>
      <trkpt lat="43.87339" lon="7.2903">
        <ele>747</ele>
        <time>2012-11-18T09:27:10Z</time>
      </trkpt>
      <trkpt lat="43.87343" lon="7.29036">
        <ele>747</ele>
        <time>2012-11-18T09:27:15Z</time>
      </trkpt>
      <trkpt lat="43.87347" lon="7.2904">
        <ele>747</ele>
        <time>2012-11-18T09:27:20Z</time>
      </trkpt>
      <trkpt lat="43.8735" lon="7.29044">
        <ele>747</ele>
        <time>2012-11-18T09:27:24Z</time>
      </trkpt>
      <trkpt lat="43.87353" lon="7.29047">
        <ele>748</ele>
        <time>2012-11-18T09:27:29Z</time>
      </trkpt>
      <trkpt lat="43.87355" lon="7.2905">
        <ele>748</ele>
        <time>2012-11-18T09:27:32Z</time>
      </trkpt>
      <trkpt lat="43.87357" lon="7.29054">
        <ele>747</ele>
        <time>2012-11-18T09:27:35Z</time>
      </trkpt>
      <trkpt lat="43.87358" lon="7.29062">
        <ele>746</ele>
        <time>2012-11-18T09:27:40Z</time>
      </trkpt>
      <trkpt lat="43.87358" lon="7.29069">
        <ele>745</ele>
        <time>2012-11-18T09:27:44Z</time>
      </trkpt>
      <trkpt lat="43.87357" lon="7.29074">
        <ele>744</ele>
        <time>2012-11-18T09:27:47Z</time>
      </trkpt>
      <trkpt lat="43.87354" lon="7.29081">
        <ele>742</ele>
        <time>2012-11-18T09:27:51Z</time>
      </trkpt>
      <trkpt lat="43.87352" lon="7.29089">
        <ele>735</ele>
        <time>2012-11-18T09:27:55Z</time>
      </trkpt>
      <trkpt lat="43.8735" lon="7.29095">
        <ele>735</ele>
        <time>2012-11-18T09:27:58Z</time>
      </trkpt>
      <trkpt lat="43.8735" lon="7.291">
        <ele>736</ele>
        <time>2012-11-18T09:28:01Z</time>
      </trkpt>
      <trkpt lat="43.87351" lon="7.29107">
        <ele>736</ele>
        <time>2012-11-18T09:28:05Z</time>
      </trkpt>
      <trkpt lat="43.87351" lon="7.29115">
        <ele>737</ele>
        <time>2012-11-18T09:28:11Z</time>
      </trkpt>
      <trkpt lat="43.87352" lon="7.29119">
        <ele>737</ele>
        <time>2012-11-18T09:28:14Z</time>
      </trkpt>
      <trkpt lat="43.87354" lon="7.29123">
        <ele>737</ele>
        <time>2012-11-18T09:28:17Z</time>
      </trkpt>
      <trkpt lat="43.87356" lon="7.29126">
        <ele>737</ele>
        <time>2012-11-18T09:28:21Z</time>
      </trkpt>
      <trkpt lat="43.87358" lon="7.29129">
        <ele>737</ele>
        <time>2012-11-18T09:28:25Z</time>
      </trkpt>
      <trkpt lat="43.87359" lon="7.29133">
        <ele>737</ele>
        <time>2012-11-18T09:28:29Z</time>
      </trkpt>
      <trkpt lat="43.8736" lon="7.2914">
        <ele>737</ele>
        <time>2012-11-18T09:28:36Z</time>
      </trkpt>
      <trkpt lat="43.87361" lon="7.29142">
        <ele>737</ele>
        <time>2012-11-18T09:28:39Z</time>
      </trkpt>
      <trkpt lat="43.87363" lon="7.29143">
        <ele>737</ele>
        <time>2012-11-18T09:28:42Z</time>
      </trkpt>
      <trkpt lat="43.87365" lon="7.29145">
        <ele>737</ele>
        <time>2012-11-18T09:28:46Z</time>
      </trkpt>
      <trkpt lat="43.87366" lon="7.29146">
        <ele>738</ele>
        <time>2012-11-18T09:28:49Z</time>
      </trkpt>
      <trkpt lat="43.87368" lon="7.29149">
        <ele>738</ele>
        <time>2012-11-18T09:28:52Z</time>
      </trkpt>
      <trkpt lat="43.87369" lon="7.29151">
        <ele>738</ele>
        <time>2012-11-18T09:28:55Z</time>
      </trkpt>
      <trkpt lat="43.87372" lon="7.29153">
        <ele>739</ele>
        <time>2012-11-18T09:28:59Z</time>
      </trkpt>
      <trkpt lat="43.87374" lon="7.29156">
        <ele>739</ele>
        <time>2012-11-18T09:29:03Z</time>
      </trkpt>
      <trkpt lat="43.87375" lon="7.29159">
        <ele>740</ele>
        <time>2012-11-18T09:29:07Z</time>
      </trkpt>
      <trkpt lat="43.87377" lon="7.29161">
        <ele>740</ele>
        <time>2012-11-18T09:29:11Z</time>
      </trkpt>
      <trkpt lat="43.87379" lon="7.29164">
        <ele>741</ele>
        <time>2012-11-18T09:29:16Z</time>
      </trkpt>
      <trkpt lat="43.87382" lon="7.29166">
        <ele>742</ele>
        <time>2012-11-18T09:29:21Z</time>
      </trkpt>
      <trkpt lat="43.87386" lon="7.2917">
        <ele>733</ele>
        <time>2012-11-18T09:29:27Z</time>
      </trkpt>
      <trkpt lat="43.87389" lon="7.29172">
        <ele>734</ele>
        <time>2012-11-18T09:29:31Z</time>
      </trkpt>
      <trkpt lat="43.87392" lon="7.29174">
        <ele>735</ele>
        <time>2012-11-18T09:29:35Z</time>
      </trkpt>
      <trkpt lat="43.87393" lon="7.29174">
        <ele>735</ele>
        <time>2012-11-18T09:29:39Z</time>
      </trkpt>
      <trkpt lat="43.87395" lon="7.29174">
        <ele>736</ele>
        <time>2012-11-18T09:29:43Z</time>
      </trkpt>
      <trkpt lat="43.87399" lon="7.29174">
        <ele>738</ele>
        <time>2012-11-18T09:29:49Z</time>
      </trkpt>
      <trkpt lat="43.87403" lon="7.29174">
        <ele>741</ele>
        <time>2012-11-18T09:29:53Z</time>
      </trkpt>
      <trkpt lat="43.87404" lon="7.29173">
        <ele>742</ele>
        <time>2012-11-18T09:29:56Z</time>
      </trkpt>
      <trkpt lat="43.87404" lon="7.29172">
        <ele>742</ele>
        <time>2012-11-18T09:29:59Z</time>
      </trkpt>
      <trkpt lat="43.87407" lon="7.29171">
        <ele>744</ele>
        <time>2012-11-18T09:30:03Z</time>
      </trkpt>
      <trkpt lat="43.87407" lon="7.29171">
        <ele>744</ele>
        <time>2012-11-18T09:30:06Z</time>
      </trkpt>
      <trkpt lat="43.87408" lon="7.2917">
        <ele>745</ele>
        <time>2012-11-18T09:30:10Z</time>
      </trkpt>
      <trkpt lat="43.87408" lon="7.29169">
        <ele>746</ele>
        <time>2012-11-18T09:30:13Z</time>
      </trkpt>
      <trkpt lat="43.87409" lon="7.29167">
        <ele>747</ele>
        <time>2012-11-18T09:30:19Z</time>
      </trkpt>
      <trkpt lat="43.8741" lon="7.29167">
        <ele>747</ele>
        <time>2012-11-18T09:30:23Z</time>
      </trkpt>
      <trkpt lat="43.8741" lon="7.29167">
        <ele>748</ele>
        <time>2012-11-18T09:30:26Z</time>
      </trkpt>
      <trkpt lat="43.87411" lon="7.29169">
        <ele>748</ele>
        <time>2012-11-18T09:30:29Z</time>
      </trkpt>
      <trkpt lat="43.87412" lon="7.29171">
        <ele>748</ele>
        <time>2012-11-18T09:30:38Z</time>
      </trkpt>
      <trkpt lat="43.87413" lon="7.29171">
        <ele>749</ele>
        <time>2012-11-18T09:30:43Z</time>
      </trkpt>
      <trkpt lat="43.87414" lon="7.29171">
        <ele>749</ele>
        <time>2012-11-18T09:30:47Z</time>
      </trkpt>
      <trkpt lat="43.87414" lon="7.29171">
        <ele>749</ele>
        <time>2012-11-18T09:30:50Z</time>
      </trkpt>
      <trkpt lat="43.87415" lon="7.29172">
        <ele>749</ele>
        <time>2012-11-18T09:30:57Z</time>
      </trkpt>
      <trkpt lat="43.87418" lon="7.29175">
        <ele>749</ele>
        <time>2012-11-18T09:31:04Z</time>
      </trkpt>
      <trkpt lat="43.87418" lon="7.29176">
        <ele>749</ele>
        <time>2012-11-18T09:31:12Z</time>
      </trkpt>
      <trkpt lat="43.87416" lon="7.29172">
        <ele>749</ele>
        <time>2012-11-18T09:31:21Z</time>
      </trkpt>
      <trkpt lat="43.87415" lon="7.29172">
        <ele>749</ele>
        <time>2012-11-18T09:31:24Z</time>
      </trkpt>
      <trkpt lat="43.87415" lon="7.29171">
        <ele>750</ele>
        <time>2012-11-18T09:31:26Z</time>
      </trkpt>
      <trkpt lat="43.87414" lon="7.2917">
        <ele>750</ele>
        <time>2012-11-18T09:31:29Z</time>
      </trkpt>
      <trkpt lat="43.87413" lon="7.2917">
        <ele>749</ele>
        <time>2012-11-18T09:31:31Z</time>
      </trkpt>
      <trkpt lat="43.87412" lon="7.2917">
        <ele>749</ele>
        <time>2012-11-18T09:31:34Z</time>
      </trkpt>
      <trkpt lat="43.8741" lon="7.2917">
        <ele>747</ele>
        <time>2012-11-18T09:31:38Z</time>
      </trkpt>
      <trkpt lat="43.87409" lon="7.29169">
        <ele>746</ele>
        <time>2012-11-18T09:31:41Z</time>
      </trkpt>
      <trkpt lat="43.87408" lon="7.29169">
        <ele>746</ele>
        <time>2012-11-18T09:31:46Z</time>
      </trkpt>
      <trkpt lat="43.87406" lon="7.29169">
        <ele>744</ele>
        <time>2012-11-18T09:31:55Z</time>
      </trkpt>
      <trkpt lat="43.87407" lon="7.29169">
        <ele>744</ele>
        <time>2012-11-18T09:31:57Z</time>
      </trkpt>
      <trkpt lat="43.87407" lon="7.29169">
        <ele>745</ele>
        <time>2012-11-18T09:32:00Z</time>
      </trkpt>
      <trkpt lat="43.87408" lon="7.29169">
        <ele>745</ele>
        <time>2012-11-18T09:32:04Z</time>
      </trkpt>
      <trkpt lat="43.87408" lon="7.29168">
        <ele>746</ele>
        <time>2012-11-18T09:32:10Z</time>
      </trkpt>
      <trkpt lat="43.87409" lon="7.29168">
        <ele>746</ele>
        <time>2012-11-18T09:32:13Z</time>
      </trkpt>
      <trkpt lat="43.87409" lon="7.29166">
        <ele>751</ele>
        <time>2012-11-18T09:32:17Z</time>
      </trkpt>
      <trkpt lat="43.87409" lon="7.29165">
        <ele>751</ele>
        <time>2012-11-18T09:32:23Z</time>
      </trkpt>
      <trkpt lat="43.87409" lon="7.29164">
        <ele>751</ele>
        <time>2012-11-18T09:32:27Z</time>
      </trkpt>
      <trkpt lat="43.8741" lon="7.29163">
        <ele>751</ele>
        <time>2012-11-18T09:32:30Z</time>
      </trkpt>
      <trkpt lat="43.8741" lon="7.29164">
        <ele>751</ele>
        <time>2012-11-18T09:32:33Z</time>
      </trkpt>
      <trkpt lat="43.8741" lon="7.29164">
        <ele>752</ele>
        <time>2012-11-18T09:32:36Z</time>
      </trkpt>
      <trkpt lat="43.8741" lon="7.29163">
        <ele>751</ele>
        <time>2012-11-18T09:32:40Z</time>
      </trkpt>
      <trkpt lat="43.8741" lon="7.29163">
        <ele>751</ele>
        <time>2012-11-18T09:32:43Z</time>
      </trkpt>
      <trkpt lat="43.87409" lon="7.29164">
        <ele>751</ele>
        <time>2012-11-18T09:32:46Z</time>
      </trkpt>
      <trkpt lat="43.87409" lon="7.29165">
        <ele>751</ele>
        <time>2012-11-18T09:32:50Z</time>
      </trkpt>
      <trkpt lat="43.87409" lon="7.29165">
        <ele>751</ele>
        <time>2012-11-18T09:32:52Z</time>
      </trkpt>
      <trkpt lat="43.87408" lon="7.29165">
        <ele>751</ele>
        <time>2012-11-18T09:33:00Z</time>
      </trkpt>
      <trkpt lat="43.87407" lon="7.29165">
        <ele>750</ele>
        <time>2012-11-18T09:33:03Z</time>
      </trkpt>
      <trkpt lat="43.87407" lon="7.29165">
        <ele>750</ele>
        <time>2012-11-18T09:33:06Z</time>
      </trkpt>
      <trkpt lat="43.87407" lon="7.29165">
        <ele>750</ele>
        <time>2012-11-18T09:33:10Z</time>
      </trkpt>
      <trkpt lat="43.87408" lon="7.29166">
        <ele>751</ele>
        <time>2012-11-18T09:33:13Z</time>
      </trkpt>
      <trkpt lat="43.87408" lon="7.29166">
        <ele>751</ele>
        <time>2012-11-18T09:33:18Z</time>
      </trkpt>
      <trkpt lat="43.87408" lon="7.29166">
        <ele>751</ele>
        <time>2012-11-18T09:33:21Z</time>
      </trkpt>
      <trkpt lat="43.87408" lon="7.29165">
        <ele>751</ele>
        <time>2012-11-18T09:33:25Z</time>
      </trkpt>
      <trkpt lat="43.87408" lon="7.29166">
        <ele>751</ele>
        <time>2012-11-18T09:33:29Z</time>
      </trkpt>
      <trkpt lat="43.87409" lon="7.29165">
        <ele>751</ele>
        <time>2012-11-18T09:33:37Z</time>
      </trkpt>
      <trkpt lat="43.87409" lon="7.29164">
        <ele>751</ele>
        <time>2012-11-18T09:33:41Z</time>
      </trkpt>
      <trkpt lat="43.87408" lon="7.29164">
        <ele>751</ele>
        <time>2012-11-18T09:33:44Z</time>
      </trkpt>
      <trkpt lat="43.87406" lon="7.29162">
        <ele>750</ele>
        <time>2012-11-18T09:33:52Z</time>
      </trkpt>
      <trkpt lat="43.87406" lon="7.29161">
        <ele>749</ele>
        <time>2012-11-18T09:33:55Z</time>
      </trkpt>
      <trkpt lat="43.87405" lon="7.29164">
        <ele>750</ele>
        <time>2012-11-18T09:34:05Z</time>
      </trkpt>
      <trkpt lat="43.87405" lon="7.29164">
        <ele>750</ele>
        <time>2012-11-18T09:34:08Z</time>
      </trkpt>
      <trkpt lat="43.87405" lon="7.29165">
        <ele>750</ele>
        <time>2012-11-18T09:34:15Z</time>
      </trkpt>
      <trkpt lat="43.87406" lon="7.29168">
        <ele>744</ele>
        <time>2012-11-18T09:34:20Z</time>
      </trkpt>
      <trkpt lat="43.87407" lon="7.29169">
        <ele>744</ele>
        <time>2012-11-18T09:34:24Z</time>
      </trkpt>
      <trkpt lat="43.87409" lon="7.2917">
        <ele>746</ele>
        <time>2012-11-18T09:34:31Z</time>
      </trkpt>
      <trkpt lat="43.8741" lon="7.2917">
        <ele>747</ele>
        <time>2012-11-18T09:34:37Z</time>
      </trkpt>
      <trkpt lat="43.87411" lon="7.2917">
        <ele>748</ele>
        <time>2012-11-18T09:34:41Z</time>
      </trkpt>
      <trkpt lat="43.87412" lon="7.2917">
        <ele>749</ele>
        <time>2012-11-18T09:34:46Z</time>
      </trkpt>
      <trkpt lat="43.87413" lon="7.2917">
        <ele>750</ele>
        <time>2012-11-18T09:34:50Z</time>
      </trkpt>
      <trkpt lat="43.87412" lon="7.29165">
        <ele>753</ele>
        <time>2012-11-18T09:35:13Z</time>
      </trkpt>
      <trkpt lat="43.87411" lon="7.29161">
        <ele>751</ele>
        <time>2012-11-18T09:35:23Z</time>
      </trkpt>
      <trkpt lat="43.8741" lon="7.2916">
        <ele>751</ele>
        <time>2012-11-18T09:35:27Z</time>
      </trkpt>
      <trkpt lat="43.87409" lon="7.29158">
        <ele>750</ele>
        <time>2012-11-18T09:35:32Z</time>
      </trkpt>
      <trkpt lat="43.87408" lon="7.29156">
        <ele>749</ele>
        <time>2012-11-18T09:35:35Z</time>
      </trkpt>
      <trkpt lat="43.87406" lon="7.29155">
        <ele>749</ele>
        <time>2012-11-18T09:35:40Z</time>
      </trkpt>
      <trkpt lat="43.87405" lon="7.29154">
        <ele>748</ele>
        <time>2012-11-18T09:35:43Z</time>
      </trkpt>
      <trkpt lat="43.87404" lon="7.29154">
        <ele>748</ele>
        <time>2012-11-18T09:35:56Z</time>
      </trkpt>
      <trkpt lat="43.87403" lon="7.29153">
        <ele>748</ele>
        <time>2012-11-18T09:36:00Z</time>
      </trkpt>
      <trkpt lat="43.87403" lon="7.29154">
        <ele>748</ele>
        <time>2012-11-18T09:36:05Z</time>
      </trkpt>
      <trkpt lat="43.87403" lon="7.29156">
        <ele>748</ele>
        <time>2012-11-18T09:36:09Z</time>
      </trkpt>
      <trkpt lat="43.87403" lon="7.29156">
        <ele>748</ele>
        <time>2012-11-18T09:36:11Z</time>
      </trkpt>
      <trkpt lat="43.87403" lon="7.29156">
        <ele>748</ele>
        <time>2012-11-18T09:36:16Z</time>
      </trkpt>
      <trkpt lat="43.87402" lon="7.29155">
        <ele>748</ele>
        <time>2012-11-18T09:36:24Z</time>
      </trkpt>
      <trkpt lat="43.87402" lon="7.29155">
        <ele>748</ele>
        <time>2012-11-18T09:36:28Z</time>
      </trkpt>
      <trkpt lat="43.87401" lon="7.29155">
        <ele>747</ele>
        <time>2012-11-18T09:36:35Z</time>
      </trkpt>
      <trkpt lat="43.874" lon="7.29153">
        <ele>747</ele>
        <time>2012-11-18T09:36:40Z</time>
      </trkpt>
      <trkpt lat="43.87399" lon="7.2915">
        <ele>746</ele>
        <time>2012-11-18T09:36:47Z</time>
      </trkpt>
      <trkpt lat="43.87398" lon="7.2915">
        <ele>746</ele>
        <time>2012-11-18T09:36:51Z</time>
      </trkpt>
      <trkpt lat="43.874" lon="7.29154">
        <ele>747</ele>
        <time>2012-11-18T09:37:01Z</time>
      </trkpt>
      <trkpt lat="43.87402" lon="7.29158">
        <ele>748</ele>
        <time>2012-11-18T09:37:10Z</time>
      </trkpt>
      <trkpt lat="43.87403" lon="7.29159">
        <ele>748</ele>
        <time>2012-11-18T09:37:14Z</time>
      </trkpt>
      <trkpt lat="43.87404" lon="7.2916">
        <ele>749</ele>
        <time>2012-11-18T09:37:21Z</time>
      </trkpt>
      <trkpt lat="43.87406" lon="7.29161">
        <ele>749</ele>
        <time>2012-11-18T09:37:25Z</time>
      </trkpt>
      <trkpt lat="43.8741" lon="7.29161">
        <ele>751</ele>
        <time>2012-11-18T09:37:39Z</time>
      </trkpt>
      <trkpt lat="43.87411" lon="7.29162">
        <ele>751</ele>
        <time>2012-11-18T09:37:44Z</time>
      </trkpt>
      <trkpt lat="43.87411" lon="7.29162">
        <ele>751</ele>
        <time>2012-11-18T09:37:47Z</time>
      </trkpt>
      <trkpt lat="43.8741" lon="7.29162">
        <ele>751</ele>
        <time>2012-11-18T09:37:51Z</time>
      </trkpt>
      <trkpt lat="43.8741" lon="7.29161">
        <ele>751</ele>
        <time>2012-11-18T09:37:55Z</time>
      </trkpt>
      <trkpt lat="43.87411" lon="7.29162">
        <ele>751</ele>
        <time>2012-11-18T09:37:58Z</time>
      </trkpt>
      <trkpt lat="43.87411" lon="7.29162">
        <ele>751</ele>
        <time>2012-11-18T09:38:02Z</time>
      </trkpt>
      <trkpt lat="43.87411" lon="7.29162">
        <ele>752</ele>
        <time>2012-11-18T09:38:07Z</time>
      </trkpt>
      <trkpt lat="43.87411" lon="7.29162">
        <ele>752</ele>
        <time>2012-11-18T09:38:10Z</time>
      </trkpt>
      <trkpt lat="43.87412" lon="7.29161">
        <ele>751</ele>
        <time>2012-11-18T09:38:13Z</time>
      </trkpt>
      <trkpt lat="43.87412" lon="7.29159">
        <ele>751</ele>
        <time>2012-11-18T09:38:17Z</time>
      </trkpt>
      <trkpt lat="43.87411" lon="7.29157">
        <ele>750</ele>
        <time>2012-11-18T09:38:20Z</time>
      </trkpt>
      <trkpt lat="43.87412" lon="7.29152">
        <ele>749</ele>
        <time>2012-11-18T09:38:29Z</time>
      </trkpt>
      <trkpt lat="43.87412" lon="7.29149">
        <ele>749</ele>
        <time>2012-11-18T09:38:34Z</time>
      </trkpt>
      <trkpt lat="43.87412" lon="7.29148">
        <ele>749</ele>
        <time>2012-11-18T09:38:38Z</time>
      </trkpt>
      <trkpt lat="43.87413" lon="7.29146">
        <ele>748</ele>
        <time>2012-11-18T09:38:42Z</time>
      </trkpt>
      <trkpt lat="43.87413" lon="7.29143">
        <ele>748</ele>
        <time>2012-11-18T09:38:46Z</time>
      </trkpt>
      <trkpt lat="43.87413" lon="7.29141">
        <ele>748</ele>
        <time>2012-11-18T09:38:50Z</time>
      </trkpt>
      <trkpt lat="43.87413" lon="7.2914">
        <ele>748</ele>
        <time>2012-11-18T09:38:53Z</time>
      </trkpt>
      <trkpt lat="43.87412" lon="7.29138">
        <ele>748</ele>
        <time>2012-11-18T09:38:57Z</time>
      </trkpt>
      <trkpt lat="43.87411" lon="7.29135">
        <ele>748</ele>
        <time>2012-11-18T09:39:01Z</time>
      </trkpt>
      <trkpt lat="43.87411" lon="7.29134">
        <ele>747</ele>
        <time>2012-11-18T09:39:04Z</time>
      </trkpt>
      <trkpt lat="43.87411" lon="7.29133">
        <ele>747</ele>
        <time>2012-11-18T09:39:07Z</time>
      </trkpt>
      <trkpt lat="43.87411" lon="7.29134">
        <ele>748</ele>
        <time>2012-11-18T09:39:10Z</time>
      </trkpt>
      <trkpt lat="43.87411" lon="7.29133">
        <ele>748</ele>
        <time>2012-11-18T09:39:13Z</time>
      </trkpt>
      <trkpt lat="43.87411" lon="7.29133">
        <ele>748</ele>
        <time>2012-11-18T09:39:17Z</time>
      </trkpt>
      <trkpt lat="43.87411" lon="7.29132">
        <ele>748</ele>
        <time>2012-11-18T09:39:20Z</time>
      </trkpt>
      <trkpt lat="43.87411" lon="7.29131">
        <ele>748</ele>
        <time>2012-11-18T09:39:23Z</time>
      </trkpt>
      <trkpt lat="43.87412" lon="7.29131">
        <ele>748</ele>
        <time>2012-11-18T09:39:26Z</time>
      </trkpt>
      <trkpt lat="43.87412" lon="7.2913">
        <ele>748</ele>
        <time>2012-11-18T09:39:30Z</time>
      </trkpt>
      <trkpt lat="43.87412" lon="7.29129">
        <ele>748</ele>
        <time>2012-11-18T09:39:35Z</time>
      </trkpt>
      <trkpt lat="43.87412" lon="7.29127">
        <ele>748</ele>
        <time>2012-11-18T09:39:39Z</time>
      </trkpt>
      <trkpt lat="43.87411" lon="7.29123">
        <ele>748</ele>
        <time>2012-11-18T09:39:45Z</time>
      </trkpt>
      <trkpt lat="43.87411" lon="7.29121">
        <ele>748</ele>
        <time>2012-11-18T09:39:48Z</time>
      </trkpt>
      <trkpt lat="43.87412" lon="7.2912">
        <ele>749</ele>
        <time>2012-11-18T09:39:52Z</time>
      </trkpt>
      <trkpt lat="43.87412" lon="7.29118">
        <ele>749</ele>
        <time>2012-11-18T09:39:56Z</time>
      </trkpt>
      <trkpt lat="43.87412" lon="7.29116">
        <ele>749</ele>
        <time>2012-11-18T09:40:00Z</time>
      </trkpt>
      <trkpt lat="43.87412" lon="7.29115">
        <ele>749</ele>
        <time>2012-11-18T09:40:04Z</time>
      </trkpt>
      <trkpt lat="43.87412" lon="7.29113">
        <ele>750</ele>
        <time>2012-11-18T09:40:10Z</time>
      </trkpt>
      <trkpt lat="43.87411" lon="7.29112">
        <ele>750</ele>
        <time>2012-11-18T09:40:14Z</time>
      </trkpt>
      <trkpt lat="43.87411" lon="7.29109">
        <ele>751</ele>
        <time>2012-11-18T09:40:18Z</time>
      </trkpt>
      <trkpt lat="43.8741" lon="7.29105">
        <ele>752</ele>
        <time>2012-11-18T09:40:22Z</time>
      </trkpt>
      <trkpt lat="43.8741" lon="7.29103">
        <ele>752</ele>
        <time>2012-11-18T09:40:25Z</time>
      </trkpt>
      <trkpt lat="43.87411" lon="7.291">
        <ele>753</ele>
        <time>2012-11-18T09:40:29Z</time>
      </trkpt>
      <trkpt lat="43.87411" lon="7.29098">
        <ele>754</ele>
        <time>2012-11-18T09:40:33Z</time>
      </trkpt>
      <trkpt lat="43.87412" lon="7.29093">
        <ele>757</ele>
        <time>2012-11-18T09:40:39Z</time>
      </trkpt>
      <trkpt lat="43.87412" lon="7.2909">
        <ele>758</ele>
        <time>2012-11-18T09:40:43Z</time>
      </trkpt>
      <trkpt lat="43.87412" lon="7.29087">
        <ele>760</ele>
        <time>2012-11-18T09:40:47Z</time>
      </trkpt>
      <trkpt lat="43.87412" lon="7.29085">
        <ele>760</ele>
        <time>2012-11-18T09:40:50Z</time>
      </trkpt>
      <trkpt lat="43.87412" lon="7.29082">
        <ele>763</ele>
        <time>2012-11-18T09:40:55Z</time>
      </trkpt>
      <trkpt lat="43.87413" lon="7.29079">
        <ele>763</ele>
        <time>2012-11-18T09:40:59Z</time>
      </trkpt>
      <trkpt lat="43.87414" lon="7.29077">
        <ele>762</ele>
        <time>2012-11-18T09:41:03Z</time>
      </trkpt>
      <trkpt lat="43.87414" lon="7.29073">
        <ele>761</ele>
        <time>2012-11-18T09:41:07Z</time>
      </trkpt>
      <trkpt lat="43.87415" lon="7.29069">
        <ele>761</ele>
        <time>2012-11-18T09:41:11Z</time>
      </trkpt>
      <trkpt lat="43.87416" lon="7.29066">
        <ele>760</ele>
        <time>2012-11-18T09:41:14Z</time>
      </trkpt>
      <trkpt lat="43.87418" lon="7.29063">
        <ele>772</ele>
        <time>2012-11-18T09:41:18Z</time>
      </trkpt>
      <trkpt lat="43.87419" lon="7.2906">
        <ele>772</ele>
        <time>2012-11-18T09:41:21Z</time>
      </trkpt>
      <trkpt lat="43.87419" lon="7.29055">
        <ele>773</ele>
        <time>2012-11-18T09:41:25Z</time>
      </trkpt>
      <trkpt lat="43.87419" lon="7.29052">
        <ele>774</ele>
        <time>2012-11-18T09:41:30Z</time>
      </trkpt>
      <trkpt lat="43.87419" lon="7.2905">
        <ele>774</ele>
        <time>2012-11-18T09:41:33Z</time>
      </trkpt>
      <trkpt lat="43.8742" lon="7.29048">
        <ele>774</ele>
        <time>2012-11-18T09:41:37Z</time>
      </trkpt>
      <trkpt lat="43.87421" lon="7.29045">
        <ele>775</ele>
        <time>2012-11-18T09:41:41Z</time>
      </trkpt>
      <trkpt lat="43.87424" lon="7.2904">
        <ele>776</ele>
        <time>2012-11-18T09:41:46Z</time>
      </trkpt>
      <trkpt lat="43.87428" lon="7.29033">
        <ele>777</ele>
        <time>2012-11-18T09:41:51Z</time>
      </trkpt>
      <trkpt lat="43.87431" lon="7.29026">
        <ele>777</ele>
        <time>2012-11-18T09:41:56Z</time>
      </trkpt>
      <trkpt lat="43.87434" lon="7.29022">
        <ele>778</ele>
        <time>2012-11-18T09:42:00Z</time>
      </trkpt>
      <trkpt lat="43.87437" lon="7.29018">
        <ele>778</ele>
        <time>2012-11-18T09:42:04Z</time>
      </trkpt>
      <trkpt lat="43.8744" lon="7.29016">
        <ele>778</ele>
        <time>2012-11-18T09:42:07Z</time>
      </trkpt>
      <trkpt lat="43.87445" lon="7.29012">
        <ele>779</ele>
        <time>2012-11-18T09:42:12Z</time>
      </trkpt>
      <trkpt lat="43.87449" lon="7.29009">
        <ele>779</ele>
        <time>2012-11-18T09:42:16Z</time>
      </trkpt>
      <trkpt lat="43.87452" lon="7.29006">
        <ele>779</ele>
        <time>2012-11-18T09:42:19Z</time>
      </trkpt>
      <trkpt lat="43.87455" lon="7.29">
        <ele>780</ele>
        <time>2012-11-18T09:42:23Z</time>
      </trkpt>
      <trkpt lat="43.87458" lon="7.28997">
        <ele>793</ele>
        <time>2012-11-18T09:42:26Z</time>
      </trkpt>
      <trkpt lat="43.87463" lon="7.28993">
        <ele>794</ele>
        <time>2012-11-18T09:42:30Z</time>
      </trkpt>
      <trkpt lat="43.87467" lon="7.28991">
        <ele>794</ele>
        <time>2012-11-18T09:42:33Z</time>
      </trkpt>
      <trkpt lat="43.8747" lon="7.28986">
        <ele>795</ele>
        <time>2012-11-18T09:42:37Z</time>
      </trkpt>
      <trkpt lat="43.87473" lon="7.28982">
        <ele>795</ele>
        <time>2012-11-18T09:42:41Z</time>
      </trkpt>
      <trkpt lat="43.87477" lon="7.28977">
        <ele>796</ele>
        <time>2012-11-18T09:42:46Z</time>
      </trkpt>
      <trkpt lat="43.8748" lon="7.28974">
        <ele>797</ele>
        <time>2012-11-18T09:42:49Z</time>
      </trkpt>
      <trkpt lat="43.87482" lon="7.2897">
        <ele>798</ele>
        <time>2012-11-18T09:42:52Z</time>
      </trkpt>
      <trkpt lat="43.87486" lon="7.28968">
        <ele>798</ele>
        <time>2012-11-18T09:42:55Z</time>
      </trkpt>
      <trkpt lat="43.87491" lon="7.28966">
        <ele>799</ele>
        <time>2012-11-18T09:42:59Z</time>
      </trkpt>
      <trkpt lat="43.87495" lon="7.28963">
        <ele>799</ele>
        <time>2012-11-18T09:43:03Z</time>
      </trkpt>
      <trkpt lat="43.87499" lon="7.28962">
        <ele>800</ele>
        <time>2012-11-18T09:43:06Z</time>
      </trkpt>
      <trkpt lat="43.87504" lon="7.28961">
        <ele>816</ele>
        <time>2012-11-18T09:43:10Z</time>
      </trkpt>
      <trkpt lat="43.87507" lon="7.2896">
        <ele>817</ele>
        <time>2012-11-18T09:43:13Z</time>
      </trkpt>
      <trkpt lat="43.8751" lon="7.28958">
        <ele>818</ele>
        <time>2012-11-18T09:43:17Z</time>
      </trkpt>
      <trkpt lat="43.87512" lon="7.28956">
        <ele>818</ele>
        <time>2012-11-18T09:43:20Z</time>
      </trkpt>
      <trkpt lat="43.87513" lon="7.28953">
        <ele>819</ele>
        <time>2012-11-18T09:43:24Z</time>
      </trkpt>
      <trkpt lat="43.87516" lon="7.28951">
        <ele>820</ele>
        <time>2012-11-18T09:43:29Z</time>
      </trkpt>
      <trkpt lat="43.87518" lon="7.28949">
        <ele>821</ele>
        <time>2012-11-18T09:43:33Z</time>
      </trkpt>
      <trkpt lat="43.87521" lon="7.28948">
        <ele>821</ele>
        <time>2012-11-18T09:43:37Z</time>
      </trkpt>
      <trkpt lat="43.87525" lon="7.28948">
        <ele>822</ele>
        <time>2012-11-18T09:43:42Z</time>
      </trkpt>
      <trkpt lat="43.87526" lon="7.28947">
        <ele>822</ele>
        <time>2012-11-18T09:43:45Z</time>
      </trkpt>
      <trkpt lat="43.87527" lon="7.28946">
        <ele>822</ele>
        <time>2012-11-18T09:43:48Z</time>
      </trkpt>
      <trkpt lat="43.87528" lon="7.28946">
        <ele>823</ele>
        <time>2012-11-18T09:43:51Z</time>
      </trkpt>
      <trkpt lat="43.8753" lon="7.28945">
        <ele>823</ele>
        <time>2012-11-18T09:43:54Z</time>
      </trkpt>
      <trkpt lat="43.87532" lon="7.28945">
        <ele>823</ele>
        <time>2012-11-18T09:43:57Z</time>
      </trkpt>
      <trkpt lat="43.87536" lon="7.28947">
        <ele>824</ele>
        <time>2012-11-18T09:44:02Z</time>
      </trkpt>
      <trkpt lat="43.87539" lon="7.28948">
        <ele>824</ele>
        <time>2012-11-18T09:44:05Z</time>
      </trkpt>
      <trkpt lat="43.87541" lon="7.28951">
        <ele>825</ele>
        <time>2012-11-18T09:44:08Z</time>
      </trkpt>
      <trkpt lat="43.87544" lon="7.28956">
        <ele>824</ele>
        <time>2012-11-18T09:44:12Z</time>
      </trkpt>
      <trkpt lat="43.87546" lon="7.2896">
        <ele>824</ele>
        <time>2012-11-18T09:44:16Z</time>
      </trkpt>
      <trkpt lat="43.87547" lon="7.28964">
        <ele>823</ele>
        <time>2012-11-18T09:44:19Z</time>
      </trkpt>
      <trkpt lat="43.87547" lon="7.28969">
        <ele>823</ele>
        <time>2012-11-18T09:44:23Z</time>
      </trkpt>
      <trkpt lat="43.87547" lon="7.28973">
        <ele>822</ele>
        <time>2012-11-18T09:44:27Z</time>
      </trkpt>
      <trkpt lat="43.87548" lon="7.28978">
        <ele>821</ele>
        <time>2012-11-18T09:44:32Z</time>
      </trkpt>
      <trkpt lat="43.87548" lon="7.28983">
        <ele>821</ele>
        <time>2012-11-18T09:44:36Z</time>
      </trkpt>
      <trkpt lat="43.87548" lon="7.28988">
        <ele>821</ele>
        <time>2012-11-18T09:44:40Z</time>
      </trkpt>
      <trkpt lat="43.87548" lon="7.28993">
        <ele>820</ele>
        <time>2012-11-18T09:44:44Z</time>
      </trkpt>
      <trkpt lat="43.87547" lon="7.28998">
        <ele>819</ele>
        <time>2012-11-18T09:44:48Z</time>
      </trkpt>
      <trkpt lat="43.87546" lon="7.29003">
        <ele>806</ele>
        <time>2012-11-18T09:44:52Z</time>
      </trkpt>
      <trkpt lat="43.87546" lon="7.29006">
        <ele>805</ele>
        <time>2012-11-18T09:44:56Z</time>
      </trkpt>
      <trkpt lat="43.87546" lon="7.29009">
        <ele>805</ele>
        <time>2012-11-18T09:44:59Z</time>
      </trkpt>
      <trkpt lat="43.87548" lon="7.29012">
        <ele>806</ele>
        <time>2012-11-18T09:45:02Z</time>
      </trkpt>
      <trkpt lat="43.87549" lon="7.29014">
        <ele>806</ele>
        <time>2012-11-18T09:45:05Z</time>
      </trkpt>
      <trkpt lat="43.8755" lon="7.29014">
        <ele>806</ele>
        <time>2012-11-18T09:45:08Z</time>
      </trkpt>
      <trkpt lat="43.87551" lon="7.29016">
        <ele>806</ele>
        <time>2012-11-18T09:45:12Z</time>
      </trkpt>
      <trkpt lat="43.87553" lon="7.29019">
        <ele>807</ele>
        <time>2012-11-18T09:45:17Z</time>
      </trkpt>
      <trkpt lat="43.87556" lon="7.29022">
        <ele>807</ele>
        <time>2012-11-18T09:45:21Z</time>
      </trkpt>
      <trkpt lat="43.87559" lon="7.29024">
        <ele>808</ele>
        <time>2012-11-18T09:45:25Z</time>
      </trkpt>
      <trkpt lat="43.87562" lon="7.29025">
        <ele>809</ele>
        <time>2012-11-18T09:45:29Z</time>
      </trkpt>
      <trkpt lat="43.87564" lon="7.29027">
        <ele>809</ele>
        <time>2012-11-18T09:45:32Z</time>
      </trkpt>
      <trkpt lat="43.87565" lon="7.29029">
        <ele>809</ele>
        <time>2012-11-18T09:45:35Z</time>
      </trkpt>
      <trkpt lat="43.87565" lon="7.29033">
        <ele>808</ele>
        <time>2012-11-18T09:45:39Z</time>
      </trkpt>
      <trkpt lat="43.87566" lon="7.29037">
        <ele>807</ele>
        <time>2012-11-18T09:45:43Z</time>
      </trkpt>
      <trkpt lat="43.87568" lon="7.29041">
        <ele>807</ele>
        <time>2012-11-18T09:45:47Z</time>
      </trkpt>
      <trkpt lat="43.8757" lon="7.29045">
        <ele>807</ele>
        <time>2012-11-18T09:45:51Z</time>
      </trkpt>
      <trkpt lat="43.87572" lon="7.29048">
        <ele>807</ele>
        <time>2012-11-18T09:45:55Z</time>
      </trkpt>
      <trkpt lat="43.87574" lon="7.29051">
        <ele>807</ele>
        <time>2012-11-18T09:45:59Z</time>
      </trkpt>
      <trkpt lat="43.87576" lon="7.29053">
        <ele>808</ele>
        <time>2012-11-18T09:46:02Z</time>
      </trkpt>
      <trkpt lat="43.87578" lon="7.29055">
        <ele>808</ele>
        <time>2012-11-18T09:46:05Z</time>
      </trkpt>
      <trkpt lat="43.8758" lon="7.29056">
        <ele>808</ele>
        <time>2012-11-18T09:46:09Z</time>
      </trkpt>
      <trkpt lat="43.87584" lon="7.29057">
        <ele>831</ele>
        <time>2012-11-18T09:46:14Z</time>
      </trkpt>
      <trkpt lat="43.87587" lon="7.29057">
        <ele>831</ele>
        <time>2012-11-18T09:46:18Z</time>
      </trkpt>
      <trkpt lat="43.8759" lon="7.29057">
        <ele>832</ele>
        <time>2012-11-18T09:46:22Z</time>
      </trkpt>
      <trkpt lat="43.87591" lon="7.29058">
        <ele>831</ele>
        <time>2012-11-18T09:46:25Z</time>
      </trkpt>
      <trkpt lat="43.87592" lon="7.2906">
        <ele>831</ele>
        <time>2012-11-18T09:46:28Z</time>
      </trkpt>
      <trkpt lat="43.87593" lon="7.29063">
        <ele>830</ele>
        <time>2012-11-18T09:46:31Z</time>
      </trkpt>
      <trkpt lat="43.87594" lon="7.29067">
        <ele>829</ele>
        <time>2012-11-18T09:46:35Z</time>
      </trkpt>
      <trkpt lat="43.87595" lon="7.29069">
        <ele>829</ele>
        <time>2012-11-18T09:46:38Z</time>
      </trkpt>
      <trkpt lat="43.87596" lon="7.29071">
        <ele>829</ele>
        <time>2012-11-18T09:46:42Z</time>
      </trkpt>
      <trkpt lat="43.87598" lon="7.29072">
        <ele>829</ele>
        <time>2012-11-18T09:46:46Z</time>
      </trkpt>
      <trkpt lat="43.87599" lon="7.29073">
        <ele>829</ele>
        <time>2012-11-18T09:46:49Z</time>
      </trkpt>
      <trkpt lat="43.876" lon="7.29074">
        <ele>829</ele>
        <time>2012-11-18T09:46:53Z</time>
      </trkpt>
      <trkpt lat="43.87603" lon="7.29074">
        <ele>830</ele>
        <time>2012-11-18T09:46:58Z</time>
      </trkpt>
      <trkpt lat="43.87608" lon="7.29075">
        <ele>832</ele>
        <time>2012-11-18T09:47:04Z</time>
      </trkpt>
      <trkpt lat="43.8761" lon="7.29074">
        <ele>833</ele>
        <time>2012-11-18T09:47:07Z</time>
      </trkpt>
      <trkpt lat="43.87611" lon="7.29072">
        <ele>834</ele>
        <time>2012-11-18T09:47:10Z</time>
      </trkpt>
      <trkpt lat="43.87612" lon="7.2907">
        <ele>835</ele>
        <time>2012-11-18T09:47:13Z</time>
      </trkpt>
      <trkpt lat="43.87612" lon="7.29067">
        <ele>835</ele>
        <time>2012-11-18T09:47:16Z</time>
      </trkpt>
      <trkpt lat="43.87611" lon="7.29064">
        <ele>835</ele>
        <time>2012-11-18T09:47:20Z</time>
      </trkpt>
      <trkpt lat="43.87609" lon="7.29059">
        <ele>836</ele>
        <time>2012-11-18T09:47:25Z</time>
      </trkpt>
      <trkpt lat="43.87609" lon="7.29056">
        <ele>836</ele>
        <time>2012-11-18T09:47:28Z</time>
      </trkpt>
      <trkpt lat="43.87609" lon="7.29054">
        <ele>836</ele>
        <time>2012-11-18T09:47:31Z</time>
      </trkpt>
      <trkpt lat="43.8761" lon="7.29055">
        <ele>837</ele>
        <time>2012-11-18T09:47:34Z</time>
      </trkpt>
      <trkpt lat="43.87613" lon="7.29056">
        <ele>837</ele>
        <time>2012-11-18T09:47:39Z</time>
      </trkpt>
      <trkpt lat="43.87617" lon="7.29058">
        <ele>838</ele>
        <time>2012-11-18T09:47:44Z</time>
      </trkpt>
      <trkpt lat="43.87621" lon="7.2906">
        <ele>839</ele>
        <time>2012-11-18T09:47:49Z</time>
      </trkpt>
      <trkpt lat="43.87624" lon="7.29061">
        <ele>840</ele>
        <time>2012-11-18T09:47:53Z</time>
      </trkpt>
      <trkpt lat="43.87626" lon="7.29062">
        <ele>840</ele>
        <time>2012-11-18T09:47:57Z</time>
      </trkpt>
      <trkpt lat="43.87628" lon="7.29064">
        <ele>840</ele>
        <time>2012-11-18T09:48:01Z</time>
      </trkpt>
      <trkpt lat="43.8763" lon="7.29068">
        <ele>841</ele>
        <time>2012-11-18T09:48:06Z</time>
      </trkpt>
      <trkpt lat="43.87632" lon="7.29071">
        <ele>841</ele>
        <time>2012-11-18T09:48:10Z</time>
      </trkpt>
      <trkpt lat="43.87634" lon="7.29075">
        <ele>841</ele>
        <time>2012-11-18T09:48:14Z</time>
      </trkpt>
      <trkpt lat="43.87636" lon="7.2908">
        <ele>842</ele>
        <time>2012-11-18T09:48:18Z</time>
      </trkpt>
      <trkpt lat="43.87636" lon="7.29083">
        <ele>842</ele>
        <time>2012-11-18T09:48:21Z</time>
      </trkpt>
      <trkpt lat="43.87636" lon="7.29086">
        <ele>828</ele>
        <time>2012-11-18T09:48:24Z</time>
      </trkpt>
      <trkpt lat="43.87634" lon="7.29091">
        <ele>827</ele>
        <time>2012-11-18T09:48:28Z</time>
      </trkpt>
      <trkpt lat="43.87633" lon="7.29095">
        <ele>826</ele>
        <time>2012-11-18T09:48:31Z</time>
      </trkpt>
      <trkpt lat="43.87633" lon="7.29098">
        <ele>826</ele>
        <time>2012-11-18T09:48:34Z</time>
      </trkpt>
      <trkpt lat="43.87634" lon="7.29102">
        <ele>825</ele>
        <time>2012-11-18T09:48:37Z</time>
      </trkpt>
      <trkpt lat="43.87636" lon="7.29104">
        <ele>826</ele>
        <time>2012-11-18T09:48:40Z</time>
      </trkpt>
      <trkpt lat="43.87639" lon="7.29106">
        <ele>826</ele>
        <time>2012-11-18T09:48:44Z</time>
      </trkpt>
      <trkpt lat="43.87642" lon="7.29107">
        <ele>827</ele>
        <time>2012-11-18T09:48:49Z</time>
      </trkpt>
      <trkpt lat="43.87645" lon="7.29109">
        <ele>827</ele>
        <time>2012-11-18T09:48:53Z</time>
      </trkpt>
      <trkpt lat="43.87647" lon="7.29109">
        <ele>827</ele>
        <time>2012-11-18T09:48:57Z</time>
      </trkpt>
      <trkpt lat="43.87648" lon="7.29109">
        <ele>828</ele>
        <time>2012-11-18T09:49:03Z</time>
      </trkpt>
      <trkpt lat="43.87649" lon="7.29109">
        <ele>828</ele>
        <time>2012-11-18T09:49:05Z</time>
      </trkpt>
      <trkpt lat="43.87649" lon="7.29109">
        <ele>828</ele>
        <time>2012-11-18T09:49:09Z</time>
      </trkpt>
      <trkpt lat="43.87648" lon="7.29108">
        <ele>828</ele>
        <time>2012-11-18T09:49:15Z</time>
      </trkpt>
      <trkpt lat="43.87648" lon="7.29107">
        <ele>828</ele>
        <time>2012-11-18T09:49:19Z</time>
      </trkpt>
      <trkpt lat="43.87646" lon="7.29107">
        <ele>828</ele>
        <time>2012-11-18T09:49:24Z</time>
      </trkpt>
      <trkpt lat="43.87646" lon="7.29106">
        <ele>828</ele>
        <time>2012-11-18T09:49:28Z</time>
      </trkpt>
      <trkpt lat="43.87646" lon="7.29106">
        <ele>828</ele>
        <time>2012-11-18T09:49:31Z</time>
      </trkpt>
      <trkpt lat="43.87645" lon="7.29106">
        <ele>828</ele>
        <time>2012-11-18T09:49:35Z</time>
      </trkpt>
      <trkpt lat="43.87645" lon="7.29105">
        <ele>828</ele>
        <time>2012-11-18T09:49:38Z</time>
      </trkpt>
      <trkpt lat="43.87646" lon="7.29105">
        <ele>828</ele>
        <time>2012-11-18T09:49:42Z</time>
      </trkpt>
      <trkpt lat="43.87647" lon="7.29105">
        <ele>828</ele>
        <time>2012-11-18T09:49:47Z</time>
      </trkpt>
      <trkpt lat="43.87648" lon="7.29106">
        <ele>829</ele>
        <time>2012-11-18T09:49:53Z</time>
      </trkpt>
      <trkpt lat="43.87648" lon="7.29106">
        <ele>829</ele>
        <time>2012-11-18T09:49:57Z</time>
      </trkpt>
      <trkpt lat="43.87648" lon="7.29107">
        <ele>828</ele>
        <time>2012-11-18T09:50:01Z</time>
      </trkpt>
      <trkpt lat="43.87648" lon="7.29107">
        <ele>828</ele>
        <time>2012-11-18T09:50:04Z</time>
      </trkpt>
      <trkpt lat="43.87648" lon="7.29108">
        <ele>828</ele>
        <time>2012-11-18T09:50:09Z</time>
      </trkpt>
      <trkpt lat="43.87648" lon="7.29109">
        <ele>828</ele>
        <time>2012-11-18T09:50:12Z</time>
      </trkpt>
      <trkpt lat="43.87648" lon="7.29109">
        <ele>828</ele>
        <time>2012-11-18T09:50:16Z</time>
      </trkpt>
      <trkpt lat="43.87648" lon="7.29109">
        <ele>828</ele>
        <time>2012-11-18T09:50:19Z</time>
      </trkpt>
      <trkpt lat="43.87648" lon="7.29109">
        <ele>828</ele>
        <time>2012-11-18T09:50:23Z</time>
      </trkpt>
      <trkpt lat="43.87647" lon="7.29108">
        <ele>828</ele>
        <time>2012-11-18T09:50:27Z</time>
      </trkpt>
      <trkpt lat="43.87647" lon="7.29108">
        <ele>828</ele>
        <time>2012-11-18T09:50:31Z</time>
      </trkpt>
      <trkpt lat="43.87646" lon="7.29107">
        <ele>828</ele>
        <time>2012-11-18T09:50:35Z</time>
      </trkpt>
      <trkpt lat="43.87646" lon="7.29106">
        <ele>828</ele>
        <time>2012-11-18T09:50:39Z</time>
      </trkpt>
      <trkpt lat="43.87646" lon="7.29105">
        <ele>828</ele>
        <time>2012-11-18T09:50:44Z</time>
      </trkpt>
      <trkpt lat="43.87646" lon="7.29105">
        <ele>828</ele>
        <time>2012-11-18T09:50:48Z</time>
      </trkpt>
      <trkpt lat="43.87645" lon="7.29105">
        <ele>828</ele>
        <time>2012-11-18T09:50:51Z</time>
      </trkpt>
      <trkpt lat="43.87645" lon="7.29104">
        <ele>828</ele>
        <time>2012-11-18T09:50:54Z</time>
      </trkpt>
      <trkpt lat="43.87645" lon="7.29104">
        <ele>828</ele>
        <time>2012-11-18T09:50:56Z</time>
      </trkpt>
      <trkpt lat="43.87645" lon="7.29105">
        <ele>828</ele>
        <time>2012-11-18T09:51:00Z</time>
      </trkpt>
      <trkpt lat="43.87645" lon="7.29106">
        <ele>828</ele>
        <time>2012-11-18T09:51:04Z</time>
      </trkpt>
      <trkpt lat="43.87645" lon="7.29107">
        <ele>827</ele>
        <time>2012-11-18T09:51:08Z</time>
      </trkpt>
      <trkpt lat="43.87645" lon="7.29106">
        <ele>828</ele>
        <time>2012-11-18T09:51:13Z</time>
      </trkpt>
      <trkpt lat="43.87645" lon="7.29106">
        <ele>828</ele>
        <time>2012-11-18T09:51:16Z</time>
      </trkpt>
      <trkpt lat="43.87645" lon="7.29105">
        <ele>828</ele>
        <time>2012-11-18T09:51:22Z</time>
      </trkpt>
      <trkpt lat="43.87645" lon="7.29103">
        <ele>828</ele>
        <time>2012-11-18T09:51:27Z</time>
      </trkpt>
      <trkpt lat="43.87645" lon="7.29103">
        <ele>829</ele>
        <time>2012-11-18T09:51:30Z</time>
      </trkpt>
      <trkpt lat="43.87645" lon="7.29103">
        <ele>829</ele>
        <time>2012-11-18T09:51:34Z</time>
      </trkpt>
      <trkpt lat="43.87645" lon="7.29103">
        <ele>829</ele>
        <time>2012-11-18T09:51:37Z</time>
      </trkpt>
      <trkpt lat="43.87645" lon="7.29103">
        <ele>829</ele>
        <time>2012-11-18T09:51:43Z</time>
      </trkpt>
      <trkpt lat="43.87646" lon="7.29103">
        <ele>829</ele>
        <time>2012-11-18T09:51:46Z</time>
      </trkpt>
      <trkpt lat="43.87646" lon="7.29103">
        <ele>829</ele>
        <time>2012-11-18T09:51:50Z</time>
      </trkpt>
      <trkpt lat="43.87645" lon="7.291">
        <ele>829</ele>
        <time>2012-11-18T09:51:55Z</time>
      </trkpt>
      <trkpt lat="43.87645" lon="7.29098">
        <ele>830</ele>
        <time>2012-11-18T09:51:59Z</time>
      </trkpt>
      <trkpt lat="43.87645" lon="7.29097">
        <ele>830</ele>
        <time>2012-11-18T09:52:03Z</time>
      </trkpt>
      <trkpt lat="43.87645" lon="7.29095">
        <ele>831</ele>
        <time>2012-11-18T09:52:08Z</time>
      </trkpt>
      <trkpt lat="43.87645" lon="7.29092">
        <ele>831</ele>
        <time>2012-11-18T09:52:13Z</time>
      </trkpt>
      <trkpt lat="43.87644" lon="7.29089">
        <ele>831</ele>
        <time>2012-11-18T09:52:18Z</time>
      </trkpt>
      <trkpt lat="43.87644" lon="7.29088">
        <ele>831</ele>
        <time>2012-11-18T09:52:21Z</time>
      </trkpt>
      <trkpt lat="43.87644" lon="7.29088">
        <ele>831</ele>
        <time>2012-11-18T09:52:23Z</time>
      </trkpt>
      <trkpt lat="43.87644" lon="7.29088">
        <ele>831</ele>
        <time>2012-11-18T09:52:26Z</time>
      </trkpt>
      <trkpt lat="43.87644" lon="7.29091">
        <ele>831</ele>
        <time>2012-11-18T09:52:30Z</time>
      </trkpt>
      <trkpt lat="43.87644" lon="7.29093">
        <ele>831</ele>
        <time>2012-11-18T09:52:34Z</time>
      </trkpt>
      <trkpt lat="43.87645" lon="7.29095">
        <ele>830</ele>
        <time>2012-11-18T09:52:38Z</time>
      </trkpt>
      <trkpt lat="43.87645" lon="7.29097">
        <ele>830</ele>
        <time>2012-11-18T09:52:43Z</time>
      </trkpt>
      <trkpt lat="43.87645" lon="7.29097">
        <ele>830</ele>
        <time>2012-11-18T09:52:45Z</time>
      </trkpt>
      <trkpt lat="43.87645" lon="7.29096">
        <ele>830</ele>
        <time>2012-11-18T09:52:50Z</time>
      </trkpt>
      <trkpt lat="43.87646" lon="7.29094">
        <ele>831</ele>
        <time>2012-11-18T09:52:59Z</time>
      </trkpt>
      <trkpt lat="43.87646" lon="7.29094">
        <ele>831</ele>
        <time>2012-11-18T09:53:03Z</time>
      </trkpt>
      <trkpt lat="43.87646" lon="7.29092">
        <ele>831</ele>
        <time>2012-11-18T09:53:12Z</time>
      </trkpt>
      <trkpt lat="43.87646" lon="7.29091">
        <ele>832</ele>
        <time>2012-11-18T09:53:16Z</time>
      </trkpt>
      <trkpt lat="43.87647" lon="7.2909">
        <ele>832</ele>
        <time>2012-11-18T09:53:19Z</time>
      </trkpt>
      <trkpt lat="43.87648" lon="7.2909">
        <ele>833</ele>
        <time>2012-11-18T09:53:23Z</time>
      </trkpt>
      <trkpt lat="43.87649" lon="7.2909">
        <ele>833</ele>
        <time>2012-11-18T09:53:27Z</time>
      </trkpt>
      <trkpt lat="43.87649" lon="7.2909">
        <ele>834</ele>
        <time>2012-11-18T09:53:30Z</time>
      </trkpt>
      <trkpt lat="43.8765" lon="7.29089">
        <ele>834</ele>
        <time>2012-11-18T09:53:35Z</time>
      </trkpt>
      <trkpt lat="43.8765" lon="7.29088">
        <ele>834</ele>
        <time>2012-11-18T09:53:38Z</time>
      </trkpt>
      <trkpt lat="43.87651" lon="7.29089">
        <ele>835</ele>
        <time>2012-11-18T09:53:42Z</time>
      </trkpt>
      <trkpt lat="43.87651" lon="7.29088">
        <ele>835</ele>
        <time>2012-11-18T09:53:45Z</time>
      </trkpt>
      <trkpt lat="43.8765" lon="7.29089">
        <ele>834</ele>
        <time>2012-11-18T09:53:48Z</time>
      </trkpt>
      <trkpt lat="43.8765" lon="7.2909">
        <ele>834</ele>
        <time>2012-11-18T09:53:52Z</time>
      </trkpt>
      <trkpt lat="43.8765" lon="7.2909">
        <ele>834</ele>
        <time>2012-11-18T09:53:56Z</time>
      </trkpt>
      <trkpt lat="43.87649" lon="7.2909">
        <ele>833</ele>
        <time>2012-11-18T09:53:59Z</time>
      </trkpt>
      <trkpt lat="43.87648" lon="7.2909">
        <ele>833</ele>
        <time>2012-11-18T09:54:04Z</time>
      </trkpt>
      <trkpt lat="43.87647" lon="7.29089">
        <ele>833</ele>
        <time>2012-11-18T09:54:08Z</time>
      </trkpt>
      <trkpt lat="43.87647" lon="7.29089">
        <ele>832</ele>
        <time>2012-11-18T09:54:12Z</time>
      </trkpt>
      <trkpt lat="43.87646" lon="7.29088">
        <ele>832</ele>
        <time>2012-11-18T09:54:16Z</time>
      </trkpt>
      <trkpt lat="43.87645" lon="7.29088">
        <ele>832</ele>
        <time>2012-11-18T09:54:20Z</time>
      </trkpt>
      <trkpt lat="43.87645" lon="7.29088">
        <ele>832</ele>
        <time>2012-11-18T09:54:23Z</time>
      </trkpt>
      <trkpt lat="43.87645" lon="7.29087">
        <ele>832</ele>
        <time>2012-11-18T09:54:28Z</time>
      </trkpt>
      <trkpt lat="43.87644" lon="7.29087">
        <ele>832</ele>
        <time>2012-11-18T09:54:31Z</time>
      </trkpt>
      <trkpt lat="43.87644" lon="7.29087">
        <ele>831</ele>
        <time>2012-11-18T09:54:34Z</time>
      </trkpt>
      <trkpt lat="43.87644" lon="7.29088">
        <ele>832</ele>
        <time>2012-11-18T09:54:38Z</time>
      </trkpt>
      <trkpt lat="43.87645" lon="7.29087">
        <ele>832</ele>
        <time>2012-11-18T09:54:43Z</time>
      </trkpt>
      <trkpt lat="43.87647" lon="7.29087">
        <ele>833</ele>
        <time>2012-11-18T09:54:46Z</time>
      </trkpt>
      <trkpt lat="43.87651" lon="7.29088">
        <ele>835</ele>
        <time>2012-11-18T09:54:50Z</time>
      </trkpt>
      <trkpt lat="43.87656" lon="7.29089">
        <ele>838</ele>
        <time>2012-11-18T09:54:54Z</time>
      </trkpt>
      <trkpt lat="43.87659" lon="7.29089">
        <ele>839</ele>
        <time>2012-11-18T09:54:57Z</time>
      </trkpt>
      <trkpt lat="43.87661" lon="7.29089">
        <ele>841</ele>
        <time>2012-11-18T09:55:00Z</time>
      </trkpt>
      <trkpt lat="43.87662" lon="7.29087">
        <ele>843</ele>
        <time>2012-11-18T09:55:03Z</time>
      </trkpt>
      <trkpt lat="43.87662" lon="7.29085">
        <ele>844</ele>
        <time>2012-11-18T09:55:06Z</time>
      </trkpt>
      <trkpt lat="43.87662" lon="7.29082">
        <ele>848</ele>
        <time>2012-11-18T09:55:09Z</time>
      </trkpt>
      <trkpt lat="43.87663" lon="7.2908">
        <ele>848</ele>
        <time>2012-11-18T09:55:12Z</time>
      </trkpt>
      <trkpt lat="43.87665" lon="7.29079">
        <ele>848</ele>
        <time>2012-11-18T09:55:15Z</time>
      </trkpt>
      <trkpt lat="43.87666" lon="7.29076">
        <ele>848</ele>
        <time>2012-11-18T09:55:20Z</time>
      </trkpt>
      <trkpt lat="43.87668" lon="7.29074">
        <ele>858</ele>
        <time>2012-11-18T09:55:23Z</time>
      </trkpt>
      <trkpt lat="43.8767" lon="7.29072">
        <ele>861</ele>
        <time>2012-11-18T09:55:28Z</time>
      </trkpt>
      <trkpt lat="43.87672" lon="7.2907">
        <ele>862</ele>
        <time>2012-11-18T09:55:31Z</time>
      </trkpt>
      <trkpt lat="43.87674" lon="7.29067">
        <ele>864</ele>
        <time>2012-11-18T09:55:35Z</time>
      </trkpt>
      <trkpt lat="43.87675" lon="7.29066">
        <ele>865</ele>
        <time>2012-11-18T09:55:38Z</time>
      </trkpt>
      <trkpt lat="43.87677" lon="7.29066">
        <ele>866</ele>
        <time>2012-11-18T09:55:41Z</time>
      </trkpt>
      <trkpt lat="43.87678" lon="7.29065">
        <ele>867</ele>
        <time>2012-11-18T09:55:44Z</time>
      </trkpt>
      <trkpt lat="43.87679" lon="7.29063">
        <ele>867</ele>
        <time>2012-11-18T09:55:47Z</time>
      </trkpt>
      <trkpt lat="43.8768" lon="7.29062">
        <ele>868</ele>
        <time>2012-11-18T09:55:50Z</time>
      </trkpt>
      <trkpt lat="43.87681" lon="7.2906">
        <ele>869</ele>
        <time>2012-11-18T09:55:55Z</time>
      </trkpt>
      <trkpt lat="43.87682" lon="7.29058">
        <ele>870</ele>
        <time>2012-11-18T09:55:59Z</time>
      </trkpt>
      <trkpt lat="43.87682" lon="7.29056">
        <ele>871</ele>
        <time>2012-11-18T09:56:02Z</time>
      </trkpt>
      <trkpt lat="43.87682" lon="7.29053">
        <ele>872</ele>
        <time>2012-11-18T09:56:05Z</time>
      </trkpt>
      <trkpt lat="43.87681" lon="7.29049">
        <ele>873</ele>
        <time>2012-11-18T09:56:08Z</time>
      </trkpt>
      <trkpt lat="43.87679" lon="7.29046">
        <ele>873</ele>
        <time>2012-11-18T09:56:11Z</time>
      </trkpt>
      <trkpt lat="43.87676" lon="7.29043">
        <ele>874</ele>
        <time>2012-11-18T09:56:15Z</time>
      </trkpt>
      <trkpt lat="43.87673" lon="7.2904">
        <ele>874</ele>
        <time>2012-11-18T09:56:19Z</time>
      </trkpt>
      <trkpt lat="43.87671" lon="7.29036">
        <ele>875</ele>
        <time>2012-11-18T09:56:23Z</time>
      </trkpt>
      <trkpt lat="43.8767" lon="7.29033">
        <ele>875</ele>
        <time>2012-11-18T09:56:26Z</time>
      </trkpt>
      <trkpt lat="43.87669" lon="7.29029">
        <ele>876</ele>
        <time>2012-11-18T09:56:30Z</time>
      </trkpt>
      <trkpt lat="43.87668" lon="7.29026">
        <ele>876</ele>
        <time>2012-11-18T09:56:34Z</time>
      </trkpt>
      <trkpt lat="43.87667" lon="7.29021">
        <ele>857</ele>
        <time>2012-11-18T09:56:40Z</time>
      </trkpt>
      <trkpt lat="43.87666" lon="7.29019">
        <ele>859</ele>
        <time>2012-11-18T09:56:43Z</time>
      </trkpt>
      <trkpt lat="43.87666" lon="7.29018">
        <ele>859</ele>
        <time>2012-11-18T09:56:45Z</time>
      </trkpt>
      <trkpt lat="43.87668" lon="7.29017">
        <ele>877</ele>
        <time>2012-11-18T09:56:48Z</time>
      </trkpt>
      <trkpt lat="43.8767" lon="7.29017">
        <ele>877</ele>
        <time>2012-11-18T09:56:51Z</time>
      </trkpt>
      <trkpt lat="43.87673" lon="7.29018">
        <ele>877</ele>
        <time>2012-11-18T09:56:54Z</time>
      </trkpt>
      <trkpt lat="43.87676" lon="7.2902">
        <ele>877</ele>
        <time>2012-11-18T09:56:58Z</time>
      </trkpt>
      <trkpt lat="43.8768" lon="7.29023">
        <ele>877</ele>
        <time>2012-11-18T09:57:03Z</time>
      </trkpt>
      <trkpt lat="43.87682" lon="7.29025">
        <ele>877</ele>
        <time>2012-11-18T09:57:07Z</time>
      </trkpt>
      <trkpt lat="43.87684" lon="7.29027">
        <ele>878</ele>
        <time>2012-11-18T09:57:11Z</time>
      </trkpt>
      <trkpt lat="43.87686" lon="7.29027">
        <ele>878</ele>
        <time>2012-11-18T09:57:14Z</time>
      </trkpt>
      <trkpt lat="43.8769" lon="7.29028">
        <ele>878</ele>
        <time>2012-11-18T09:57:19Z</time>
      </trkpt>
      <trkpt lat="43.87693" lon="7.29029">
        <ele>879</ele>
        <time>2012-11-18T09:57:22Z</time>
      </trkpt>
      <trkpt lat="43.87695" lon="7.2903">
        <ele>879</ele>
        <time>2012-11-18T09:57:25Z</time>
      </trkpt>
      <trkpt lat="43.87697" lon="7.29034">
        <ele>879</ele>
        <time>2012-11-18T09:57:29Z</time>
      </trkpt>
      <trkpt lat="43.87699" lon="7.29038">
        <ele>878</ele>
        <time>2012-11-18T09:57:33Z</time>
      </trkpt>
      <trkpt lat="43.87701" lon="7.29042">
        <ele>878</ele>
        <time>2012-11-18T09:57:36Z</time>
      </trkpt>
      <trkpt lat="43.87703" lon="7.29044">
        <ele>878</ele>
        <time>2012-11-18T09:57:39Z</time>
      </trkpt>
      <trkpt lat="43.87706" lon="7.29045">
        <ele>878</ele>
        <time>2012-11-18T09:57:43Z</time>
      </trkpt>
      <trkpt lat="43.87709" lon="7.29045">
        <ele>879</ele>
        <time>2012-11-18T09:57:47Z</time>
      </trkpt>
      <trkpt lat="43.87711" lon="7.29044">
        <ele>880</ele>
        <time>2012-11-18T09:57:50Z</time>
      </trkpt>
      <trkpt lat="43.87714" lon="7.29042">
        <ele>880</ele>
        <time>2012-11-18T09:57:55Z</time>
      </trkpt>
      <trkpt lat="43.87716" lon="7.2904">
        <ele>881</ele>
        <time>2012-11-18T09:57:59Z</time>
      </trkpt>
      <trkpt lat="43.87719" lon="7.29038">
        <ele>882</ele>
        <time>2012-11-18T09:58:05Z</time>
      </trkpt>
      <trkpt lat="43.87721" lon="7.29038">
        <ele>883</ele>
        <time>2012-11-18T09:58:08Z</time>
      </trkpt>
      <trkpt lat="43.87723" lon="7.29038">
        <ele>883</ele>
        <time>2012-11-18T09:58:11Z</time>
      </trkpt>
      <trkpt lat="43.87725" lon="7.29039">
        <ele>883</ele>
        <time>2012-11-18T09:58:14Z</time>
      </trkpt>
      <trkpt lat="43.87726" lon="7.29041">
        <ele>883</ele>
        <time>2012-11-18T09:58:17Z</time>
      </trkpt>
      <trkpt lat="43.87729" lon="7.29045">
        <ele>883</ele>
        <time>2012-11-18T09:58:22Z</time>
      </trkpt>
      <trkpt lat="43.8773" lon="7.29047">
        <ele>882</ele>
        <time>2012-11-18T09:58:25Z</time>
      </trkpt>
      <trkpt lat="43.87731" lon="7.29049">
        <ele>882</ele>
        <time>2012-11-18T09:58:28Z</time>
      </trkpt>
      <trkpt lat="43.87734" lon="7.2905">
        <ele>882</ele>
        <time>2012-11-18T09:58:32Z</time>
      </trkpt>
      <trkpt lat="43.87736" lon="7.2905">
        <ele>882</ele>
        <time>2012-11-18T09:58:36Z</time>
      </trkpt>
      <trkpt lat="43.87738" lon="7.2905">
        <ele>883</ele>
        <time>2012-11-18T09:58:40Z</time>
      </trkpt>
      <trkpt lat="43.87741" lon="7.2905">
        <ele>883</ele>
        <time>2012-11-18T09:58:44Z</time>
      </trkpt>
      <trkpt lat="43.87744" lon="7.29048">
        <ele>884</ele>
        <time>2012-11-18T09:58:49Z</time>
      </trkpt>
      <trkpt lat="43.87746" lon="7.29047">
        <ele>884</ele>
        <time>2012-11-18T09:58:53Z</time>
      </trkpt>
      <trkpt lat="43.87748" lon="7.29047">
        <ele>884</ele>
        <time>2012-11-18T09:58:56Z</time>
      </trkpt>
      <trkpt lat="43.8775" lon="7.29049">
        <ele>903</ele>
        <time>2012-11-18T09:58:59Z</time>
      </trkpt>
      <trkpt lat="43.87753" lon="7.29052">
        <ele>902</ele>
        <time>2012-11-18T09:59:03Z</time>
      </trkpt>
      <trkpt lat="43.87755" lon="7.29054">
        <ele>901</ele>
        <time>2012-11-18T09:59:06Z</time>
      </trkpt>
      <trkpt lat="43.87756" lon="7.29059">
        <ele>899</ele>
        <time>2012-11-18T09:59:10Z</time>
      </trkpt>
      <trkpt lat="43.87759" lon="7.29067">
        <ele>896</ele>
        <time>2012-11-18T09:59:17Z</time>
      </trkpt>
      <trkpt lat="43.87761" lon="7.29072">
        <ele>894</ele>
        <time>2012-11-18T09:59:21Z</time>
      </trkpt>
      <trkpt lat="43.87763" lon="7.29076">
        <ele>893</ele>
        <time>2012-11-18T09:59:25Z</time>
      </trkpt>
      <trkpt lat="43.87765" lon="7.2908">
        <ele>893</ele>
        <time>2012-11-18T09:59:29Z</time>
      </trkpt>
      <trkpt lat="43.87767" lon="7.29083">
        <ele>881</ele>
        <time>2012-11-18T09:59:33Z</time>
      </trkpt>
      <trkpt lat="43.87768" lon="7.29087">
        <ele>882</ele>
        <time>2012-11-18T09:59:37Z</time>
      </trkpt>
      <trkpt lat="43.8777" lon="7.29089">
        <ele>882</ele>
        <time>2012-11-18T09:59:40Z</time>
      </trkpt>
      <trkpt lat="43.87772" lon="7.29091">
        <ele>882</ele>
        <time>2012-11-18T09:59:43Z</time>
      </trkpt>
      <trkpt lat="43.87774" lon="7.29091">
        <ele>883</ele>
        <time>2012-11-18T09:59:46Z</time>
      </trkpt>
      <trkpt lat="43.87777" lon="7.29091">
        <ele>883</ele>
        <time>2012-11-18T09:59:50Z</time>
      </trkpt>
      <trkpt lat="43.87781" lon="7.29092">
        <ele>884</ele>
        <time>2012-11-18T09:59:54Z</time>
      </trkpt>
      <trkpt lat="43.87783" lon="7.29094">
        <ele>884</ele>
        <time>2012-11-18T09:59:58Z</time>
      </trkpt>
      <trkpt lat="43.87786" lon="7.29097">
        <ele>885</ele>
        <time>2012-11-18T10:00:02Z</time>
      </trkpt>
      <trkpt lat="43.8779" lon="7.29099">
        <ele>885</ele>
        <time>2012-11-18T10:00:06Z</time>
      </trkpt>
      <trkpt lat="43.87791" lon="7.29101">
        <ele>885</ele>
        <time>2012-11-18T10:00:09Z</time>
      </trkpt>
      <trkpt lat="43.87791" lon="7.29105">
        <ele>885</ele>
        <time>2012-11-18T10:00:12Z</time>
      </trkpt>
      <trkpt lat="43.8779" lon="7.29111">
        <ele>884</ele>
        <time>2012-11-18T10:00:16Z</time>
      </trkpt>
      <trkpt lat="43.8779" lon="7.29118">
        <ele>883</ele>
        <time>2012-11-18T10:00:21Z</time>
      </trkpt>
      <trkpt lat="43.8779" lon="7.29121">
        <ele>882</ele>
        <time>2012-11-18T10:00:24Z</time>
      </trkpt>
      <trkpt lat="43.8779" lon="7.29125">
        <ele>882</ele>
        <time>2012-11-18T10:00:27Z</time>
      </trkpt>
      <trkpt lat="43.87791" lon="7.29127">
        <ele>882</ele>
        <time>2012-11-18T10:00:30Z</time>
      </trkpt>
      <trkpt lat="43.87793" lon="7.29128">
        <ele>882</ele>
        <time>2012-11-18T10:00:33Z</time>
      </trkpt>
      <trkpt lat="43.87793" lon="7.29128">
        <ele>882</ele>
        <time>2012-11-18T10:00:37Z</time>
      </trkpt>
      <trkpt lat="43.87794" lon="7.29129">
        <ele>882</ele>
        <time>2012-11-18T10:00:41Z</time>
      </trkpt>
      <trkpt lat="43.87794" lon="7.29129">
        <ele>882</ele>
        <time>2012-11-18T10:00:46Z</time>
      </trkpt>
      <trkpt lat="43.87794" lon="7.2913">
        <ele>882</ele>
        <time>2012-11-18T10:00:50Z</time>
      </trkpt>
      <trkpt lat="43.87794" lon="7.29131">
        <ele>882</ele>
        <time>2012-11-18T10:00:54Z</time>
      </trkpt>
      <trkpt lat="43.87795" lon="7.29132">
        <ele>882</ele>
        <time>2012-11-18T10:00:57Z</time>
      </trkpt>
      <trkpt lat="43.87795" lon="7.29131">
        <ele>882</ele>
        <time>2012-11-18T10:01:00Z</time>
      </trkpt>
      <trkpt lat="43.87795" lon="7.29131">
        <ele>882</ele>
        <time>2012-11-18T10:01:04Z</time>
      </trkpt>
      <trkpt lat="43.87795" lon="7.2913">
        <ele>882</ele>
        <time>2012-11-18T10:01:09Z</time>
      </trkpt>
      <trkpt lat="43.87795" lon="7.29129">
        <ele>882</ele>
        <time>2012-11-18T10:01:13Z</time>
      </trkpt>
      <trkpt lat="43.87795" lon="7.29129">
        <ele>882</ele>
        <time>2012-11-18T10:01:17Z</time>
      </trkpt>
      <trkpt lat="43.87794" lon="7.29129">
        <ele>882</ele>
        <time>2012-11-18T10:01:22Z</time>
      </trkpt>
      <trkpt lat="43.87794" lon="7.29129">
        <ele>882</ele>
        <time>2012-11-18T10:01:26Z</time>
      </trkpt>
      <trkpt lat="43.87794" lon="7.29129">
        <ele>882</ele>
        <time>2012-11-18T10:01:29Z</time>
      </trkpt>
      <trkpt lat="43.87794" lon="7.29129">
        <ele>882</ele>
        <time>2012-11-18T10:01:32Z</time>
      </trkpt>
      <trkpt lat="43.87794" lon="7.29129">
        <ele>882</ele>
        <time>2012-11-18T10:01:36Z</time>
      </trkpt>
      <trkpt lat="43.87794" lon="7.2913">
        <ele>882</ele>
        <time>2012-11-18T10:01:41Z</time>
      </trkpt>
      <trkpt lat="43.87794" lon="7.2913">
        <ele>882</ele>
        <time>2012-11-18T10:01:45Z</time>
      </trkpt>
      <trkpt lat="43.87794" lon="7.2913">
        <ele>882</ele>
        <time>2012-11-18T10:01:49Z</time>
      </trkpt>
      <trkpt lat="43.87794" lon="7.2913">
        <ele>882</ele>
        <time>2012-11-18T10:01:52Z</time>
      </trkpt>
      <trkpt lat="43.87794" lon="7.29131">
        <ele>882</ele>
        <time>2012-11-18T10:01:56Z</time>
      </trkpt>
      <trkpt lat="43.87794" lon="7.29131">
        <ele>882</ele>
        <time>2012-11-18T10:01:59Z</time>
      </trkpt>
      <trkpt lat="43.87794" lon="7.29131">
        <ele>882</ele>
        <time>2012-11-18T10:02:02Z</time>
      </trkpt>
      <trkpt lat="43.87794" lon="7.29131">
        <ele>882</ele>
        <time>2012-11-18T10:02:07Z</time>
      </trkpt>
      <trkpt lat="43.87793" lon="7.29131">
        <ele>882</ele>
        <time>2012-11-18T10:02:12Z</time>
      </trkpt>
      <trkpt lat="43.87792" lon="7.2913">
        <ele>882</ele>
        <time>2012-11-18T10:02:17Z</time>
      </trkpt>
      <trkpt lat="43.87792" lon="7.2913">
        <ele>882</ele>
        <time>2012-11-18T10:02:21Z</time>
      </trkpt>
      <trkpt lat="43.87792" lon="7.2913">
        <ele>882</ele>
        <time>2012-11-18T10:02:25Z</time>
      </trkpt>
      <trkpt lat="43.87792" lon="7.2913">
        <ele>882</ele>
        <time>2012-11-18T10:02:28Z</time>
      </trkpt>
      <trkpt lat="43.87792" lon="7.2913">
        <ele>882</ele>
        <time>2012-11-18T10:02:32Z</time>
      </trkpt>
      <trkpt lat="43.87791" lon="7.2913">
        <ele>881</ele>
        <time>2012-11-18T10:02:35Z</time>
      </trkpt>
      <trkpt lat="43.87791" lon="7.2913">
        <ele>881</ele>
        <time>2012-11-18T10:02:38Z</time>
      </trkpt>
      <trkpt lat="43.87791" lon="7.2913">
        <ele>882</ele>
        <time>2012-11-18T10:02:41Z</time>
      </trkpt>
      <trkpt lat="43.87792" lon="7.2913">
        <ele>882</ele>
        <time>2012-11-18T10:02:45Z</time>
      </trkpt>
      <trkpt lat="43.87792" lon="7.2913">
        <ele>882</ele>
        <time>2012-11-18T10:02:48Z</time>
      </trkpt>
      <trkpt lat="43.87792" lon="7.2913">
        <ele>882</ele>
        <time>2012-11-18T10:02:53Z</time>
      </trkpt>
      <trkpt lat="43.87792" lon="7.29131">
        <ele>882</ele>
        <time>2012-11-18T10:02:57Z</time>
      </trkpt>
      <trkpt lat="43.87793" lon="7.29131">
        <ele>882</ele>
        <time>2012-11-18T10:03:01Z</time>
      </trkpt>
      <trkpt lat="43.87793" lon="7.2913">
        <ele>882</ele>
        <time>2012-11-18T10:03:05Z</time>
      </trkpt>
      <trkpt lat="43.87794" lon="7.2913">
        <ele>882</ele>
        <time>2012-11-18T10:03:09Z</time>
      </trkpt>
      <trkpt lat="43.87794" lon="7.2913">
        <ele>882</ele>
        <time>2012-11-18T10:03:12Z</time>
      </trkpt>
      <trkpt lat="43.87794" lon="7.29129">
        <ele>882</ele>
        <time>2012-11-18T10:03:16Z</time>
      </trkpt>
      <trkpt lat="43.87794" lon="7.29129">
        <ele>882</ele>
        <time>2012-11-18T10:03:19Z</time>
      </trkpt>
      <trkpt lat="43.87795" lon="7.29129">
        <ele>882</ele>
        <time>2012-11-18T10:03:23Z</time>
      </trkpt>
      <trkpt lat="43.87795" lon="7.29128">
        <ele>882</ele>
        <time>2012-11-18T10:03:26Z</time>
      </trkpt>
      <trkpt lat="43.87795" lon="7.29128">
        <ele>882</ele>
        <time>2012-11-18T10:03:30Z</time>
      </trkpt>
      <trkpt lat="43.87794" lon="7.29128">
        <ele>882</ele>
        <time>2012-11-18T10:03:33Z</time>
      </trkpt>
      <trkpt lat="43.87794" lon="7.29127">
        <ele>882</ele>
        <time>2012-11-18T10:03:38Z</time>
      </trkpt>
      <trkpt lat="43.87794" lon="7.29127">
        <ele>882</ele>
        <time>2012-11-18T10:03:42Z</time>
      </trkpt>
      <trkpt lat="43.87794" lon="7.29127">
        <ele>882</ele>
        <time>2012-11-18T10:03:45Z</time>
      </trkpt>
      <trkpt lat="43.87794" lon="7.29128">
        <ele>882</ele>
        <time>2012-11-18T10:03:49Z</time>
      </trkpt>
      <trkpt lat="43.87794" lon="7.29128">
        <ele>882</ele>
        <time>2012-11-18T10:03:55Z</time>
      </trkpt>
      <trkpt lat="43.87794" lon="7.29128">
        <ele>882</ele>
        <time>2012-11-18T10:03:58Z</time>
      </trkpt>
      <trkpt lat="43.87794" lon="7.29129">
        <ele>882</ele>
        <time>2012-11-18T10:04:03Z</time>
      </trkpt>
      <trkpt lat="43.87794" lon="7.29128">
        <ele>882</ele>
        <time>2012-11-18T10:04:07Z</time>
      </trkpt>
      <trkpt lat="43.87795" lon="7.29128">
        <ele>882</ele>
        <time>2012-11-18T10:04:10Z</time>
      </trkpt>
      <trkpt lat="43.87795" lon="7.29128">
        <ele>882</ele>
        <time>2012-11-18T10:04:15Z</time>
      </trkpt>
      <trkpt lat="43.87795" lon="7.29128">
        <ele>883</ele>
        <time>2012-11-18T10:04:20Z</time>
      </trkpt>
      <trkpt lat="43.87795" lon="7.29128">
        <ele>883</ele>
        <time>2012-11-18T10:04:23Z</time>
      </trkpt>
      <trkpt lat="43.87795" lon="7.29127">
        <ele>883</ele>
        <time>2012-11-18T10:04:26Z</time>
      </trkpt>
      <trkpt lat="43.87795" lon="7.29127">
        <ele>883</ele>
        <time>2012-11-18T10:04:29Z</time>
      </trkpt>
      <trkpt lat="43.87795" lon="7.29127">
        <ele>883</ele>
        <time>2012-11-18T10:04:33Z</time>
      </trkpt>
      <trkpt lat="43.87795" lon="7.29128">
        <ele>883</ele>
        <time>2012-11-18T10:04:38Z</time>
      </trkpt>
      <trkpt lat="43.87795" lon="7.29128">
        <ele>882</ele>
        <time>2012-11-18T10:04:42Z</time>
      </trkpt>
      <trkpt lat="43.87795" lon="7.29129">
        <ele>882</ele>
        <time>2012-11-18T10:04:46Z</time>
      </trkpt>
      <trkpt lat="43.87795" lon="7.29129">
        <ele>882</ele>
        <time>2012-11-18T10:04:50Z</time>
      </trkpt>
      <trkpt lat="43.87795" lon="7.2913">
        <ele>882</ele>
        <time>2012-11-18T10:04:53Z</time>
      </trkpt>
      <trkpt lat="43.87795" lon="7.29129">
        <ele>882</ele>
        <time>2012-11-18T10:04:57Z</time>
      </trkpt>
      <trkpt lat="43.87794" lon="7.29129">
        <ele>882</ele>
        <time>2012-11-18T10:05:00Z</time>
      </trkpt>
      <trkpt lat="43.87794" lon="7.29129">
        <ele>882</ele>
        <time>2012-11-18T10:05:03Z</time>
      </trkpt>
      <trkpt lat="43.87794" lon="7.29129">
        <ele>882</ele>
        <time>2012-11-18T10:05:06Z</time>
      </trkpt>
      <trkpt lat="43.87794" lon="7.29129">
        <ele>882</ele>
        <time>2012-11-18T10:05:09Z</time>
      </trkpt>
      <trkpt lat="43.87794" lon="7.2913">
        <ele>882</ele>
        <time>2012-11-18T10:05:13Z</time>
      </trkpt>
      <trkpt lat="43.87794" lon="7.2913">
        <ele>882</ele>
        <time>2012-11-18T10:05:16Z</time>
      </trkpt>
      <trkpt lat="43.87794" lon="7.29129">
        <ele>882</ele>
        <time>2012-11-18T10:05:21Z</time>
      </trkpt>
      <trkpt lat="43.87794" lon="7.29128">
        <ele>882</ele>
        <time>2012-11-18T10:05:25Z</time>
      </trkpt>
      <trkpt lat="43.87793" lon="7.29127">
        <ele>882</ele>
        <time>2012-11-18T10:05:31Z</time>
      </trkpt>
      <trkpt lat="43.87793" lon="7.29126">
        <ele>882</ele>
        <time>2012-11-18T10:05:35Z</time>
      </trkpt>
      <trkpt lat="43.87793" lon="7.29126">
        <ele>882</ele>
        <time>2012-11-18T10:05:38Z</time>
      </trkpt>
      <trkpt lat="43.87793" lon="7.29126">
        <ele>882</ele>
        <time>2012-11-18T10:05:42Z</time>
      </trkpt>
      <trkpt lat="43.87793" lon="7.29127">
        <ele>882</ele>
        <time>2012-11-18T10:05:46Z</time>
      </trkpt>
      <trkpt lat="43.87793" lon="7.29128">
        <ele>882</ele>
        <time>2012-11-18T10:05:49Z</time>
      </trkpt>
      <trkpt lat="43.87793" lon="7.29128">
        <ele>882</ele>
        <time>2012-11-18T10:05:52Z</time>
      </trkpt>
      <trkpt lat="43.87793" lon="7.29128">
        <ele>882</ele>
        <time>2012-11-18T10:05:55Z</time>
      </trkpt>
      <trkpt lat="43.87793" lon="7.29127">
        <ele>882</ele>
        <time>2012-11-18T10:06:00Z</time>
      </trkpt>
      <trkpt lat="43.87793" lon="7.29126">
        <ele>882</ele>
        <time>2012-11-18T10:06:04Z</time>
      </trkpt>
      <trkpt lat="43.87793" lon="7.29126">
        <ele>882</ele>
        <time>2012-11-18T10:06:07Z</time>
      </trkpt>
      <trkpt lat="43.87793" lon="7.29126">
        <ele>882</ele>
        <time>2012-11-18T10:06:11Z</time>
      </trkpt>
      <trkpt lat="43.87793" lon="7.29126">
        <ele>882</ele>
        <time>2012-11-18T10:06:14Z</time>
      </trkpt>
      <trkpt lat="43.87794" lon="7.29125">
        <ele>883</ele>
        <time>2012-11-18T10:06:17Z</time>
      </trkpt>
      <trkpt lat="43.87797" lon="7.29126">
        <ele>883</ele>
        <time>2012-11-18T10:06:22Z</time>
      </trkpt>
      <trkpt lat="43.878" lon="7.29126">
        <ele>884</ele>
        <time>2012-11-18T10:06:25Z</time>
      </trkpt>
      <trkpt lat="43.87804" lon="7.29128">
        <ele>884</ele>
        <time>2012-11-18T10:06:29Z</time>
      </trkpt>
      <trkpt lat="43.87808" lon="7.2913">
        <ele>884</ele>
        <time>2012-11-18T10:06:33Z</time>
      </trkpt>
      <trkpt lat="43.87812" lon="7.29132">
        <ele>885</ele>
        <time>2012-11-18T10:06:38Z</time>
      </trkpt>
      <trkpt lat="43.87815" lon="7.29134">
        <ele>885</ele>
        <time>2012-11-18T10:06:42Z</time>
      </trkpt>
      <trkpt lat="43.87818" lon="7.29134">
        <ele>885</ele>
        <time>2012-11-18T10:06:45Z</time>
      </trkpt>
      <trkpt lat="43.87821" lon="7.29134">
        <ele>886</ele>
        <time>2012-11-18T10:06:48Z</time>
      </trkpt>
      <trkpt lat="43.87826" lon="7.29133">
        <ele>886</ele>
        <time>2012-11-18T10:06:54Z</time>
      </trkpt>
      <trkpt lat="43.8783" lon="7.29132">
        <ele>887</ele>
        <time>2012-11-18T10:06:58Z</time>
      </trkpt>
      <trkpt lat="43.87834" lon="7.29131">
        <ele>893</ele>
        <time>2012-11-18T10:07:02Z</time>
      </trkpt>
      <trkpt lat="43.87837" lon="7.29129">
        <ele>894</ele>
        <time>2012-11-18T10:07:06Z</time>
      </trkpt>
      <trkpt lat="43.8784" lon="7.29127">
        <ele>894</ele>
        <time>2012-11-18T10:07:10Z</time>
      </trkpt>
      <trkpt lat="43.87844" lon="7.29126">
        <ele>894</ele>
        <time>2012-11-18T10:07:14Z</time>
      </trkpt>
      <trkpt lat="43.87848" lon="7.29123">
        <ele>894</ele>
        <time>2012-11-18T10:07:19Z</time>
      </trkpt>
      <trkpt lat="43.87853" lon="7.2912">
        <ele>894</ele>
        <time>2012-11-18T10:07:24Z</time>
      </trkpt>
      <trkpt lat="43.87856" lon="7.29119">
        <ele>894</ele>
        <time>2012-11-18T10:07:28Z</time>
      </trkpt>
      <trkpt lat="43.87859" lon="7.29118">
        <ele>894</ele>
        <time>2012-11-18T10:07:33Z</time>
      </trkpt>
      <trkpt lat="43.87863" lon="7.29116">
        <ele>894</ele>
        <time>2012-11-18T10:07:37Z</time>
      </trkpt>
      <trkpt lat="43.87867" lon="7.29114">
        <ele>894</ele>
        <time>2012-11-18T10:07:42Z</time>
      </trkpt>
      <trkpt lat="43.87871" lon="7.29112">
        <ele>894</ele>
        <time>2012-11-18T10:07:46Z</time>
      </trkpt>
      <trkpt lat="43.87874" lon="7.29109">
        <ele>894</ele>
        <time>2012-11-18T10:07:50Z</time>
      </trkpt>
      <trkpt lat="43.87879" lon="7.29106">
        <ele>894</ele>
        <time>2012-11-18T10:07:54Z</time>
      </trkpt>
      <trkpt lat="43.87885" lon="7.29104">
        <ele>894</ele>
        <time>2012-11-18T10:07:59Z</time>
      </trkpt>
      <trkpt lat="43.8789" lon="7.29101">
        <ele>894</ele>
        <time>2012-11-18T10:08:04Z</time>
      </trkpt>
      <trkpt lat="43.87896" lon="7.29098">
        <ele>895</ele>
        <time>2012-11-18T10:08:10Z</time>
      </trkpt>
      <trkpt lat="43.87901" lon="7.29095">
        <ele>895</ele>
        <time>2012-11-18T10:08:15Z</time>
      </trkpt>
      <trkpt lat="43.87905" lon="7.29091">
        <ele>896</ele>
        <time>2012-11-18T10:08:19Z</time>
      </trkpt>
      <trkpt lat="43.87909" lon="7.29088">
        <ele>896</ele>
        <time>2012-11-18T10:08:23Z</time>
      </trkpt>
      <trkpt lat="43.87913" lon="7.29084">
        <ele>897</ele>
        <time>2012-11-18T10:08:27Z</time>
      </trkpt>
      <trkpt lat="43.87917" lon="7.2908">
        <ele>901</ele>
        <time>2012-11-18T10:08:31Z</time>
      </trkpt>
      <trkpt lat="43.87921" lon="7.29075">
        <ele>896</ele>
        <time>2012-11-18T10:08:36Z</time>
      </trkpt>
      <trkpt lat="43.87924" lon="7.29071">
        <ele>895</ele>
        <time>2012-11-18T10:08:40Z</time>
      </trkpt>
      <trkpt lat="43.87928" lon="7.29066">
        <ele>894</ele>
        <time>2012-11-18T10:08:45Z</time>
      </trkpt>
      <trkpt lat="43.87932" lon="7.29061">
        <ele>894</ele>
        <time>2012-11-18T10:08:50Z</time>
      </trkpt>
      <trkpt lat="43.87936" lon="7.29056">
        <ele>894</ele>
        <time>2012-11-18T10:08:55Z</time>
      </trkpt>
      <trkpt lat="43.8794" lon="7.29052">
        <ele>893</ele>
        <time>2012-11-18T10:09:00Z</time>
      </trkpt>
      <trkpt lat="43.87944" lon="7.29048">
        <ele>893</ele>
        <time>2012-11-18T10:09:05Z</time>
      </trkpt>
      <trkpt lat="43.87947" lon="7.29044">
        <ele>893</ele>
        <time>2012-11-18T10:09:09Z</time>
      </trkpt>
      <trkpt lat="43.8795" lon="7.2904">
        <ele>893</ele>
        <time>2012-11-18T10:09:13Z</time>
      </trkpt>
      <trkpt lat="43.87952" lon="7.29037">
        <ele>893</ele>
        <time>2012-11-18T10:09:16Z</time>
      </trkpt>
      <trkpt lat="43.87954" lon="7.29031">
        <ele>893</ele>
        <time>2012-11-18T10:09:20Z</time>
      </trkpt>
      <trkpt lat="43.87955" lon="7.29025">
        <ele>893</ele>
        <time>2012-11-18T10:09:24Z</time>
      </trkpt>
      <trkpt lat="43.87956" lon="7.29019">
        <ele>894</ele>
        <time>2012-11-18T10:09:28Z</time>
      </trkpt>
      <trkpt lat="43.87957" lon="7.2901">
        <ele>895</ele>
        <time>2012-11-18T10:09:34Z</time>
      </trkpt>
      <trkpt lat="43.87958" lon="7.29004">
        <ele>895</ele>
        <time>2012-11-18T10:09:38Z</time>
      </trkpt>
      <trkpt lat="43.87959" lon="7.28996">
        <ele>911</ele>
        <time>2012-11-18T10:09:44Z</time>
      </trkpt>
      <trkpt lat="43.8796" lon="7.2899">
        <ele>911</ele>
        <time>2012-11-18T10:09:48Z</time>
      </trkpt>
      <trkpt lat="43.87961" lon="7.28985">
        <ele>912</ele>
        <time>2012-11-18T10:09:51Z</time>
      </trkpt>
      <trkpt lat="43.87962" lon="7.28979">
        <ele>912</ele>
        <time>2012-11-18T10:09:55Z</time>
      </trkpt>
      <trkpt lat="43.87963" lon="7.28973">
        <ele>913</ele>
        <time>2012-11-18T10:09:59Z</time>
      </trkpt>
      <trkpt lat="43.87963" lon="7.28969">
        <ele>914</ele>
        <time>2012-11-18T10:10:02Z</time>
      </trkpt>
      <trkpt lat="43.87964" lon="7.28964">
        <ele>914</ele>
        <time>2012-11-18T10:10:06Z</time>
      </trkpt>
      <trkpt lat="43.87966" lon="7.28958">
        <ele>915</ele>
        <time>2012-11-18T10:10:10Z</time>
      </trkpt>
      <trkpt lat="43.87967" lon="7.28952">
        <ele>916</ele>
        <time>2012-11-18T10:10:15Z</time>
      </trkpt>
      <trkpt lat="43.87968" lon="7.28946">
        <ele>916</ele>
        <time>2012-11-18T10:10:19Z</time>
      </trkpt>
      <trkpt lat="43.87971" lon="7.28937">
        <ele>917</ele>
        <time>2012-11-18T10:10:25Z</time>
      </trkpt>
      <trkpt lat="43.87972" lon="7.28931">
        <ele>917</ele>
        <time>2012-11-18T10:10:29Z</time>
      </trkpt>
      <trkpt lat="43.87974" lon="7.28924">
        <ele>917</ele>
        <time>2012-11-18T10:10:34Z</time>
      </trkpt>
      <trkpt lat="43.87975" lon="7.28919">
        <ele>916</ele>
        <time>2012-11-18T10:10:38Z</time>
      </trkpt>
      <trkpt lat="43.87977" lon="7.28916">
        <ele>932</ele>
        <time>2012-11-18T10:10:41Z</time>
      </trkpt>
      <trkpt lat="43.87979" lon="7.28912">
        <ele>931</ele>
        <time>2012-11-18T10:10:45Z</time>
      </trkpt>
      <trkpt lat="43.87981" lon="7.28907">
        <ele>931</ele>
        <time>2012-11-18T10:10:50Z</time>
      </trkpt>
      <trkpt lat="43.87983" lon="7.28903">
        <ele>931</ele>
        <time>2012-11-18T10:10:54Z</time>
      </trkpt>
      <trkpt lat="43.87985" lon="7.28897">
        <ele>932</ele>
        <time>2012-11-18T10:10:59Z</time>
      </trkpt>
      <trkpt lat="43.87987" lon="7.28893">
        <ele>933</ele>
        <time>2012-11-18T10:11:03Z</time>
      </trkpt>
      <trkpt lat="43.87991" lon="7.28886">
        <ele>935</ele>
        <time>2012-11-18T10:11:09Z</time>
      </trkpt>
      <trkpt lat="43.87992" lon="7.28882">
        <ele>937</ele>
        <time>2012-11-18T10:11:13Z</time>
      </trkpt>
      <trkpt lat="43.87994" lon="7.28878">
        <ele>938</ele>
        <time>2012-11-18T10:11:17Z</time>
      </trkpt>
      <trkpt lat="43.87996" lon="7.28873">
        <ele>939</ele>
        <time>2012-11-18T10:11:22Z</time>
      </trkpt>
      <trkpt lat="43.87998" lon="7.28868">
        <ele>939</ele>
        <time>2012-11-18T10:11:27Z</time>
      </trkpt>
      <trkpt lat="43.88" lon="7.28863">
        <ele>929</ele>
        <time>2012-11-18T10:11:32Z</time>
      </trkpt>
      <trkpt lat="43.88002" lon="7.28859">
        <ele>930</ele>
        <time>2012-11-18T10:11:36Z</time>
      </trkpt>
      <trkpt lat="43.88005" lon="7.28855">
        <ele>931</ele>
        <time>2012-11-18T10:11:41Z</time>
      </trkpt>
      <trkpt lat="43.88008" lon="7.2885">
        <ele>932</ele>
        <time>2012-11-18T10:11:46Z</time>
      </trkpt>
      <trkpt lat="43.88012" lon="7.28844">
        <ele>933</ele>
        <time>2012-11-18T10:11:52Z</time>
      </trkpt>
      <trkpt lat="43.88014" lon="7.28841">
        <ele>933</ele>
        <time>2012-11-18T10:11:55Z</time>
      </trkpt>
      <trkpt lat="43.88017" lon="7.28836">
        <ele>933</ele>
        <time>2012-11-18T10:11:59Z</time>
      </trkpt>
      <trkpt lat="43.88019" lon="7.28832">
        <ele>947</ele>
        <time>2012-11-18T10:12:03Z</time>
      </trkpt>
      <trkpt lat="43.8802" lon="7.28826">
        <ele>948</ele>
        <time>2012-11-18T10:12:08Z</time>
      </trkpt>
      <trkpt lat="43.88022" lon="7.28823">
        <ele>949</ele>
        <time>2012-11-18T10:12:11Z</time>
      </trkpt>
      <trkpt lat="43.88022" lon="7.28817">
        <ele>950</ele>
        <time>2012-11-18T10:12:15Z</time>
      </trkpt>
      <trkpt lat="43.88023" lon="7.28811">
        <ele>951</ele>
        <time>2012-11-18T10:12:19Z</time>
      </trkpt>
      <trkpt lat="43.88023" lon="7.28807">
        <ele>952</ele>
        <time>2012-11-18T10:12:22Z</time>
      </trkpt>
      <trkpt lat="43.88024" lon="7.28805">
        <ele>952</ele>
        <time>2012-11-18T10:12:24Z</time>
      </trkpt>
      <trkpt lat="43.88026" lon="7.28804">
        <ele>953</ele>
        <time>2012-11-18T10:12:27Z</time>
      </trkpt>
      <trkpt lat="43.88029" lon="7.28804">
        <ele>953</ele>
        <time>2012-11-18T10:12:30Z</time>
      </trkpt>
      <trkpt lat="43.88032" lon="7.28805">
        <ele>953</ele>
        <time>2012-11-18T10:12:34Z</time>
      </trkpt>
      <trkpt lat="43.88036" lon="7.28806">
        <ele>953</ele>
        <time>2012-11-18T10:12:38Z</time>
      </trkpt>
      <trkpt lat="43.8804" lon="7.28809">
        <ele>953</ele>
        <time>2012-11-18T10:12:43Z</time>
      </trkpt>
      <trkpt lat="43.88044" lon="7.28812">
        <ele>953</ele>
        <time>2012-11-18T10:12:48Z</time>
      </trkpt>
      <trkpt lat="43.88047" lon="7.28814">
        <ele>952</ele>
        <time>2012-11-18T10:12:52Z</time>
      </trkpt>
      <trkpt lat="43.8805" lon="7.28815">
        <ele>952</ele>
        <time>2012-11-18T10:12:55Z</time>
      </trkpt>
      <trkpt lat="43.88052" lon="7.28817">
        <ele>952</ele>
        <time>2012-11-18T10:12:58Z</time>
      </trkpt>
      <trkpt lat="43.88053" lon="7.28821">
        <ele>951</ele>
        <time>2012-11-18T10:13:02Z</time>
      </trkpt>
      <trkpt lat="43.88055" lon="7.28827">
        <ele>951</ele>
        <time>2012-11-18T10:13:06Z</time>
      </trkpt>
      <trkpt lat="43.88056" lon="7.28831">
        <ele>950</ele>
        <time>2012-11-18T10:13:09Z</time>
      </trkpt>
      <trkpt lat="43.88059" lon="7.28834">
        <ele>934</ele>
        <time>2012-11-18T10:13:13Z</time>
      </trkpt>
      <trkpt lat="43.88064" lon="7.28838">
        <ele>934</ele>
        <time>2012-11-18T10:13:19Z</time>
      </trkpt>
      <trkpt lat="43.88069" lon="7.28842">
        <ele>935</ele>
        <time>2012-11-18T10:13:24Z</time>
      </trkpt>
      <trkpt lat="43.88072" lon="7.28846">
        <ele>935</ele>
        <time>2012-11-18T10:13:29Z</time>
      </trkpt>
      <trkpt lat="43.88076" lon="7.28848">
        <ele>935</ele>
        <time>2012-11-18T10:13:35Z</time>
      </trkpt>
      <trkpt lat="43.88079" lon="7.2885">
        <ele>934</ele>
        <time>2012-11-18T10:13:39Z</time>
      </trkpt>
      <trkpt lat="43.88081" lon="7.28851">
        <ele>934</ele>
        <time>2012-11-18T10:13:42Z</time>
      </trkpt>
      <trkpt lat="43.88084" lon="7.28851">
        <ele>941</ele>
        <time>2012-11-18T10:13:46Z</time>
      </trkpt>
      <trkpt lat="43.88087" lon="7.28853">
        <ele>941</ele>
        <time>2012-11-18T10:13:50Z</time>
      </trkpt>
      <trkpt lat="43.88091" lon="7.28857">
        <ele>940</ele>
        <time>2012-11-18T10:13:55Z</time>
      </trkpt>
      <trkpt lat="43.88094" lon="7.28859">
        <ele>940</ele>
        <time>2012-11-18T10:13:59Z</time>
      </trkpt>
      <trkpt lat="43.88097" lon="7.28861">
        <ele>940</ele>
        <time>2012-11-18T10:14:03Z</time>
      </trkpt>
      <trkpt lat="43.88097" lon="7.28862">
        <ele>940</ele>
        <time>2012-11-18T10:14:06Z</time>
      </trkpt>
      <trkpt lat="43.88097" lon="7.28862">
        <ele>940</ele>
        <time>2012-11-18T10:14:10Z</time>
      </trkpt>
      <trkpt lat="43.88098" lon="7.28863">
        <ele>940</ele>
        <time>2012-11-18T10:14:14Z</time>
      </trkpt>
      <trkpt lat="43.88099" lon="7.28865">
        <ele>939</ele>
        <time>2012-11-18T10:14:19Z</time>
      </trkpt>
      <trkpt lat="43.88101" lon="7.28867">
        <ele>939</ele>
        <time>2012-11-18T10:14:23Z</time>
      </trkpt>
      <trkpt lat="43.88103" lon="7.2887">
        <ele>939</ele>
        <time>2012-11-18T10:14:27Z</time>
      </trkpt>
      <trkpt lat="43.88105" lon="7.28871">
        <ele>939</ele>
        <time>2012-11-18T10:14:30Z</time>
      </trkpt>
      <trkpt lat="43.88107" lon="7.28872">
        <ele>939</ele>
        <time>2012-11-18T10:14:33Z</time>
      </trkpt>
      <trkpt lat="43.88111" lon="7.28872">
        <ele>939</ele>
        <time>2012-11-18T10:14:38Z</time>
      </trkpt>
      <trkpt lat="43.88114" lon="7.28872">
        <ele>940</ele>
        <time>2012-11-18T10:14:42Z</time>
      </trkpt>
      <trkpt lat="43.88119" lon="7.28873">
        <ele>940</ele>
        <time>2012-11-18T10:14:48Z</time>
      </trkpt>
      <trkpt lat="43.88121" lon="7.28874">
        <ele>940</ele>
        <time>2012-11-18T10:14:53Z</time>
      </trkpt>
      <trkpt lat="43.88123" lon="7.28875">
        <ele>941</ele>
        <time>2012-11-18T10:14:56Z</time>
      </trkpt>
      <trkpt lat="43.88125" lon="7.28876">
        <ele>941</ele>
        <time>2012-11-18T10:15:00Z</time>
      </trkpt>
      <trkpt lat="43.88127" lon="7.28878">
        <ele>941</ele>
        <time>2012-11-18T10:15:04Z</time>
      </trkpt>
      <trkpt lat="43.8813" lon="7.2888">
        <ele>940</ele>
        <time>2012-11-18T10:15:09Z</time>
      </trkpt>
      <trkpt lat="43.88132" lon="7.28882">
        <ele>940</ele>
        <time>2012-11-18T10:15:13Z</time>
      </trkpt>
      <trkpt lat="43.88134" lon="7.28884">
        <ele>940</ele>
        <time>2012-11-18T10:15:17Z</time>
      </trkpt>
      <trkpt lat="43.88135" lon="7.28885">
        <ele>940</ele>
        <time>2012-11-18T10:15:21Z</time>
      </trkpt>
      <trkpt lat="43.88135" lon="7.28886">
        <ele>940</ele>
        <time>2012-11-18T10:15:24Z</time>
      </trkpt>
      <trkpt lat="43.88135" lon="7.28886">
        <ele>940</ele>
        <time>2012-11-18T10:15:27Z</time>
      </trkpt>
      <trkpt lat="43.88135" lon="7.28886">
        <ele>940</ele>
        <time>2012-11-18T10:15:31Z</time>
      </trkpt>
      <trkpt lat="43.88135" lon="7.28886">
        <ele>940</ele>
        <time>2012-11-18T10:15:35Z</time>
      </trkpt>
      <trkpt lat="43.88134" lon="7.28885">
        <ele>940</ele>
        <time>2012-11-18T10:15:40Z</time>
      </trkpt>
      <trkpt lat="43.88134" lon="7.28885">
        <ele>940</ele>
        <time>2012-11-18T10:15:44Z</time>
      </trkpt>
      <trkpt lat="43.88135" lon="7.28887">
        <ele>940</ele>
        <time>2012-11-18T10:15:51Z</time>
      </trkpt>
      <trkpt lat="43.88136" lon="7.28889">
        <ele>940</ele>
        <time>2012-11-18T10:15:55Z</time>
      </trkpt>
      <trkpt lat="43.88137" lon="7.2889">
        <ele>939</ele>
        <time>2012-11-18T10:15:58Z</time>
      </trkpt>
      <trkpt lat="43.88138" lon="7.2889">
        <ele>940</ele>
        <time>2012-11-18T10:16:01Z</time>
      </trkpt>
      <trkpt lat="43.88142" lon="7.28893">
        <ele>939</ele>
        <time>2012-11-18T10:16:05Z</time>
      </trkpt>
      <trkpt lat="43.88146" lon="7.28895">
        <ele>939</ele>
        <time>2012-11-18T10:16:10Z</time>
      </trkpt>
      <trkpt lat="43.88149" lon="7.28896">
        <ele>939</ele>
        <time>2012-11-18T10:16:14Z</time>
      </trkpt>
      <trkpt lat="43.88153" lon="7.28897">
        <ele>939</ele>
        <time>2012-11-18T10:16:18Z</time>
      </trkpt>
      <trkpt lat="43.88156" lon="7.28897">
        <ele>939</ele>
        <time>2012-11-18T10:16:22Z</time>
      </trkpt>
      <trkpt lat="43.8816" lon="7.28899">
        <ele>939</ele>
        <time>2012-11-18T10:16:27Z</time>
      </trkpt>
      <trkpt lat="43.88163" lon="7.289">
        <ele>939</ele>
        <time>2012-11-18T10:16:31Z</time>
      </trkpt>
      <trkpt lat="43.88167" lon="7.28901">
        <ele>948</ele>
        <time>2012-11-18T10:16:36Z</time>
      </trkpt>
      <trkpt lat="43.88169" lon="7.28902">
        <ele>947</ele>
        <time>2012-11-18T10:16:41Z</time>
      </trkpt>
      <trkpt lat="43.88171" lon="7.28902">
        <ele>947</ele>
        <time>2012-11-18T10:16:45Z</time>
      </trkpt>
      <trkpt lat="43.88171" lon="7.28902">
        <ele>947</ele>
        <time>2012-11-18T10:16:48Z</time>
      </trkpt>
      <trkpt lat="43.88171" lon="7.28902">
        <ele>947</ele>
        <time>2012-11-18T10:16:53Z</time>
      </trkpt>
      <trkpt lat="43.88171" lon="7.28903">
        <ele>947</ele>
        <time>2012-11-18T10:16:56Z</time>
      </trkpt>
      <trkpt lat="43.88173" lon="7.28903">
        <ele>947</ele>
        <time>2012-11-18T10:17:01Z</time>
      </trkpt>
      <trkpt lat="43.88175" lon="7.28903">
        <ele>948</ele>
        <time>2012-11-18T10:17:06Z</time>
      </trkpt>
      <trkpt lat="43.88177" lon="7.28904">
        <ele>948</ele>
        <time>2012-11-18T10:17:11Z</time>
      </trkpt>
      <trkpt lat="43.88179" lon="7.28904">
        <ele>948</ele>
        <time>2012-11-18T10:17:15Z</time>
      </trkpt>
      <trkpt lat="43.88181" lon="7.28904">
        <ele>949</ele>
        <time>2012-11-18T10:17:20Z</time>
      </trkpt>
      <trkpt lat="43.88184" lon="7.28905">
        <ele>950</ele>
        <time>2012-11-18T10:17:24Z</time>
      </trkpt>
      <trkpt lat="43.88187" lon="7.28906">
        <ele>950</ele>
        <time>2012-11-18T10:17:30Z</time>
      </trkpt>
      <trkpt lat="43.8819" lon="7.28907">
        <ele>951</ele>
        <time>2012-11-18T10:17:36Z</time>
      </trkpt>
      <trkpt lat="43.88192" lon="7.28908">
        <ele>952</ele>
        <time>2012-11-18T10:17:40Z</time>
      </trkpt>
      <trkpt lat="43.88193" lon="7.28908">
        <ele>952</ele>
        <time>2012-11-18T10:17:44Z</time>
      </trkpt>
      <trkpt lat="43.88194" lon="7.28909">
        <ele>952</ele>
        <time>2012-11-18T10:17:48Z</time>
      </trkpt>
      <trkpt lat="43.88195" lon="7.2891">
        <ele>952</ele>
        <time>2012-11-18T10:17:53Z</time>
      </trkpt>
      <trkpt lat="43.88196" lon="7.2891">
        <ele>952</ele>
        <time>2012-11-18T10:17:59Z</time>
      </trkpt>
      <trkpt lat="43.88196" lon="7.2891">
        <ele>952</ele>
        <time>2012-11-18T10:18:03Z</time>
      </trkpt>
      <trkpt lat="43.88195" lon="7.2891">
        <ele>952</ele>
        <time>2012-11-18T10:18:07Z</time>
      </trkpt>
      <trkpt lat="43.88194" lon="7.28909">
        <ele>952</ele>
        <time>2012-11-18T10:18:11Z</time>
      </trkpt>
      <trkpt lat="43.88194" lon="7.28909">
        <ele>952</ele>
        <time>2012-11-18T10:18:14Z</time>
      </trkpt>
      <trkpt lat="43.88194" lon="7.28909">
        <ele>952</ele>
        <time>2012-11-18T10:18:18Z</time>
      </trkpt>
      <trkpt lat="43.88193" lon="7.28909">
        <ele>952</ele>
        <time>2012-11-18T10:18:21Z</time>
      </trkpt>
      <trkpt lat="43.88193" lon="7.2891">
        <ele>952</ele>
        <time>2012-11-18T10:18:24Z</time>
      </trkpt>
      <trkpt lat="43.88193" lon="7.2891">
        <ele>952</ele>
        <time>2012-11-18T10:18:27Z</time>
      </trkpt>
      <trkpt lat="43.88192" lon="7.28912">
        <ele>951</ele>
        <time>2012-11-18T10:18:36Z</time>
      </trkpt>
      <trkpt lat="43.88192" lon="7.28912">
        <ele>951</ele>
        <time>2012-11-18T10:18:39Z</time>
      </trkpt>
      <trkpt lat="43.88191" lon="7.28912">
        <ele>951</ele>
        <time>2012-11-18T10:18:43Z</time>
      </trkpt>
      <trkpt lat="43.88191" lon="7.28913">
        <ele>951</ele>
        <time>2012-11-18T10:18:48Z</time>
      </trkpt>
      <trkpt lat="43.88191" lon="7.28913">
        <ele>951</ele>
        <time>2012-11-18T10:18:52Z</time>
      </trkpt>
      <trkpt lat="43.88191" lon="7.28913">
        <ele>950</ele>
        <time>2012-11-18T10:18:55Z</time>
      </trkpt>
      <trkpt lat="43.88191" lon="7.28913">
        <ele>951</ele>
        <time>2012-11-18T10:18:58Z</time>
      </trkpt>
      <trkpt lat="43.88191" lon="7.28913">
        <ele>951</ele>
        <time>2012-11-18T10:19:02Z</time>
      </trkpt>
      <trkpt lat="43.88191" lon="7.28913">
        <ele>951</ele>
        <time>2012-11-18T10:19:07Z</time>
      </trkpt>
      <trkpt lat="43.88191" lon="7.28912">
        <ele>951</ele>
        <time>2012-11-18T10:19:10Z</time>
      </trkpt>
      <trkpt lat="43.88191" lon="7.28912">
        <ele>951</ele>
        <time>2012-11-18T10:19:15Z</time>
      </trkpt>
      <trkpt lat="43.8819" lon="7.28911">
        <ele>951</ele>
        <time>2012-11-18T10:19:20Z</time>
      </trkpt>
      <trkpt lat="43.8819" lon="7.2891">
        <ele>951</ele>
        <time>2012-11-18T10:19:24Z</time>
      </trkpt>
      <trkpt lat="43.8819" lon="7.28909">
        <ele>951</ele>
        <time>2012-11-18T10:19:28Z</time>
      </trkpt>
      <trkpt lat="43.88189" lon="7.28908">
        <ele>951</ele>
        <time>2012-11-18T10:19:32Z</time>
      </trkpt>
      <trkpt lat="43.88189" lon="7.28907">
        <ele>951</ele>
        <time>2012-11-18T10:19:38Z</time>
      </trkpt>
      <trkpt lat="43.88189" lon="7.28906">
        <ele>951</ele>
        <time>2012-11-18T10:19:42Z</time>
      </trkpt>
      <trkpt lat="43.88189" lon="7.28906">
        <ele>951</ele>
        <time>2012-11-18T10:19:45Z</time>
      </trkpt>
      <trkpt lat="43.8819" lon="7.28905">
        <ele>952</ele>
        <time>2012-11-18T10:19:50Z</time>
      </trkpt>
      <trkpt lat="43.8819" lon="7.28905">
        <ele>952</ele>
        <time>2012-11-18T10:19:54Z</time>
      </trkpt>
      <trkpt lat="43.8819" lon="7.28904">
        <ele>952</ele>
        <time>2012-11-18T10:19:58Z</time>
      </trkpt>
      <trkpt lat="43.88191" lon="7.28905">
        <ele>952</ele>
        <time>2012-11-18T10:20:01Z</time>
      </trkpt>
      <trkpt lat="43.88191" lon="7.28905">
        <ele>952</ele>
        <time>2012-11-18T10:20:04Z</time>
      </trkpt>
      <trkpt lat="43.8819" lon="7.28906">
        <ele>952</ele>
        <time>2012-11-18T10:20:07Z</time>
      </trkpt>
      <trkpt lat="43.8819" lon="7.28907">
        <ele>951</ele>
        <time>2012-11-18T10:20:12Z</time>
      </trkpt>
      <trkpt lat="43.88189" lon="7.28907">
        <ele>951</ele>
        <time>2012-11-18T10:20:17Z</time>
      </trkpt>
      <trkpt lat="43.88189" lon="7.28908">
        <ele>951</ele>
        <time>2012-11-18T10:20:22Z</time>
      </trkpt>
      <trkpt lat="43.88188" lon="7.28909">
        <ele>950</ele>
        <time>2012-11-18T10:20:25Z</time>
      </trkpt>
      <trkpt lat="43.88189" lon="7.2891">
        <ele>950</ele>
        <time>2012-11-18T10:20:29Z</time>
      </trkpt>
      <trkpt lat="43.88189" lon="7.2891">
        <ele>950</ele>
        <time>2012-11-18T10:20:32Z</time>
      </trkpt>
      <trkpt lat="43.88189" lon="7.2891">
        <ele>950</ele>
        <time>2012-11-18T10:20:36Z</time>
      </trkpt>
      <trkpt lat="43.88188" lon="7.2891">
        <ele>950</ele>
        <time>2012-11-18T10:20:39Z</time>
      </trkpt>
      <trkpt lat="43.88188" lon="7.2891">
        <ele>950</ele>
        <time>2012-11-18T10:20:42Z</time>
      </trkpt>
      <trkpt lat="43.88189" lon="7.2891">
        <ele>950</ele>
        <time>2012-11-18T10:20:46Z</time>
      </trkpt>
      <trkpt lat="43.88189" lon="7.2891">
        <ele>950</ele>
        <time>2012-11-18T10:20:50Z</time>
      </trkpt>
      <trkpt lat="43.8819" lon="7.2891">
        <ele>951</ele>
        <time>2012-11-18T10:20:54Z</time>
      </trkpt>
      <trkpt lat="43.88194" lon="7.2891">
        <ele>952</ele>
        <time>2012-11-18T10:21:01Z</time>
      </trkpt>
      <trkpt lat="43.882" lon="7.28909">
        <ele>954</ele>
        <time>2012-11-18T10:21:07Z</time>
      </trkpt>
      <trkpt lat="43.88205" lon="7.28908">
        <ele>955</ele>
        <time>2012-11-18T10:21:12Z</time>
      </trkpt>
      <trkpt lat="43.88208" lon="7.28908">
        <ele>955</ele>
        <time>2012-11-18T10:21:15Z</time>
      </trkpt>
      <trkpt lat="43.88211" lon="7.28909">
        <ele>955</ele>
        <time>2012-11-18T10:21:18Z</time>
      </trkpt>
      <trkpt lat="43.88214" lon="7.28911">
        <ele>955</ele>
        <time>2012-11-18T10:21:22Z</time>
      </trkpt>
      <trkpt lat="43.88218" lon="7.28914">
        <ele>955</ele>
        <time>2012-11-18T10:21:26Z</time>
      </trkpt>
      <trkpt lat="43.88222" lon="7.28916">
        <ele>955</ele>
        <time>2012-11-18T10:21:30Z</time>
      </trkpt>
      <trkpt lat="43.88227" lon="7.28918">
        <ele>933</ele>
        <time>2012-11-18T10:21:35Z</time>
      </trkpt>
      <trkpt lat="43.88232" lon="7.28921">
        <ele>935</ele>
        <time>2012-11-18T10:21:40Z</time>
      </trkpt>
      <trkpt lat="43.88239" lon="7.28924">
        <ele>937</ele>
        <time>2012-11-18T10:21:46Z</time>
      </trkpt>
      <trkpt lat="43.88243" lon="7.28926">
        <ele>938</ele>
        <time>2012-11-18T10:21:50Z</time>
      </trkpt>
      <trkpt lat="43.88246" lon="7.28929">
        <ele>938</ele>
        <time>2012-11-18T10:21:54Z</time>
      </trkpt>
      <trkpt lat="43.8825" lon="7.2893">
        <ele>937</ele>
        <time>2012-11-18T10:21:58Z</time>
      </trkpt>
      <trkpt lat="43.88253" lon="7.28932">
        <ele>942</ele>
        <time>2012-11-18T10:22:01Z</time>
      </trkpt>
      <trkpt lat="43.88257" lon="7.28932">
        <ele>941</ele>
        <time>2012-11-18T10:22:05Z</time>
      </trkpt>
      <trkpt lat="43.88261" lon="7.28933">
        <ele>940</ele>
        <time>2012-11-18T10:22:09Z</time>
      </trkpt>
      <trkpt lat="43.88266" lon="7.28934">
        <ele>940</ele>
        <time>2012-11-18T10:22:14Z</time>
      </trkpt>
      <trkpt lat="43.88269" lon="7.28934">
        <ele>939</ele>
        <time>2012-11-18T10:22:17Z</time>
      </trkpt>
      <trkpt lat="43.88274" lon="7.28934">
        <ele>939</ele>
        <time>2012-11-18T10:22:21Z</time>
      </trkpt>
      <trkpt lat="43.88279" lon="7.28933">
        <ele>939</ele>
        <time>2012-11-18T10:22:25Z</time>
      </trkpt>
      <trkpt lat="43.88283" lon="7.28932">
        <ele>939</ele>
        <time>2012-11-18T10:22:29Z</time>
      </trkpt>
      <trkpt lat="43.88287" lon="7.28931">
        <ele>940</ele>
        <time>2012-11-18T10:22:33Z</time>
      </trkpt>
      <trkpt lat="43.8829" lon="7.28929">
        <ele>940</ele>
        <time>2012-11-18T10:22:37Z</time>
      </trkpt>
      <trkpt lat="43.88292" lon="7.28927">
        <ele>941</ele>
        <time>2012-11-18T10:22:40Z</time>
      </trkpt>
      <trkpt lat="43.88295" lon="7.28926">
        <ele>941</ele>
        <time>2012-11-18T10:22:43Z</time>
      </trkpt>
      <trkpt lat="43.88299" lon="7.28926">
        <ele>942</ele>
        <time>2012-11-18T10:22:47Z</time>
      </trkpt>
      <trkpt lat="43.88304" lon="7.28927">
        <ele>943</ele>
        <time>2012-11-18T10:22:52Z</time>
      </trkpt>
      <trkpt lat="43.8831" lon="7.28927">
        <ele>944</ele>
        <time>2012-11-18T10:22:57Z</time>
      </trkpt>
      <trkpt lat="43.88315" lon="7.28928">
        <ele>946</ele>
        <time>2012-11-18T10:23:02Z</time>
      </trkpt>
      <trkpt lat="43.88319" lon="7.28929">
        <ele>947</ele>
        <time>2012-11-18T10:23:06Z</time>
      </trkpt>
      <trkpt lat="43.88322" lon="7.2893">
        <ele>947</ele>
        <time>2012-11-18T10:23:11Z</time>
      </trkpt>
      <trkpt lat="43.88325" lon="7.28932">
        <ele>947</ele>
        <time>2012-11-18T10:23:16Z</time>
      </trkpt>
      <trkpt lat="43.88327" lon="7.28933">
        <ele>947</ele>
        <time>2012-11-18T10:23:19Z</time>
      </trkpt>
      <trkpt lat="43.88329" lon="7.28933">
        <ele>948</ele>
        <time>2012-11-18T10:23:22Z</time>
      </trkpt>
      <trkpt lat="43.88333" lon="7.28933">
        <ele>948</ele>
        <time>2012-11-18T10:23:26Z</time>
      </trkpt>
      <trkpt lat="43.88336" lon="7.28934">
        <ele>958</ele>
        <time>2012-11-18T10:23:29Z</time>
      </trkpt>
      <trkpt lat="43.8834" lon="7.28936">
        <ele>957</ele>
        <time>2012-11-18T10:23:34Z</time>
      </trkpt>
      <trkpt lat="43.88344" lon="7.28938">
        <ele>957</ele>
        <time>2012-11-18T10:23:38Z</time>
      </trkpt>
      <trkpt lat="43.88347" lon="7.28939">
        <ele>957</ele>
        <time>2012-11-18T10:23:41Z</time>
      </trkpt>
      <trkpt lat="43.8835" lon="7.28941">
        <ele>957</ele>
        <time>2012-11-18T10:23:45Z</time>
      </trkpt>
      <trkpt lat="43.8835" lon="7.28942">
        <ele>956</ele>
        <time>2012-11-18T10:23:47Z</time>
      </trkpt>
      <trkpt lat="43.8835" lon="7.28942">
        <ele>956</ele>
        <time>2012-11-18T10:23:51Z</time>
      </trkpt>
      <trkpt lat="43.8835" lon="7.28942">
        <ele>956</ele>
        <time>2012-11-18T10:23:54Z</time>
      </trkpt>
      <trkpt lat="43.88352" lon="7.28944">
        <ele>956</ele>
        <time>2012-11-18T10:23:59Z</time>
      </trkpt>
      <trkpt lat="43.88355" lon="7.28946">
        <ele>956</ele>
        <time>2012-11-18T10:24:03Z</time>
      </trkpt>
      <trkpt lat="43.88359" lon="7.28947">
        <ele>956</ele>
        <time>2012-11-18T10:24:07Z</time>
      </trkpt>
      <trkpt lat="43.88361" lon="7.28947">
        <ele>956</ele>
        <time>2012-11-18T10:24:10Z</time>
      </trkpt>
      <trkpt lat="43.88365" lon="7.28947">
        <ele>957</ele>
        <time>2012-11-18T10:24:14Z</time>
      </trkpt>
      <trkpt lat="43.88368" lon="7.28948">
        <ele>957</ele>
        <time>2012-11-18T10:24:18Z</time>
      </trkpt>
      <trkpt lat="43.88373" lon="7.28949">
        <ele>958</ele>
        <time>2012-11-18T10:24:23Z</time>
      </trkpt>
      <trkpt lat="43.88378" lon="7.2895">
        <ele>959</ele>
        <time>2012-11-18T10:24:28Z</time>
      </trkpt>
      <trkpt lat="43.88382" lon="7.28951">
        <ele>959</ele>
        <time>2012-11-18T10:24:32Z</time>
      </trkpt>
      <trkpt lat="43.88385" lon="7.28952">
        <ele>960</ele>
        <time>2012-11-18T10:24:36Z</time>
      </trkpt>
      <trkpt lat="43.88389" lon="7.28954">
        <ele>960</ele>
        <time>2012-11-18T10:24:40Z</time>
      </trkpt>
      <trkpt lat="43.88392" lon="7.28956">
        <ele>960</ele>
        <time>2012-11-18T10:24:44Z</time>
      </trkpt>
      <trkpt lat="43.88395" lon="7.28959">
        <ele>960</ele>
        <time>2012-11-18T10:24:48Z</time>
      </trkpt>
      <trkpt lat="43.88399" lon="7.28963">
        <ele>959</ele>
        <time>2012-11-18T10:24:52Z</time>
      </trkpt>
      <trkpt lat="43.88404" lon="7.28966">
        <ele>959</ele>
        <time>2012-11-18T10:24:56Z</time>
      </trkpt>
      <trkpt lat="43.88407" lon="7.28968">
        <ele>958</ele>
        <time>2012-11-18T10:24:59Z</time>
      </trkpt>
      <trkpt lat="43.8841" lon="7.28969">
        <ele>958</ele>
        <time>2012-11-18T10:25:02Z</time>
      </trkpt>
      <trkpt lat="43.88416" lon="7.28969">
        <ele>959</ele>
        <time>2012-11-18T10:25:07Z</time>
      </trkpt>
      <trkpt lat="43.88419" lon="7.2897">
        <ele>976</ele>
        <time>2012-11-18T10:25:10Z</time>
      </trkpt>
      <trkpt lat="43.88422" lon="7.28973">
        <ele>975</ele>
        <time>2012-11-18T10:25:13Z</time>
      </trkpt>
      <trkpt lat="43.88425" lon="7.28978">
        <ele>973</ele>
        <time>2012-11-18T10:25:17Z</time>
      </trkpt>
      <trkpt lat="43.88427" lon="7.28981">
        <ele>972</ele>
        <time>2012-11-18T10:25:20Z</time>
      </trkpt>
      <trkpt lat="43.88433" lon="7.28986">
        <ele>972</ele>
        <time>2012-11-18T10:25:26Z</time>
      </trkpt>
      <trkpt lat="43.88437" lon="7.28989">
        <ele>972</ele>
        <time>2012-11-18T10:25:30Z</time>
      </trkpt>
      <trkpt lat="43.88441" lon="7.28992">
        <ele>973</ele>
        <time>2012-11-18T10:25:34Z</time>
      </trkpt>
      <trkpt lat="43.88444" lon="7.28994">
        <ele>974</ele>
        <time>2012-11-18T10:25:37Z</time>
      </trkpt>
      <trkpt lat="43.88447" lon="7.28999">
        <ele>975</ele>
        <time>2012-11-18T10:25:41Z</time>
      </trkpt>
      <trkpt lat="43.88451" lon="7.29003">
        <ele>956</ele>
        <time>2012-11-18T10:25:45Z</time>
      </trkpt>
      <trkpt lat="43.88455" lon="7.29006">
        <ele>957</ele>
        <time>2012-11-18T10:25:49Z</time>
      </trkpt>
      <trkpt lat="43.8846" lon="7.29008">
        <ele>958</ele>
        <time>2012-11-18T10:25:53Z</time>
      </trkpt>
      <trkpt lat="43.88463" lon="7.29008">
        <ele>959</ele>
        <time>2012-11-18T10:25:56Z</time>
      </trkpt>
      <trkpt lat="43.88467" lon="7.29007">
        <ele>960</ele>
        <time>2012-11-18T10:26:00Z</time>
      </trkpt>
      <trkpt lat="43.88471" lon="7.29008">
        <ele>961</ele>
        <time>2012-11-18T10:26:04Z</time>
      </trkpt>
      <trkpt lat="43.88475" lon="7.29009">
        <ele>963</ele>
        <time>2012-11-18T10:26:09Z</time>
      </trkpt>
      <trkpt lat="43.88479" lon="7.2901">
        <ele>964</ele>
        <time>2012-11-18T10:26:13Z</time>
      </trkpt>
      <trkpt lat="43.88483" lon="7.29012">
        <ele>965</ele>
        <time>2012-11-18T10:26:17Z</time>
      </trkpt>
      <trkpt lat="43.88486" lon="7.29014">
        <ele>966</ele>
        <time>2012-11-18T10:26:21Z</time>
      </trkpt>
      <trkpt lat="43.88489" lon="7.29015">
        <ele>966</ele>
        <time>2012-11-18T10:26:24Z</time>
      </trkpt>
      <trkpt lat="43.88493" lon="7.2902">
        <ele>965</ele>
        <time>2012-11-18T10:26:29Z</time>
      </trkpt>
      <trkpt lat="43.88496" lon="7.29023">
        <ele>964</ele>
        <time>2012-11-18T10:26:33Z</time>
      </trkpt>
      <trkpt lat="43.88497" lon="7.29025">
        <ele>963</ele>
        <time>2012-11-18T10:26:36Z</time>
      </trkpt>
      <trkpt lat="43.885" lon="7.29027">
        <ele>978</ele>
        <time>2012-11-18T10:26:40Z</time>
      </trkpt>
      <trkpt lat="43.88502" lon="7.29027">
        <ele>978</ele>
        <time>2012-11-18T10:26:43Z</time>
      </trkpt>
      <trkpt lat="43.88505" lon="7.29028">
        <ele>978</ele>
        <time>2012-11-18T10:26:47Z</time>
      </trkpt>
      <trkpt lat="43.88508" lon="7.29028">
        <ele>978</ele>
        <time>2012-11-18T10:26:51Z</time>
      </trkpt>
      <trkpt lat="43.8851" lon="7.2903">
        <ele>978</ele>
        <time>2012-11-18T10:26:55Z</time>
      </trkpt>
      <trkpt lat="43.88513" lon="7.29032">
        <ele>978</ele>
        <time>2012-11-18T10:26:59Z</time>
      </trkpt>
      <trkpt lat="43.88515" lon="7.29035">
        <ele>977</ele>
        <time>2012-11-18T10:27:03Z</time>
      </trkpt>
      <trkpt lat="43.88519" lon="7.29039">
        <ele>977</ele>
        <time>2012-11-18T10:27:07Z</time>
      </trkpt>
      <trkpt lat="43.88522" lon="7.29042">
        <ele>977</ele>
        <time>2012-11-18T10:27:10Z</time>
      </trkpt>
      <trkpt lat="43.88524" lon="7.29045">
        <ele>976</ele>
        <time>2012-11-18T10:27:13Z</time>
      </trkpt>
      <trkpt lat="43.88525" lon="7.2905">
        <ele>975</ele>
        <time>2012-11-18T10:27:17Z</time>
      </trkpt>
      <trkpt lat="43.88526" lon="7.29053">
        <ele>975</ele>
        <time>2012-11-18T10:27:20Z</time>
      </trkpt>
      <trkpt lat="43.88525" lon="7.29054">
        <ele>974</ele>
        <time>2012-11-18T10:27:24Z</time>
      </trkpt>
      <trkpt lat="43.88523" lon="7.29056">
        <ele>974</ele>
        <time>2012-11-18T10:27:28Z</time>
      </trkpt>
      <trkpt lat="43.88523" lon="7.29058">
        <ele>973</ele>
        <time>2012-11-18T10:27:31Z</time>
      </trkpt>
      <trkpt lat="43.88523" lon="7.29062">
        <ele>972</ele>
        <time>2012-11-18T10:27:35Z</time>
      </trkpt>
      <trkpt lat="43.88525" lon="7.29066">
        <ele>971</ele>
        <time>2012-11-18T10:27:38Z</time>
      </trkpt>
      <trkpt lat="43.88528" lon="7.2907">
        <ele>971</ele>
        <time>2012-11-18T10:27:41Z</time>
      </trkpt>
      <trkpt lat="43.88531" lon="7.29073">
        <ele>972</ele>
        <time>2012-11-18T10:27:44Z</time>
      </trkpt>
      <trkpt lat="43.88533" lon="7.29075">
        <ele>973</ele>
        <time>2012-11-18T10:27:47Z</time>
      </trkpt>
      <trkpt lat="43.88536" lon="7.29075">
        <ele>973</ele>
        <time>2012-11-18T10:27:50Z</time>
      </trkpt>
      <trkpt lat="43.88537" lon="7.29074">
        <ele>974</ele>
        <time>2012-11-18T10:27:52Z</time>
      </trkpt>
      <trkpt lat="43.88538" lon="7.29072">
        <ele>974</ele>
        <time>2012-11-18T10:27:55Z</time>
      </trkpt>
      <trkpt lat="43.88538" lon="7.2907">
        <ele>975</ele>
        <time>2012-11-18T10:27:58Z</time>
      </trkpt>
      <trkpt lat="43.88537" lon="7.29068">
        <ele>975</ele>
        <time>2012-11-18T10:28:02Z</time>
      </trkpt>
      <trkpt lat="43.88537" lon="7.29068">
        <ele>975</ele>
        <time>2012-11-18T10:28:05Z</time>
      </trkpt>
      <trkpt lat="43.88537" lon="7.29067">
        <ele>975</ele>
        <time>2012-11-18T10:28:09Z</time>
      </trkpt>
      <trkpt lat="43.88537" lon="7.29066">
        <ele>975</ele>
        <time>2012-11-18T10:28:12Z</time>
      </trkpt>
      <trkpt lat="43.88537" lon="7.29065">
        <ele>975</ele>
        <time>2012-11-18T10:28:16Z</time>
      </trkpt>
      <trkpt lat="43.88537" lon="7.29064">
        <ele>975</ele>
        <time>2012-11-18T10:28:19Z</time>
      </trkpt>
      <trkpt lat="43.88536" lon="7.29064">
        <ele>975</ele>
        <time>2012-11-18T10:28:23Z</time>
      </trkpt>
      <trkpt lat="43.88535" lon="7.29062">
        <ele>975</ele>
        <time>2012-11-18T10:28:28Z</time>
      </trkpt>
      <trkpt lat="43.88535" lon="7.29061">
        <ele>975</ele>
        <time>2012-11-18T10:28:32Z</time>
      </trkpt>
      <trkpt lat="43.88535" lon="7.29061">
        <ele>975</ele>
        <time>2012-11-18T10:28:35Z</time>
      </trkpt>
      <trkpt lat="43.88536" lon="7.29062">
        <ele>975</ele>
        <time>2012-11-18T10:28:38Z</time>
      </trkpt>
      <trkpt lat="43.88536" lon="7.29065">
        <ele>975</ele>
        <time>2012-11-18T10:28:42Z</time>
      </trkpt>
      <trkpt lat="43.88535" lon="7.29068">
        <ele>974</ele>
        <time>2012-11-18T10:28:45Z</time>
      </trkpt>
      <trkpt lat="43.88534" lon="7.2907">
        <ele>973</ele>
        <time>2012-11-18T10:28:48Z</time>
      </trkpt>
      <trkpt lat="43.88531" lon="7.29071">
        <ele>973</ele>
        <time>2012-11-18T10:28:51Z</time>
      </trkpt>
      <trkpt lat="43.88529" lon="7.2907">
        <ele>972</ele>
        <time>2012-11-18T10:28:54Z</time>
      </trkpt>
      <trkpt lat="43.88527" lon="7.29069">
        <ele>971</ele>
        <time>2012-11-18T10:28:57Z</time>
      </trkpt>
      <trkpt lat="43.88526" lon="7.29068">
        <ele>972</ele>
        <time>2012-11-18T10:29:00Z</time>
      </trkpt>
      <trkpt lat="43.88527" lon="7.29068">
        <ele>972</ele>
        <time>2012-11-18T10:29:03Z</time>
      </trkpt>
      <trkpt lat="43.88527" lon="7.29067">
        <ele>972</ele>
        <time>2012-11-18T10:29:06Z</time>
      </trkpt>
      <trkpt lat="43.88527" lon="7.29067">
        <ele>972</ele>
        <time>2012-11-18T10:29:11Z</time>
      </trkpt>
      <trkpt lat="43.88526" lon="7.29067">
        <ele>972</ele>
        <time>2012-11-18T10:29:15Z</time>
      </trkpt>
      <trkpt lat="43.88526" lon="7.29067">
        <ele>972</ele>
        <time>2012-11-18T10:29:19Z</time>
      </trkpt>
      <trkpt lat="43.88526" lon="7.29067">
        <ele>972</ele>
        <time>2012-11-18T10:29:22Z</time>
      </trkpt>
      <trkpt lat="43.88527" lon="7.29067">
        <ele>972</ele>
        <time>2012-11-18T10:29:26Z</time>
      </trkpt>
      <trkpt lat="43.88527" lon="7.29067">
        <ele>972</ele>
        <time>2012-11-18T10:29:29Z</time>
      </trkpt>
      <trkpt lat="43.88526" lon="7.29067">
        <ele>972</ele>
        <time>2012-11-18T10:29:32Z</time>
      </trkpt>
      <trkpt lat="43.88526" lon="7.29069">
        <ele>971</ele>
        <time>2012-11-18T10:29:35Z</time>
      </trkpt>
      <trkpt lat="43.88527" lon="7.29071">
        <ele>971</ele>
        <time>2012-11-18T10:29:39Z</time>
      </trkpt>
      <trkpt lat="43.88527" lon="7.29071">
        <ele>971</ele>
        <time>2012-11-18T10:29:42Z</time>
      </trkpt>
      <trkpt lat="43.88528" lon="7.29071">
        <ele>972</ele>
        <time>2012-11-18T10:29:47Z</time>
      </trkpt>
      <trkpt lat="43.88529" lon="7.29071">
        <ele>972</ele>
        <time>2012-11-18T10:29:50Z</time>
      </trkpt>
      <trkpt lat="43.88531" lon="7.29074">
        <ele>972</ele>
        <time>2012-11-18T10:29:53Z</time>
      </trkpt>
      <trkpt lat="43.88533" lon="7.29077">
        <ele>972</ele>
        <time>2012-11-18T10:29:57Z</time>
      </trkpt>
      <trkpt lat="43.88536" lon="7.29081">
        <ele>973</ele>
        <time>2012-11-18T10:30:01Z</time>
      </trkpt>
      <trkpt lat="43.88539" lon="7.29084">
        <ele>956</ele>
        <time>2012-11-18T10:30:05Z</time>
      </trkpt>
      <trkpt lat="43.88542" lon="7.29088">
        <ele>957</ele>
        <time>2012-11-18T10:30:10Z</time>
      </trkpt>
      <trkpt lat="43.88544" lon="7.29093">
        <ele>957</ele>
        <time>2012-11-18T10:30:15Z</time>
      </trkpt>
      <trkpt lat="43.88547" lon="7.29098">
        <ele>957</ele>
        <time>2012-11-18T10:30:20Z</time>
      </trkpt>
      <trkpt lat="43.8855" lon="7.29104">
        <ele>957</ele>
        <time>2012-11-18T10:30:26Z</time>
      </trkpt>
      <trkpt lat="43.88552" lon="7.29108">
        <ele>957</ele>
        <time>2012-11-18T10:30:30Z</time>
      </trkpt>
      <trkpt lat="43.88554" lon="7.29112">
        <ele>956</ele>
        <time>2012-11-18T10:30:34Z</time>
      </trkpt>
      <trkpt lat="43.88557" lon="7.29115">
        <ele>956</ele>
        <time>2012-11-18T10:30:38Z</time>
      </trkpt>
      <trkpt lat="43.8856" lon="7.2912">
        <ele>956</ele>
        <time>2012-11-18T10:30:43Z</time>
      </trkpt>
      <trkpt lat="43.88564" lon="7.29125">
        <ele>955</ele>
        <time>2012-11-18T10:30:48Z</time>
      </trkpt>
      <trkpt lat="43.88569" lon="7.2913">
        <ele>955</ele>
        <time>2012-11-18T10:30:54Z</time>
      </trkpt>
      <trkpt lat="43.88572" lon="7.29133">
        <ele>954</ele>
        <time>2012-11-18T10:30:57Z</time>
      </trkpt>
      <trkpt lat="43.88574" lon="7.29137">
        <ele>954</ele>
        <time>2012-11-18T10:31:01Z</time>
      </trkpt>
      <trkpt lat="43.88577" lon="7.2914">
        <ele>953</ele>
        <time>2012-11-18T10:31:04Z</time>
      </trkpt>
      <trkpt lat="43.88581" lon="7.29142">
        <ele>953</ele>
        <time>2012-11-18T10:31:08Z</time>
      </trkpt>
      <trkpt lat="43.88588" lon="7.29144">
        <ele>963</ele>
        <time>2012-11-18T10:31:14Z</time>
      </trkpt>
      <trkpt lat="43.88592" lon="7.29145">
        <ele>963</ele>
        <time>2012-11-18T10:31:18Z</time>
      </trkpt>
      <trkpt lat="43.88596" lon="7.29147">
        <ele>963</ele>
        <time>2012-11-18T10:31:22Z</time>
      </trkpt>
      <trkpt lat="43.886" lon="7.29149">
        <ele>963</ele>
        <time>2012-11-18T10:31:26Z</time>
      </trkpt>
      <trkpt lat="43.88605" lon="7.29152">
        <ele>963</ele>
        <time>2012-11-18T10:31:31Z</time>
      </trkpt>
      <trkpt lat="43.8861" lon="7.29154">
        <ele>964</ele>
        <time>2012-11-18T10:31:35Z</time>
      </trkpt>
      <trkpt lat="43.88615" lon="7.29156">
        <ele>964</ele>
        <time>2012-11-18T10:31:40Z</time>
      </trkpt>
      <trkpt lat="43.88621" lon="7.29158">
        <ele>965</ele>
        <time>2012-11-18T10:31:45Z</time>
      </trkpt>
      <trkpt lat="43.88626" lon="7.29159">
        <ele>965</ele>
        <time>2012-11-18T10:31:50Z</time>
      </trkpt>
      <trkpt lat="43.88631" lon="7.29161">
        <ele>966</ele>
        <time>2012-11-18T10:31:55Z</time>
      </trkpt>
      <trkpt lat="43.88636" lon="7.29163">
        <ele>966</ele>
        <time>2012-11-18T10:31:59Z</time>
      </trkpt>
      <trkpt lat="43.88641" lon="7.29165">
        <ele>966</ele>
        <time>2012-11-18T10:32:04Z</time>
      </trkpt>
      <trkpt lat="43.88645" lon="7.29167">
        <ele>953</ele>
        <time>2012-11-18T10:32:09Z</time>
      </trkpt>
      <trkpt lat="43.88652" lon="7.29171">
        <ele>955</ele>
        <time>2012-11-18T10:32:15Z</time>
      </trkpt>
      <trkpt lat="43.88657" lon="7.29174">
        <ele>956</ele>
        <time>2012-11-18T10:32:20Z</time>
      </trkpt>
      <trkpt lat="43.88662" lon="7.29177">
        <ele>956</ele>
        <time>2012-11-18T10:32:25Z</time>
      </trkpt>
      <trkpt lat="43.88666" lon="7.29179">
        <ele>956</ele>
        <time>2012-11-18T10:32:29Z</time>
      </trkpt>
      <trkpt lat="43.8867" lon="7.2918">
        <ele>954</ele>
        <time>2012-11-18T10:32:32Z</time>
      </trkpt>
      <trkpt lat="43.88673" lon="7.29183">
        <ele>953</ele>
        <time>2012-11-18T10:32:35Z</time>
      </trkpt>
      <trkpt lat="43.88676" lon="7.29187">
        <ele>951</ele>
        <time>2012-11-18T10:32:39Z</time>
      </trkpt>
      <trkpt lat="43.88679" lon="7.2919">
        <ele>949</ele>
        <time>2012-11-18T10:32:43Z</time>
      </trkpt>
      <trkpt lat="43.88682" lon="7.29193">
        <ele>948</ele>
        <time>2012-11-18T10:32:47Z</time>
      </trkpt>
      <trkpt lat="43.88686" lon="7.29195">
        <ele>947</ele>
        <time>2012-11-18T10:32:51Z</time>
      </trkpt>
      <trkpt lat="43.8869" lon="7.29196">
        <ele>946</ele>
        <time>2012-11-18T10:32:55Z</time>
      </trkpt>
      <trkpt lat="43.88695" lon="7.29197">
        <ele>945</ele>
        <time>2012-11-18T10:32:59Z</time>
      </trkpt>
      <trkpt lat="43.88698" lon="7.29197">
        <ele>945</ele>
        <time>2012-11-18T10:33:02Z</time>
      </trkpt>
      <trkpt lat="43.88703" lon="7.29195">
        <ele>944</ele>
        <time>2012-11-18T10:33:06Z</time>
      </trkpt>
      <trkpt lat="43.88706" lon="7.29193">
        <ele>944</ele>
        <time>2012-11-18T10:33:10Z</time>
      </trkpt>
      <trkpt lat="43.88709" lon="7.2919">
        <ele>944</ele>
        <time>2012-11-18T10:33:14Z</time>
      </trkpt>
      <trkpt lat="43.88712" lon="7.29187">
        <ele>944</ele>
        <time>2012-11-18T10:33:18Z</time>
      </trkpt>
      <trkpt lat="43.88714" lon="7.29185">
        <ele>943</ele>
        <time>2012-11-18T10:33:22Z</time>
      </trkpt>
      <trkpt lat="43.88716" lon="7.29183">
        <ele>943</ele>
        <time>2012-11-18T10:33:25Z</time>
      </trkpt>
      <trkpt lat="43.88717" lon="7.29182">
        <ele>943</ele>
        <time>2012-11-18T10:33:28Z</time>
      </trkpt>
      <trkpt lat="43.88718" lon="7.2918">
        <ele>943</ele>
        <time>2012-11-18T10:33:32Z</time>
      </trkpt>
      <trkpt lat="43.88719" lon="7.29178">
        <ele>943</ele>
        <time>2012-11-18T10:33:35Z</time>
      </trkpt>
      <trkpt lat="43.88721" lon="7.29173">
        <ele>943</ele>
        <time>2012-11-18T10:33:39Z</time>
      </trkpt>
      <trkpt lat="43.88723" lon="7.29168">
        <ele>943</ele>
        <time>2012-11-18T10:33:43Z</time>
      </trkpt>
      <trkpt lat="43.88724" lon="7.29165">
        <ele>950</ele>
        <time>2012-11-18T10:33:47Z</time>
      </trkpt>
      <trkpt lat="43.88725" lon="7.29163">
        <ele>950</ele>
        <time>2012-11-18T10:33:52Z</time>
      </trkpt>
      <trkpt lat="43.88725" lon="7.29161">
        <ele>950</ele>
        <time>2012-11-18T10:33:56Z</time>
      </trkpt>
      <trkpt lat="43.88726" lon="7.29158">
        <ele>950</ele>
        <time>2012-11-18T10:34:00Z</time>
      </trkpt>
      <trkpt lat="43.88726" lon="7.29154">
        <ele>950</ele>
        <time>2012-11-18T10:34:06Z</time>
      </trkpt>
      <trkpt lat="43.88726" lon="7.29151">
        <ele>950</ele>
        <time>2012-11-18T10:34:13Z</time>
      </trkpt>
      <trkpt lat="43.88726" lon="7.2915">
        <ele>950</ele>
        <time>2012-11-18T10:34:17Z</time>
      </trkpt>
      <trkpt lat="43.88726" lon="7.29149">
        <ele>950</ele>
        <time>2012-11-18T10:34:22Z</time>
      </trkpt>
      <trkpt lat="43.88726" lon="7.29148">
        <ele>950</ele>
        <time>2012-11-18T10:34:24Z</time>
      </trkpt>
      <trkpt lat="43.88727" lon="7.29149">
        <ele>950</ele>
        <time>2012-11-18T10:34:27Z</time>
      </trkpt>
      <trkpt lat="43.88727" lon="7.29152">
        <ele>950</ele>
        <time>2012-11-18T10:34:33Z</time>
      </trkpt>
      <trkpt lat="43.88727" lon="7.29153">
        <ele>950</ele>
        <time>2012-11-18T10:34:37Z</time>
      </trkpt>
      <trkpt lat="43.88727" lon="7.29153">
        <ele>950</ele>
        <time>2012-11-18T10:34:40Z</time>
      </trkpt>
      <trkpt lat="43.88727" lon="7.29153">
        <ele>950</ele>
        <time>2012-11-18T10:34:43Z</time>
      </trkpt>
      <trkpt lat="43.88727" lon="7.29152">
        <ele>950</ele>
        <time>2012-11-18T10:34:47Z</time>
      </trkpt>
      <trkpt lat="43.88727" lon="7.29151">
        <ele>950</ele>
        <time>2012-11-18T10:34:51Z</time>
      </trkpt>
      <trkpt lat="43.88727" lon="7.29151">
        <ele>950</ele>
        <time>2012-11-18T10:34:54Z</time>
      </trkpt>
      <trkpt lat="43.88727" lon="7.29151">
        <ele>950</ele>
        <time>2012-11-18T10:34:57Z</time>
      </trkpt>
      <trkpt lat="43.88727" lon="7.2915">
        <ele>950</ele>
        <time>2012-11-18T10:35:01Z</time>
      </trkpt>
      <trkpt lat="43.88727" lon="7.29149">
        <ele>950</ele>
        <time>2012-11-18T10:35:05Z</time>
      </trkpt>
      <trkpt lat="43.88727" lon="7.29149">
        <ele>950</ele>
        <time>2012-11-18T10:35:08Z</time>
      </trkpt>
      <trkpt lat="43.88727" lon="7.29149">
        <ele>950</ele>
        <time>2012-11-18T10:35:11Z</time>
      </trkpt>
      <trkpt lat="43.88727" lon="7.29148">
        <ele>950</ele>
        <time>2012-11-18T10:35:14Z</time>
      </trkpt>
      <trkpt lat="43.88728" lon="7.29148">
        <ele>950</ele>
        <time>2012-11-18T10:35:21Z</time>
      </trkpt>
      <trkpt lat="43.88728" lon="7.29146">
        <ele>950</ele>
        <time>2012-11-18T10:35:28Z</time>
      </trkpt>
      <trkpt lat="43.88728" lon="7.29143">
        <ele>951</ele>
        <time>2012-11-18T10:35:32Z</time>
      </trkpt>
      <trkpt lat="43.88728" lon="7.29138">
        <ele>951</ele>
        <time>2012-11-18T10:35:36Z</time>
      </trkpt>
      <trkpt lat="43.88729" lon="7.29132">
        <ele>951</ele>
        <time>2012-11-18T10:35:40Z</time>
      </trkpt>
      <trkpt lat="43.8873" lon="7.29126">
        <ele>951</ele>
        <time>2012-11-18T10:35:44Z</time>
      </trkpt>
      <trkpt lat="43.88733" lon="7.29117">
        <ele>951</ele>
        <time>2012-11-18T10:35:50Z</time>
      </trkpt>
      <trkpt lat="43.88733" lon="7.29113">
        <ele>950</ele>
        <time>2012-11-18T10:35:54Z</time>
      </trkpt>
      <trkpt lat="43.88734" lon="7.29109">
        <ele>950</ele>
        <time>2012-11-18T10:35:58Z</time>
      </trkpt>
      <trkpt lat="43.88734" lon="7.29105">
        <ele>949</ele>
        <time>2012-11-18T10:36:03Z</time>
      </trkpt>
      <trkpt lat="43.88734" lon="7.29103">
        <ele>949</ele>
        <time>2012-11-18T10:36:06Z</time>
      </trkpt>
      <trkpt lat="43.88733" lon="7.29099">
        <ele>949</ele>
        <time>2012-11-18T10:36:11Z</time>
      </trkpt>
      <trkpt lat="43.88733" lon="7.29095">
        <ele>948</ele>
        <time>2012-11-18T10:36:15Z</time>
      </trkpt>
      <trkpt lat="43.88733" lon="7.29083">
        <ele>948</ele>
        <time>2012-11-18T10:36:27Z</time>
      </trkpt>
      <trkpt lat="43.88733" lon="7.29079">
        <ele>949</ele>
        <time>2012-11-18T10:36:31Z</time>
      </trkpt>
      <trkpt lat="43.88733" lon="7.29075">
        <ele>949</ele>
        <time>2012-11-18T10:36:35Z</time>
      </trkpt>
      <trkpt lat="43.88733" lon="7.29069">
        <ele>950</ele>
        <time>2012-11-18T10:36:40Z</time>
      </trkpt>
      <trkpt lat="43.88732" lon="7.29063">
        <ele>952</ele>
        <time>2012-11-18T10:36:45Z</time>
      </trkpt>
      <trkpt lat="43.88731" lon="7.29057">
        <ele>953</ele>
        <time>2012-11-18T10:36:50Z</time>
      </trkpt>
      <trkpt lat="43.8873" lon="7.29051">
        <ele>954</ele>
        <time>2012-11-18T10:36:55Z</time>
      </trkpt>
      <trkpt lat="43.88728" lon="7.29044">
        <ele>954</ele>
        <time>2012-11-18T10:37:00Z</time>
      </trkpt>
      <trkpt lat="43.88727" lon="7.29038">
        <ele>954</ele>
        <time>2012-11-18T10:37:04Z</time>
      </trkpt>
      <trkpt lat="43.88727" lon="7.29033">
        <ele>954</ele>
        <time>2012-11-18T10:37:08Z</time>
      </trkpt>
      <trkpt lat="43.88727" lon="7.29028">
        <ele>954</ele>
        <time>2012-11-18T10:37:12Z</time>
      </trkpt>
      <trkpt lat="43.88727" lon="7.29019">
        <ele>952</ele>
        <time>2012-11-18T10:37:19Z</time>
      </trkpt>
      <trkpt lat="43.88727" lon="7.29013">
        <ele>951</ele>
        <time>2012-11-18T10:37:24Z</time>
      </trkpt>
      <trkpt lat="43.88727" lon="7.29008">
        <ele>950</ele>
        <time>2012-11-18T10:37:28Z</time>
      </trkpt>
      <trkpt lat="43.88727" lon="7.29003">
        <ele>950</ele>
        <time>2012-11-18T10:37:32Z</time>
      </trkpt>
      <trkpt lat="43.88726" lon="7.28999">
        <ele>952</ele>
        <time>2012-11-18T10:37:36Z</time>
      </trkpt>
      <trkpt lat="43.88726" lon="7.28995">
        <ele>953</ele>
        <time>2012-11-18T10:37:40Z</time>
      </trkpt>
      <trkpt lat="43.88726" lon="7.28992">
        <ele>953</ele>
        <time>2012-11-18T10:37:44Z</time>
      </trkpt>
      <trkpt lat="43.88726" lon="7.28988">
        <ele>954</ele>
        <time>2012-11-18T10:37:49Z</time>
      </trkpt>
      <trkpt lat="43.88727" lon="7.28984">
        <ele>954</ele>
        <time>2012-11-18T10:37:53Z</time>
      </trkpt>
      <trkpt lat="43.88727" lon="7.28982">
        <ele>955</ele>
        <time>2012-11-18T10:37:56Z</time>
      </trkpt>
      <trkpt lat="43.88728" lon="7.28977">
        <ele>955</ele>
        <time>2012-11-18T10:38:02Z</time>
      </trkpt>
      <trkpt lat="43.88729" lon="7.28973">
        <ele>956</ele>
        <time>2012-11-18T10:38:07Z</time>
      </trkpt>
      <trkpt lat="43.88729" lon="7.28969">
        <ele>956</ele>
        <time>2012-11-18T10:38:11Z</time>
      </trkpt>
      <trkpt lat="43.88729" lon="7.28965">
        <ele>957</ele>
        <time>2012-11-18T10:38:15Z</time>
      </trkpt>
      <trkpt lat="43.88729" lon="7.28957">
        <ele>958</ele>
        <time>2012-11-18T10:38:21Z</time>
      </trkpt>
      <trkpt lat="43.88729" lon="7.2895">
        <ele>958</ele>
        <time>2012-11-18T10:38:26Z</time>
      </trkpt>
      <trkpt lat="43.88728" lon="7.28943">
        <ele>957</ele>
        <time>2012-11-18T10:38:31Z</time>
      </trkpt>
      <trkpt lat="43.88728" lon="7.28935">
        <ele>957</ele>
        <time>2012-11-18T10:38:36Z</time>
      </trkpt>
      <trkpt lat="43.88727" lon="7.2893">
        <ele>956</ele>
        <time>2012-11-18T10:38:40Z</time>
      </trkpt>
      <trkpt lat="43.88726" lon="7.28925">
        <ele>956</ele>
        <time>2012-11-18T10:38:44Z</time>
      </trkpt>
      <trkpt lat="43.88725" lon="7.28922">
        <ele>956</ele>
        <time>2012-11-18T10:38:47Z</time>
      </trkpt>
      <trkpt lat="43.88725" lon="7.28917">
        <ele>957</ele>
        <time>2012-11-18T10:38:51Z</time>
      </trkpt>
      <trkpt lat="43.88724" lon="7.28912">
        <ele>965</ele>
        <time>2012-11-18T10:38:55Z</time>
      </trkpt>
      <trkpt lat="43.88724" lon="7.28909">
        <ele>966</ele>
        <time>2012-11-18T10:38:58Z</time>
      </trkpt>
      <trkpt lat="43.88725" lon="7.28906">
        <ele>966</ele>
        <time>2012-11-18T10:39:01Z</time>
      </trkpt>
      <trkpt lat="43.88727" lon="7.28906">
        <ele>965</ele>
        <time>2012-11-18T10:39:04Z</time>
      </trkpt>
      <trkpt lat="43.88731" lon="7.28907">
        <ele>962</ele>
        <time>2012-11-18T10:39:07Z</time>
      </trkpt>
      <trkpt lat="43.88736" lon="7.2891">
        <ele>956</ele>
        <time>2012-11-18T10:39:11Z</time>
      </trkpt>
      <trkpt lat="43.88741" lon="7.28913">
        <ele>949</ele>
        <time>2012-11-18T10:39:16Z</time>
      </trkpt>
      <trkpt lat="43.88745" lon="7.28915">
        <ele>944</ele>
        <time>2012-11-18T10:39:19Z</time>
      </trkpt>
      <trkpt lat="43.88749" lon="7.28916">
        <ele>937</ele>
        <time>2012-11-18T10:39:24Z</time>
      </trkpt>
      <trkpt lat="43.88749" lon="7.28917">
        <ele>936</ele>
        <time>2012-11-18T10:39:27Z</time>
      </trkpt>
      <trkpt lat="43.88751" lon="7.28917">
        <ele>935</ele>
        <time>2012-11-18T10:39:33Z</time>
      </trkpt>
      <trkpt lat="43.88755" lon="7.28916">
        <ele>935</ele>
        <time>2012-11-18T10:39:37Z</time>
      </trkpt>
      <trkpt lat="43.88757" lon="7.28915">
        <ele>935</ele>
        <time>2012-11-18T10:39:40Z</time>
      </trkpt>
      <trkpt lat="43.88761" lon="7.28914">
        <ele>934</ele>
        <time>2012-11-18T10:39:44Z</time>
      </trkpt>
      <trkpt lat="43.88764" lon="7.28911">
        <ele>934</ele>
        <time>2012-11-18T10:39:48Z</time>
      </trkpt>
      <trkpt lat="43.88767" lon="7.28908">
        <ele>934</ele>
        <time>2012-11-18T10:39:53Z</time>
      </trkpt>
      <trkpt lat="43.8877" lon="7.28906">
        <ele>934</ele>
        <time>2012-11-18T10:39:56Z</time>
      </trkpt>
      <trkpt lat="43.88774" lon="7.28904">
        <ele>933</ele>
        <time>2012-11-18T10:40:00Z</time>
      </trkpt>
      <trkpt lat="43.88776" lon="7.28902">
        <ele>933</ele>
        <time>2012-11-18T10:40:03Z</time>
      </trkpt>
      <trkpt lat="43.88777" lon="7.28899">
        <ele>933</ele>
        <time>2012-11-18T10:40:06Z</time>
      </trkpt>
      <trkpt lat="43.88777" lon="7.28896">
        <ele>933</ele>
        <time>2012-11-18T10:40:09Z</time>
      </trkpt>
      <trkpt lat="43.88777" lon="7.28891">
        <ele>934</ele>
        <time>2012-11-18T10:40:13Z</time>
      </trkpt>
      <trkpt lat="43.88777" lon="7.28889">
        <ele>934</ele>
        <time>2012-11-18T10:40:16Z</time>
      </trkpt>
      <trkpt lat="43.88777" lon="7.28887">
        <ele>935</ele>
        <time>2012-11-18T10:40:19Z</time>
      </trkpt>
      <trkpt lat="43.88776" lon="7.28885">
        <ele>935</ele>
        <time>2012-11-18T10:40:22Z</time>
      </trkpt>
      <trkpt lat="43.88776" lon="7.28883">
        <ele>936</ele>
        <time>2012-11-18T10:40:25Z</time>
      </trkpt>
      <trkpt lat="43.88776" lon="7.28881">
        <ele>936</ele>
        <time>2012-11-18T10:40:29Z</time>
      </trkpt>
      <trkpt lat="43.88776" lon="7.2888">
        <ele>936</ele>
        <time>2012-11-18T10:40:32Z</time>
      </trkpt>
      <trkpt lat="43.88776" lon="7.28877">
        <ele>937</ele>
        <time>2012-11-18T10:40:37Z</time>
      </trkpt>
      <trkpt lat="43.88774" lon="7.28874">
        <ele>938</ele>
        <time>2012-11-18T10:40:40Z</time>
      </trkpt>
      <trkpt lat="43.88772" lon="7.2887">
        <ele>939</ele>
        <time>2012-11-18T10:40:43Z</time>
      </trkpt>
      <trkpt lat="43.8877" lon="7.28867">
        <ele>940</ele>
        <time>2012-11-18T10:40:46Z</time>
      </trkpt>
      <trkpt lat="43.88768" lon="7.28863">
        <ele>941</ele>
        <time>2012-11-18T10:40:50Z</time>
      </trkpt>
      <trkpt lat="43.88766" lon="7.28858">
        <ele>944</ele>
        <time>2012-11-18T10:40:55Z</time>
      </trkpt>
      <trkpt lat="43.88763" lon="7.28853">
        <ele>946</ele>
        <time>2012-11-18T10:41:01Z</time>
      </trkpt>
      <trkpt lat="43.88762" lon="7.2885">
        <ele>948</ele>
        <time>2012-11-18T10:41:05Z</time>
      </trkpt>
      <trkpt lat="43.8876" lon="7.28848">
        <ele>949</ele>
        <time>2012-11-18T10:41:09Z</time>
      </trkpt>
      <trkpt lat="43.88759" lon="7.28845">
        <ele>951</ele>
        <time>2012-11-18T10:41:13Z</time>
      </trkpt>
      <trkpt lat="43.88759" lon="7.28842">
        <ele>953</ele>
        <time>2012-11-18T10:41:17Z</time>
      </trkpt>
      <trkpt lat="43.88758" lon="7.28839">
        <ele>955</ele>
        <time>2012-11-18T10:41:22Z</time>
      </trkpt>
      <trkpt lat="43.88757" lon="7.28835">
        <ele>957</ele>
        <time>2012-11-18T10:41:26Z</time>
      </trkpt>
      <trkpt lat="43.88757" lon="7.28832">
        <ele>966</ele>
        <time>2012-11-18T10:41:30Z</time>
      </trkpt>
      <trkpt lat="43.88757" lon="7.28829">
        <ele>966</ele>
        <time>2012-11-18T10:41:33Z</time>
      </trkpt>
      <trkpt lat="43.88759" lon="7.28828">
        <ele>967</ele>
        <time>2012-11-18T10:41:36Z</time>
      </trkpt>
      <trkpt lat="43.88762" lon="7.28827">
        <ele>967</ele>
        <time>2012-11-18T10:41:39Z</time>
      </trkpt>
      <trkpt lat="43.88766" lon="7.28827">
        <ele>967</ele>
        <time>2012-11-18T10:41:42Z</time>
      </trkpt>
      <trkpt lat="43.88772" lon="7.28829">
        <ele>967</ele>
        <time>2012-11-18T10:41:46Z</time>
      </trkpt>
      <trkpt lat="43.88776" lon="7.28831">
        <ele>967</ele>
        <time>2012-11-18T10:41:50Z</time>
      </trkpt>
      <trkpt lat="43.88779" lon="7.28832">
        <ele>966</ele>
        <time>2012-11-18T10:41:54Z</time>
      </trkpt>
      <trkpt lat="43.88783" lon="7.28834">
        <ele>943</ele>
        <time>2012-11-18T10:41:59Z</time>
      </trkpt>
      <trkpt lat="43.88786" lon="7.28836">
        <ele>942</ele>
        <time>2012-11-18T10:42:03Z</time>
      </trkpt>
      <trkpt lat="43.88789" lon="7.28837">
        <ele>941</ele>
        <time>2012-11-18T10:42:07Z</time>
      </trkpt>
      <trkpt lat="43.88794" lon="7.28838">
        <ele>940</ele>
        <time>2012-11-18T10:42:12Z</time>
      </trkpt>
      <trkpt lat="43.88798" lon="7.28838">
        <ele>940</ele>
        <time>2012-11-18T10:42:16Z</time>
      </trkpt>
      <trkpt lat="43.88801" lon="7.28837">
        <ele>939</ele>
        <time>2012-11-18T10:42:19Z</time>
      </trkpt>
      <trkpt lat="43.88804" lon="7.28835">
        <ele>939</ele>
        <time>2012-11-18T10:42:22Z</time>
      </trkpt>
      <trkpt lat="43.88806" lon="7.28833">
        <ele>960</ele>
        <time>2012-11-18T10:42:25Z</time>
      </trkpt>
      <trkpt lat="43.88809" lon="7.2883">
        <ele>959</ele>
        <time>2012-11-18T10:42:29Z</time>
      </trkpt>
      <trkpt lat="43.88812" lon="7.28828">
        <ele>959</ele>
        <time>2012-11-18T10:42:32Z</time>
      </trkpt>
      <trkpt lat="43.88815" lon="7.28827">
        <ele>957</ele>
        <time>2012-11-18T10:42:35Z</time>
      </trkpt>
      <trkpt lat="43.88819" lon="7.28827">
        <ele>955</ele>
        <time>2012-11-18T10:42:39Z</time>
      </trkpt>
      <trkpt lat="43.88823" lon="7.28826">
        <ele>953</ele>
        <time>2012-11-18T10:42:43Z</time>
      </trkpt>
      <trkpt lat="43.88826" lon="7.28826">
        <ele>951</ele>
        <time>2012-11-18T10:42:46Z</time>
      </trkpt>
      <trkpt lat="43.88831" lon="7.28827">
        <ele>948</ele>
        <time>2012-11-18T10:42:50Z</time>
      </trkpt>
      <trkpt lat="43.88835" lon="7.28827">
        <ele>944</ele>
        <time>2012-11-18T10:42:54Z</time>
      </trkpt>
      <trkpt lat="43.8884" lon="7.28827">
        <ele>946</ele>
        <time>2012-11-18T10:42:59Z</time>
      </trkpt>
      <trkpt lat="43.88845" lon="7.28827">
        <ele>948</ele>
        <time>2012-11-18T10:43:05Z</time>
      </trkpt>
      <trkpt lat="43.88847" lon="7.28826">
        <ele>949</ele>
        <time>2012-11-18T10:43:09Z</time>
      </trkpt>
      <trkpt lat="43.8885" lon="7.28826">
        <ele>950</ele>
        <time>2012-11-18T10:43:14Z</time>
      </trkpt>
      <trkpt lat="43.88851" lon="7.28825">
        <ele>950</ele>
        <time>2012-11-18T10:43:17Z</time>
      </trkpt>
      <trkpt lat="43.88851" lon="7.28824">
        <ele>950</ele>
        <time>2012-11-18T10:43:21Z</time>
      </trkpt>
      <trkpt lat="43.88852" lon="7.28823">
        <ele>951</ele>
        <time>2012-11-18T10:43:26Z</time>
      </trkpt>
      <trkpt lat="43.88853" lon="7.28823">
        <ele>951</ele>
        <time>2012-11-18T10:43:29Z</time>
      </trkpt>
      <trkpt lat="43.88853" lon="7.28822">
        <ele>951</ele>
        <time>2012-11-18T10:43:31Z</time>
      </trkpt>
      <trkpt lat="43.88853" lon="7.28822">
        <ele>951</ele>
        <time>2012-11-18T10:43:34Z</time>
      </trkpt>
      <trkpt lat="43.88852" lon="7.28821">
        <ele>951</ele>
        <time>2012-11-18T10:43:38Z</time>
      </trkpt>
      <trkpt lat="43.88852" lon="7.2882">
        <ele>952</ele>
        <time>2012-11-18T10:43:41Z</time>
      </trkpt>
      <trkpt lat="43.88853" lon="7.2882">
        <ele>952</ele>
        <time>2012-11-18T10:43:45Z</time>
      </trkpt>
      <trkpt lat="43.88855" lon="7.28821">
        <ele>952</ele>
        <time>2012-11-18T10:43:48Z</time>
      </trkpt>
      <trkpt lat="43.88856" lon="7.28822">
        <ele>952</ele>
        <time>2012-11-18T10:43:55Z</time>
      </trkpt>
      <trkpt lat="43.88858" lon="7.28823">
        <ele>952</ele>
        <time>2012-11-18T10:44:03Z</time>
      </trkpt>
      <trkpt lat="43.88858" lon="7.28823">
        <ele>952</ele>
        <time>2012-11-18T10:44:08Z</time>
      </trkpt>
      <trkpt lat="43.88857" lon="7.28823">
        <ele>952</ele>
        <time>2012-11-18T10:44:12Z</time>
      </trkpt>
      <trkpt lat="43.88856" lon="7.28823">
        <ele>952</ele>
        <time>2012-11-18T10:44:15Z</time>
      </trkpt>
      <trkpt lat="43.88855" lon="7.28823">
        <ele>951</ele>
        <time>2012-11-18T10:44:21Z</time>
      </trkpt>
      <trkpt lat="43.88855" lon="7.28823">
        <ele>951</ele>
        <time>2012-11-18T10:44:24Z</time>
      </trkpt>
      <trkpt lat="43.88854" lon="7.28824">
        <ele>951</ele>
        <time>2012-11-18T10:44:30Z</time>
      </trkpt>
      <trkpt lat="43.88853" lon="7.28825">
        <ele>951</ele>
        <time>2012-11-18T10:44:33Z</time>
      </trkpt>
      <trkpt lat="43.88852" lon="7.28827">
        <ele>950</ele>
        <time>2012-11-18T10:44:36Z</time>
      </trkpt>
      <trkpt lat="43.88849" lon="7.28824">
        <ele>950</ele>
        <time>2012-11-18T10:44:44Z</time>
      </trkpt>
      <trkpt lat="43.88848" lon="7.28823">
        <ele>950</ele>
        <time>2012-11-18T10:44:47Z</time>
      </trkpt>
      <trkpt lat="43.88848" lon="7.28823">
        <ele>950</ele>
        <time>2012-11-18T10:44:50Z</time>
      </trkpt>
      <trkpt lat="43.88848" lon="7.28824">
        <ele>950</ele>
        <time>2012-11-18T10:44:57Z</time>
      </trkpt>
      <trkpt lat="43.88848" lon="7.28823">
        <ele>950</ele>
        <time>2012-11-18T10:45:00Z</time>
      </trkpt>
      <trkpt lat="43.88848" lon="7.28822">
        <ele>950</ele>
        <time>2012-11-18T10:45:03Z</time>
      </trkpt>
      <trkpt lat="43.88851" lon="7.28823">
        <ele>951</ele>
        <time>2012-11-18T10:45:11Z</time>
      </trkpt>
      <trkpt lat="43.88852" lon="7.28823">
        <ele>951</ele>
        <time>2012-11-18T10:45:14Z</time>
      </trkpt>
      <trkpt lat="43.88853" lon="7.28824">
        <ele>951</ele>
        <time>2012-11-18T10:45:18Z</time>
      </trkpt>
      <trkpt lat="43.88854" lon="7.28824">
        <ele>951</ele>
        <time>2012-11-18T10:45:22Z</time>
      </trkpt>
      <trkpt lat="43.88854" lon="7.28823">
        <ele>951</ele>
        <time>2012-11-18T10:45:25Z</time>
      </trkpt>
      <trkpt lat="43.88855" lon="7.28824">
        <ele>951</ele>
        <time>2012-11-18T10:45:30Z</time>
      </trkpt>
      <trkpt lat="43.88855" lon="7.28824">
        <ele>951</ele>
        <time>2012-11-18T10:45:32Z</time>
      </trkpt>
      <trkpt lat="43.88854" lon="7.28823">
        <ele>951</ele>
        <time>2012-11-18T10:45:36Z</time>
      </trkpt>
      <trkpt lat="43.88851" lon="7.28821">
        <ele>951</ele>
        <time>2012-11-18T10:45:41Z</time>
      </trkpt>
      <trkpt lat="43.88851" lon="7.28821">
        <ele>951</ele>
        <time>2012-11-18T10:45:44Z</time>
      </trkpt>
      <trkpt lat="43.88851" lon="7.28821">
        <ele>951</ele>
        <time>2012-11-18T10:45:47Z</time>
      </trkpt>
      <trkpt lat="43.88851" lon="7.28822">
        <ele>951</ele>
        <time>2012-11-18T10:45:50Z</time>
      </trkpt>
      <trkpt lat="43.88852" lon="7.28824">
        <ele>951</ele>
        <time>2012-11-18T10:45:56Z</time>
      </trkpt>
      <trkpt lat="43.88852" lon="7.28824">
        <ele>951</ele>
        <time>2012-11-18T10:45:58Z</time>
      </trkpt>
      <trkpt lat="43.88852" lon="7.28824">
        <ele>950</ele>
        <time>2012-11-18T10:46:02Z</time>
      </trkpt>
      <trkpt lat="43.88851" lon="7.28826">
        <ele>950</ele>
        <time>2012-11-18T10:46:07Z</time>
      </trkpt>
      <trkpt lat="43.88851" lon="7.28827">
        <ele>950</ele>
        <time>2012-11-18T10:46:10Z</time>
      </trkpt>
      <trkpt lat="43.88851" lon="7.28828">
        <ele>949</ele>
        <time>2012-11-18T10:46:14Z</time>
      </trkpt>
      <trkpt lat="43.88851" lon="7.28828">
        <ele>949</ele>
        <time>2012-11-18T10:46:18Z</time>
      </trkpt>
      <trkpt lat="43.88851" lon="7.28829">
        <ele>949</ele>
        <time>2012-11-18T10:46:22Z</time>
      </trkpt>
      <trkpt lat="43.88851" lon="7.28829">
        <ele>949</ele>
        <time>2012-11-18T10:46:25Z</time>
      </trkpt>
      <trkpt lat="43.88852" lon="7.28829">
        <ele>950</ele>
        <time>2012-11-18T10:46:31Z</time>
      </trkpt>
      <trkpt lat="43.88853" lon="7.2883">
        <ele>950</ele>
        <time>2012-11-18T10:46:35Z</time>
      </trkpt>
      <trkpt lat="43.88854" lon="7.28831">
        <ele>950</ele>
        <time>2012-11-18T10:46:40Z</time>
      </trkpt>
      <trkpt lat="43.88855" lon="7.28831">
        <ele>950</ele>
        <time>2012-11-18T10:46:44Z</time>
      </trkpt>
      <trkpt lat="43.88856" lon="7.28832">
        <ele>950</ele>
        <time>2012-11-18T10:46:47Z</time>
      </trkpt>
      <trkpt lat="43.88857" lon="7.28832">
        <ele>950</ele>
        <time>2012-11-18T10:46:50Z</time>
      </trkpt>
      <trkpt lat="43.88857" lon="7.28833">
        <ele>950</ele>
        <time>2012-11-18T10:46:53Z</time>
      </trkpt>
      <trkpt lat="43.88857" lon="7.28834">
        <ele>929</ele>
        <time>2012-11-18T10:46:55Z</time>
      </trkpt>
      <trkpt lat="43.88857" lon="7.28832">
        <ele>950</ele>
        <time>2012-11-18T10:47:00Z</time>
      </trkpt>
      <trkpt lat="43.88856" lon="7.28831">
        <ele>950</ele>
        <time>2012-11-18T10:47:04Z</time>
      </trkpt>
      <trkpt lat="43.88854" lon="7.2883">
        <ele>950</ele>
        <time>2012-11-18T10:47:10Z</time>
      </trkpt>
      <trkpt lat="43.88853" lon="7.28829">
        <ele>950</ele>
        <time>2012-11-18T10:47:13Z</time>
      </trkpt>
      <trkpt lat="43.88853" lon="7.28827">
        <ele>950</ele>
        <time>2012-11-18T10:47:19Z</time>
      </trkpt>
      <trkpt lat="43.88853" lon="7.28826">
        <ele>950</ele>
        <time>2012-11-18T10:47:23Z</time>
      </trkpt>
      <trkpt lat="43.88853" lon="7.28826">
        <ele>950</ele>
        <time>2012-11-18T10:47:29Z</time>
      </trkpt>
      <trkpt lat="43.88853" lon="7.28826">
        <ele>950</ele>
        <time>2012-11-18T10:47:32Z</time>
      </trkpt>
      <trkpt lat="43.88853" lon="7.28827">
        <ele>950</ele>
        <time>2012-11-18T10:47:35Z</time>
      </trkpt>
      <trkpt lat="43.88853" lon="7.28827">
        <ele>950</ele>
        <time>2012-11-18T10:47:39Z</time>
      </trkpt>
      <trkpt lat="43.88854" lon="7.28827">
        <ele>950</ele>
        <time>2012-11-18T10:47:42Z</time>
      </trkpt>
      <trkpt lat="43.88854" lon="7.28828">
        <ele>950</ele>
        <time>2012-11-18T10:47:46Z</time>
      </trkpt>
      <trkpt lat="43.88854" lon="7.28828">
        <ele>950</ele>
        <time>2012-11-18T10:47:48Z</time>
      </trkpt>
      <trkpt lat="43.88854" lon="7.28828">
        <ele>950</ele>
        <time>2012-11-18T10:47:54Z</time>
      </trkpt>
      <trkpt lat="43.88854" lon="7.28828">
        <ele>950</ele>
        <time>2012-11-18T10:47:58Z</time>
      </trkpt>
      <trkpt lat="43.88855" lon="7.28828">
        <ele>950</ele>
        <time>2012-11-18T10:48:01Z</time>
      </trkpt>
      <trkpt lat="43.88855" lon="7.28828">
        <ele>950</ele>
        <time>2012-11-18T10:48:04Z</time>
      </trkpt>
      <trkpt lat="43.88855" lon="7.28829">
        <ele>950</ele>
        <time>2012-11-18T10:48:08Z</time>
      </trkpt>
      <trkpt lat="43.88855" lon="7.28829">
        <ele>950</ele>
        <time>2012-11-18T10:48:11Z</time>
      </trkpt>
      <trkpt lat="43.88855" lon="7.28828">
        <ele>950</ele>
        <time>2012-11-18T10:48:14Z</time>
      </trkpt>
      <trkpt lat="43.88855" lon="7.28827">
        <ele>951</ele>
        <time>2012-11-18T10:48:17Z</time>
      </trkpt>
      <trkpt lat="43.88854" lon="7.28826">
        <ele>951</ele>
        <time>2012-11-18T10:48:21Z</time>
      </trkpt>
      <trkpt lat="43.88854" lon="7.28825">
        <ele>951</ele>
        <time>2012-11-18T10:48:24Z</time>
      </trkpt>
      <trkpt lat="43.88854" lon="7.28822">
        <ele>951</ele>
        <time>2012-11-18T10:48:31Z</time>
      </trkpt>
      <trkpt lat="43.88853" lon="7.2882">
        <ele>952</ele>
        <time>2012-11-18T10:48:37Z</time>
      </trkpt>
      <trkpt lat="43.88854" lon="7.28821">
        <ele>952</ele>
        <time>2012-11-18T10:48:40Z</time>
      </trkpt>
      <trkpt lat="43.88854" lon="7.28822">
        <ele>952</ele>
        <time>2012-11-18T10:48:42Z</time>
      </trkpt>
      <trkpt lat="43.88855" lon="7.28821">
        <ele>952</ele>
        <time>2012-11-18T10:48:50Z</time>
      </trkpt>
      <trkpt lat="43.88855" lon="7.28822">
        <ele>952</ele>
        <time>2012-11-18T10:48:54Z</time>
      </trkpt>
      <trkpt lat="43.88854" lon="7.28823">
        <ele>951</ele>
        <time>2012-11-18T10:48:59Z</time>
      </trkpt>
      <trkpt lat="43.88854" lon="7.28823">
        <ele>951</ele>
        <time>2012-11-18T10:49:02Z</time>
      </trkpt>
      <trkpt lat="43.88853" lon="7.28823">
        <ele>951</ele>
        <time>2012-11-18T10:49:06Z</time>
      </trkpt>
      <trkpt lat="43.8885" lon="7.28825">
        <ele>950</ele>
        <time>2012-11-18T10:49:13Z</time>
      </trkpt>
      <trkpt lat="43.88849" lon="7.28825">
        <ele>950</ele>
        <time>2012-11-18T10:49:17Z</time>
      </trkpt>
      <trkpt lat="43.88848" lon="7.28825">
        <ele>949</ele>
        <time>2012-11-18T10:49:24Z</time>
      </trkpt>
      <trkpt lat="43.88848" lon="7.28826">
        <ele>949</ele>
        <time>2012-11-18T10:49:27Z</time>
      </trkpt>
      <trkpt lat="43.88848" lon="7.28826">
        <ele>949</ele>
        <time>2012-11-18T10:49:33Z</time>
      </trkpt>
      <trkpt lat="43.88849" lon="7.28826">
        <ele>949</ele>
        <time>2012-11-18T10:49:37Z</time>
      </trkpt>
      <trkpt lat="43.88849" lon="7.28827">
        <ele>949</ele>
        <time>2012-11-18T10:49:41Z</time>
      </trkpt>
      <trkpt lat="43.88849" lon="7.28826">
        <ele>949</ele>
        <time>2012-11-18T10:49:44Z</time>
      </trkpt>
      <trkpt lat="43.88851" lon="7.28826">
        <ele>950</ele>
        <time>2012-11-18T10:49:52Z</time>
      </trkpt>
      <trkpt lat="43.88851" lon="7.28825">
        <ele>950</ele>
        <time>2012-11-18T10:49:56Z</time>
      </trkpt>
      <trkpt lat="43.88852" lon="7.28825">
        <ele>950</ele>
        <time>2012-11-18T10:49:58Z</time>
      </trkpt>
      <trkpt lat="43.88851" lon="7.28826">
        <ele>950</ele>
        <time>2012-11-18T10:50:02Z</time>
      </trkpt>
      <trkpt lat="43.88851" lon="7.28826">
        <ele>950</ele>
        <time>2012-11-18T10:50:07Z</time>
      </trkpt>
      <trkpt lat="43.8885" lon="7.28826">
        <ele>950</ele>
        <time>2012-11-18T10:50:11Z</time>
      </trkpt>
      <trkpt lat="43.88849" lon="7.28826">
        <ele>949</ele>
        <time>2012-11-18T10:50:14Z</time>
      </trkpt>
      <trkpt lat="43.8885" lon="7.28826">
        <ele>949</ele>
        <time>2012-11-18T10:50:18Z</time>
      </trkpt>
      <trkpt lat="43.8885" lon="7.28826">
        <ele>950</ele>
        <time>2012-11-18T10:50:22Z</time>
      </trkpt>
      <trkpt lat="43.8885" lon="7.28826">
        <ele>950</ele>
        <time>2012-11-18T10:50:27Z</time>
      </trkpt>
      <trkpt lat="43.88851" lon="7.28826">
        <ele>950</ele>
        <time>2012-11-18T10:50:32Z</time>
      </trkpt>
      <trkpt lat="43.88852" lon="7.28825">
        <ele>950</ele>
        <time>2012-11-18T10:50:36Z</time>
      </trkpt>
      <trkpt lat="43.88851" lon="7.28825">
        <ele>950</ele>
        <time>2012-11-18T10:50:41Z</time>
      </trkpt>
      <trkpt lat="43.88851" lon="7.28825">
        <ele>950</ele>
        <time>2012-11-18T10:50:46Z</time>
      </trkpt>
      <trkpt lat="43.88851" lon="7.28824">
        <ele>950</ele>
        <time>2012-11-18T10:50:51Z</time>
      </trkpt>
      <trkpt lat="43.88851" lon="7.28824">
        <ele>950</ele>
        <time>2012-11-18T10:50:55Z</time>
      </trkpt>
      <trkpt lat="43.88852" lon="7.28825">
        <ele>950</ele>
        <time>2012-11-18T10:50:58Z</time>
      </trkpt>
      <trkpt lat="43.88852" lon="7.28826">
        <ele>950</ele>
        <time>2012-11-18T10:51:01Z</time>
      </trkpt>
      <trkpt lat="43.88851" lon="7.28826">
        <ele>950</ele>
        <time>2012-11-18T10:51:04Z</time>
      </trkpt>
      <trkpt lat="43.8885" lon="7.28827">
        <ele>949</ele>
        <time>2012-11-18T10:51:07Z</time>
      </trkpt>
      <trkpt lat="43.88849" lon="7.28828">
        <ele>949</ele>
        <time>2012-11-18T10:51:10Z</time>
      </trkpt>
      <trkpt lat="43.88849" lon="7.28829">
        <ele>949</ele>
        <time>2012-11-18T10:51:13Z</time>
      </trkpt>
      <trkpt lat="43.88849" lon="7.2883">
        <ele>949</ele>
        <time>2012-11-18T10:51:17Z</time>
      </trkpt>
      <trkpt lat="43.88849" lon="7.28831">
        <ele>949</ele>
        <time>2012-11-18T10:51:20Z</time>
      </trkpt>
      <trkpt lat="43.88849" lon="7.28831">
        <ele>948</ele>
        <time>2012-11-18T10:51:23Z</time>
      </trkpt>
      <trkpt lat="43.8885" lon="7.28832">
        <ele>949</ele>
        <time>2012-11-18T10:51:27Z</time>
      </trkpt>
      <trkpt lat="43.8885" lon="7.28832">
        <ele>949</ele>
        <time>2012-11-18T10:51:30Z</time>
      </trkpt>
      <trkpt lat="43.88849" lon="7.28832">
        <ele>948</ele>
        <time>2012-11-18T10:51:34Z</time>
      </trkpt>
      <trkpt lat="43.88848" lon="7.28832">
        <ele>948</ele>
        <time>2012-11-18T10:51:40Z</time>
      </trkpt>
      <trkpt lat="43.88848" lon="7.28832">
        <ele>948</ele>
        <time>2012-11-18T10:51:43Z</time>
      </trkpt>
      <trkpt lat="43.88848" lon="7.28832">
        <ele>948</ele>
        <time>2012-11-18T10:51:47Z</time>
      </trkpt>
      <trkpt lat="43.88848" lon="7.28832">
        <ele>948</ele>
        <time>2012-11-18T10:51:51Z</time>
      </trkpt>
      <trkpt lat="43.88847" lon="7.28832">
        <ele>948</ele>
        <time>2012-11-18T10:51:55Z</time>
      </trkpt>
      <trkpt lat="43.88846" lon="7.28832">
        <ele>947</ele>
        <time>2012-11-18T10:51:59Z</time>
      </trkpt>
      <trkpt lat="43.88845" lon="7.28831">
        <ele>947</ele>
        <time>2012-11-18T10:52:03Z</time>
      </trkpt>
      <trkpt lat="43.88845" lon="7.28831">
        <ele>947</ele>
        <time>2012-11-18T10:52:06Z</time>
      </trkpt>
      <trkpt lat="43.88845" lon="7.28831">
        <ele>947</ele>
        <time>2012-11-18T10:52:10Z</time>
      </trkpt>
      <trkpt lat="43.88845" lon="7.2883">
        <ele>947</ele>
        <time>2012-11-18T10:52:16Z</time>
      </trkpt>
      <trkpt lat="43.88845" lon="7.2883">
        <ele>947</ele>
        <time>2012-11-18T10:52:19Z</time>
      </trkpt>
      <trkpt lat="43.88846" lon="7.28829">
        <ele>948</ele>
        <time>2012-11-18T10:52:25Z</time>
      </trkpt>
      <trkpt lat="43.88846" lon="7.28829">
        <ele>948</ele>
        <time>2012-11-18T10:52:29Z</time>
      </trkpt>
      <trkpt lat="43.88847" lon="7.28829">
        <ele>948</ele>
        <time>2012-11-18T10:52:34Z</time>
      </trkpt>
      <trkpt lat="43.88848" lon="7.28829">
        <ele>948</ele>
        <time>2012-11-18T10:52:38Z</time>
      </trkpt>
      <trkpt lat="43.88848" lon="7.28829">
        <ele>949</ele>
        <time>2012-11-18T10:52:42Z</time>
      </trkpt>
      <trkpt lat="43.88849" lon="7.28829">
        <ele>949</ele>
        <time>2012-11-18T10:52:45Z</time>
      </trkpt>
      <trkpt lat="43.88848" lon="7.28828">
        <ele>949</ele>
        <time>2012-11-18T10:52:49Z</time>
      </trkpt>
      <trkpt lat="43.88848" lon="7.28828">
        <ele>949</ele>
        <time>2012-11-18T10:52:54Z</time>
      </trkpt>
      <trkpt lat="43.88848" lon="7.28827">
        <ele>949</ele>
        <time>2012-11-18T10:52:57Z</time>
      </trkpt>
      <trkpt lat="43.88848" lon="7.28827">
        <ele>949</ele>
        <time>2012-11-18T10:53:00Z</time>
      </trkpt>
      <trkpt lat="43.88849" lon="7.28827">
        <ele>949</ele>
        <time>2012-11-18T10:53:09Z</time>
      </trkpt>
      <trkpt lat="43.8885" lon="7.28827">
        <ele>949</ele>
        <time>2012-11-18T10:53:16Z</time>
      </trkpt>
      <trkpt lat="43.88851" lon="7.28828">
        <ele>950</ele>
        <time>2012-11-18T10:53:20Z</time>
      </trkpt>
      <trkpt lat="43.88852" lon="7.28828">
        <ele>950</ele>
        <time>2012-11-18T10:53:23Z</time>
      </trkpt>
      <trkpt lat="43.88853" lon="7.28829">
        <ele>950</ele>
        <time>2012-11-18T10:53:29Z</time>
      </trkpt>
      <trkpt lat="43.88853" lon="7.2883">
        <ele>950</ele>
        <time>2012-11-18T10:53:32Z</time>
      </trkpt>
      <trkpt lat="43.88854" lon="7.28832">
        <ele>950</ele>
        <time>2012-11-18T10:53:38Z</time>
      </trkpt>
      <trkpt lat="43.88854" lon="7.28833">
        <ele>950</ele>
        <time>2012-11-18T10:53:41Z</time>
      </trkpt>
      <trkpt lat="43.88854" lon="7.28834">
        <ele>930</ele>
        <time>2012-11-18T10:53:44Z</time>
      </trkpt>
      <trkpt lat="43.88854" lon="7.28838">
        <ele>930</ele>
        <time>2012-11-18T10:53:52Z</time>
      </trkpt>
      <trkpt lat="43.88854" lon="7.28839">
        <ele>929</ele>
        <time>2012-11-18T10:53:56Z</time>
      </trkpt>
      <trkpt lat="43.88853" lon="7.2884">
        <ele>929</ele>
        <time>2012-11-18T10:54:04Z</time>
      </trkpt>
      <trkpt lat="43.88852" lon="7.28841">
        <ele>930</ele>
        <time>2012-11-18T10:54:11Z</time>
      </trkpt>
      <trkpt lat="43.88851" lon="7.2884">
        <ele>930</ele>
        <time>2012-11-18T10:54:16Z</time>
      </trkpt>
      <trkpt lat="43.8885" lon="7.2884">
        <ele>930</ele>
        <time>2012-11-18T10:54:20Z</time>
      </trkpt>
      <trkpt lat="43.8885" lon="7.28841">
        <ele>930</ele>
        <time>2012-11-18T10:54:23Z</time>
      </trkpt>
      <trkpt lat="43.8885" lon="7.28841">
        <ele>930</ele>
        <time>2012-11-18T10:54:26Z</time>
      </trkpt>
      <trkpt lat="43.88851" lon="7.28842">
        <ele>930</ele>
        <time>2012-11-18T10:54:29Z</time>
      </trkpt>
      <trkpt lat="43.88853" lon="7.28842">
        <ele>929</ele>
        <time>2012-11-18T10:54:32Z</time>
      </trkpt>
      <trkpt lat="43.88857" lon="7.28838">
        <ele>929</ele>
        <time>2012-11-18T10:54:37Z</time>
      </trkpt>
      <trkpt lat="43.88861" lon="7.28835">
        <ele>928</ele>
        <time>2012-11-18T10:54:41Z</time>
      </trkpt>
      <trkpt lat="43.88866" lon="7.28833">
        <ele>928</ele>
        <time>2012-11-18T10:54:45Z</time>
      </trkpt>
      <trkpt lat="43.8887" lon="7.28832">
        <ele>952</ele>
        <time>2012-11-18T10:54:49Z</time>
      </trkpt>
      <trkpt lat="43.88876" lon="7.28832">
        <ele>952</ele>
        <time>2012-11-18T10:54:54Z</time>
      </trkpt>
      <trkpt lat="43.88882" lon="7.28831">
        <ele>952</ele>
        <time>2012-11-18T10:54:58Z</time>
      </trkpt>
      <trkpt lat="43.88887" lon="7.28832">
        <ele>951</ele>
        <time>2012-11-18T10:55:02Z</time>
      </trkpt>
      <trkpt lat="43.88891" lon="7.28833">
        <ele>951</ele>
        <time>2012-11-18T10:55:06Z</time>
      </trkpt>
      <trkpt lat="43.88895" lon="7.28834">
        <ele>930</ele>
        <time>2012-11-18T10:55:10Z</time>
      </trkpt>
      <trkpt lat="43.88899" lon="7.28836">
        <ele>931</ele>
        <time>2012-11-18T10:55:15Z</time>
      </trkpt>
      <trkpt lat="43.88902" lon="7.28836">
        <ele>932</ele>
        <time>2012-11-18T10:55:19Z</time>
      </trkpt>
      <trkpt lat="43.88906" lon="7.28837">
        <ele>933</ele>
        <time>2012-11-18T10:55:24Z</time>
      </trkpt>
      <trkpt lat="43.8891" lon="7.28838">
        <ele>935</ele>
        <time>2012-11-18T10:55:29Z</time>
      </trkpt>
      <trkpt lat="43.88914" lon="7.28839">
        <ele>936</ele>
        <time>2012-11-18T10:55:33Z</time>
      </trkpt>
      <trkpt lat="43.88917" lon="7.28839">
        <ele>934</ele>
        <time>2012-11-18T10:55:37Z</time>
      </trkpt>
      <trkpt lat="43.88919" lon="7.28839">
        <ele>933</ele>
        <time>2012-11-18T10:55:41Z</time>
      </trkpt>
      <trkpt lat="43.88921" lon="7.2884">
        <ele>931</ele>
        <time>2012-11-18T10:55:45Z</time>
      </trkpt>
      <trkpt lat="43.88925" lon="7.28841">
        <ele>929</ele>
        <time>2012-11-18T10:55:51Z</time>
      </trkpt>
      <trkpt lat="43.88926" lon="7.28841">
        <ele>928</ele>
        <time>2012-11-18T10:55:55Z</time>
      </trkpt>
      <trkpt lat="43.88928" lon="7.2884">
        <ele>927</ele>
        <time>2012-11-18T10:56:00Z</time>
      </trkpt>
      <trkpt lat="43.88929" lon="7.2884">
        <ele>926</ele>
        <time>2012-11-18T10:56:04Z</time>
      </trkpt>
      <trkpt lat="43.88931" lon="7.2884">
        <ele>926</ele>
        <time>2012-11-18T10:56:08Z</time>
      </trkpt>
      <trkpt lat="43.88932" lon="7.2884">
        <ele>925</ele>
        <time>2012-11-18T10:56:12Z</time>
      </trkpt>
      <trkpt lat="43.88934" lon="7.2884">
        <ele>924</ele>
        <time>2012-11-18T10:56:18Z</time>
      </trkpt>
      <trkpt lat="43.88935" lon="7.28841">
        <ele>923</ele>
        <time>2012-11-18T10:56:22Z</time>
      </trkpt>
      <trkpt lat="43.88938" lon="7.28841">
        <ele>922</ele>
        <time>2012-11-18T10:56:27Z</time>
      </trkpt>
      <trkpt lat="43.88939" lon="7.28841">
        <ele>921</ele>
        <time>2012-11-18T10:56:30Z</time>
      </trkpt>
      <trkpt lat="43.8894" lon="7.2884">
        <ele>921</ele>
        <time>2012-11-18T10:56:33Z</time>
      </trkpt>
      <trkpt lat="43.88941" lon="7.28839">
        <ele>920</ele>
        <time>2012-11-18T10:56:36Z</time>
      </trkpt>
      <trkpt lat="43.8894" lon="7.28838">
        <ele>921</ele>
        <time>2012-11-18T10:56:41Z</time>
      </trkpt>
      <trkpt lat="43.8894" lon="7.28838">
        <ele>921</ele>
        <time>2012-11-18T10:56:45Z</time>
      </trkpt>
      <trkpt lat="43.8894" lon="7.28837">
        <ele>921</ele>
        <time>2012-11-18T10:56:48Z</time>
      </trkpt>
      <trkpt lat="43.8894" lon="7.28835">
        <ele>921</ele>
        <time>2012-11-18T10:56:52Z</time>
      </trkpt>
      <trkpt lat="43.88942" lon="7.28833">
        <ele>938</ele>
        <time>2012-11-18T10:56:56Z</time>
      </trkpt>
      <trkpt lat="43.88943" lon="7.28829">
        <ele>938</ele>
        <time>2012-11-18T10:57:00Z</time>
      </trkpt>
      <trkpt lat="43.88945" lon="7.28825">
        <ele>938</ele>
        <time>2012-11-18T10:57:04Z</time>
      </trkpt>
      <trkpt lat="43.88947" lon="7.2882">
        <ele>939</ele>
        <time>2012-11-18T10:57:08Z</time>
      </trkpt>
      <trkpt lat="43.88949" lon="7.28814">
        <ele>939</ele>
        <time>2012-11-18T10:57:13Z</time>
      </trkpt>
      <trkpt lat="43.88951" lon="7.2881">
        <ele>939</ele>
        <time>2012-11-18T10:57:17Z</time>
      </trkpt>
      <trkpt lat="43.88951" lon="7.28804">
        <ele>940</ele>
        <time>2012-11-18T10:57:22Z</time>
      </trkpt>
      <trkpt lat="43.88952" lon="7.28801">
        <ele>940</ele>
        <time>2012-11-18T10:57:25Z</time>
      </trkpt>
      <trkpt lat="43.88952" lon="7.28796">
        <ele>941</ele>
        <time>2012-11-18T10:57:29Z</time>
      </trkpt>
      <trkpt lat="43.88952" lon="7.28792">
        <ele>942</ele>
        <time>2012-11-18T10:57:33Z</time>
      </trkpt>
      <trkpt lat="43.88952" lon="7.28787">
        <ele>943</ele>
        <time>2012-11-18T10:57:37Z</time>
      </trkpt>
      <trkpt lat="43.88952" lon="7.28782">
        <ele>944</ele>
        <time>2012-11-18T10:57:41Z</time>
      </trkpt>
      <trkpt lat="43.88952" lon="7.28777">
        <ele>945</ele>
        <time>2012-11-18T10:57:45Z</time>
      </trkpt>
      <trkpt lat="43.88951" lon="7.28772">
        <ele>947</ele>
        <time>2012-11-18T10:57:50Z</time>
      </trkpt>
      <trkpt lat="43.8895" lon="7.28767">
        <ele>948</ele>
        <time>2012-11-18T10:57:54Z</time>
      </trkpt>
      <trkpt lat="43.88949" lon="7.28765">
        <ele>948</ele>
        <time>2012-11-18T10:57:57Z</time>
      </trkpt>
      <trkpt lat="43.88949" lon="7.28761">
        <ele>949</ele>
        <time>2012-11-18T10:58:01Z</time>
      </trkpt>
      <trkpt lat="43.8895" lon="7.28755">
        <ele>950</ele>
        <time>2012-11-18T10:58:06Z</time>
      </trkpt>
      <trkpt lat="43.8895" lon="7.2875">
        <ele>964</ele>
        <time>2012-11-18T10:58:10Z</time>
      </trkpt>
      <trkpt lat="43.8895" lon="7.28745">
        <ele>964</ele>
        <time>2012-11-18T10:58:14Z</time>
      </trkpt>
      <trkpt lat="43.8895" lon="7.2874">
        <ele>965</ele>
        <time>2012-11-18T10:58:19Z</time>
      </trkpt>
      <trkpt lat="43.88949" lon="7.28737">
        <ele>965</ele>
        <time>2012-11-18T10:58:23Z</time>
      </trkpt>
      <trkpt lat="43.88948" lon="7.28735">
        <ele>965</ele>
        <time>2012-11-18T10:58:26Z</time>
      </trkpt>
      <trkpt lat="43.88947" lon="7.28733">
        <ele>965</ele>
        <time>2012-11-18T10:58:30Z</time>
      </trkpt>
      <trkpt lat="43.88946" lon="7.2873">
        <ele>966</ele>
        <time>2012-11-18T10:58:34Z</time>
      </trkpt>
      <trkpt lat="43.88946" lon="7.28727">
        <ele>966</ele>
        <time>2012-11-18T10:58:38Z</time>
      </trkpt>
      <trkpt lat="43.88946" lon="7.28725">
        <ele>966</ele>
        <time>2012-11-18T10:58:42Z</time>
      </trkpt>
      <trkpt lat="43.88946" lon="7.28724">
        <ele>966</ele>
        <time>2012-11-18T10:58:45Z</time>
      </trkpt>
      <trkpt lat="43.88946" lon="7.28725">
        <ele>966</ele>
        <time>2012-11-18T10:58:48Z</time>
      </trkpt>
      <trkpt lat="43.88947" lon="7.28725">
        <ele>966</ele>
        <time>2012-11-18T10:58:52Z</time>
      </trkpt>
      <trkpt lat="43.88949" lon="7.28722">
        <ele>966</ele>
        <time>2012-11-18T10:58:56Z</time>
      </trkpt>
      <trkpt lat="43.88951" lon="7.28719">
        <ele>965</ele>
        <time>2012-11-18T10:58:59Z</time>
      </trkpt>
      <trkpt lat="43.88957" lon="7.28715">
        <ele>965</ele>
        <time>2012-11-18T10:59:03Z</time>
      </trkpt>
      <trkpt lat="43.88963" lon="7.2871">
        <ele>964</ele>
        <time>2012-11-18T10:59:08Z</time>
      </trkpt>
      <trkpt lat="43.88967" lon="7.28707">
        <ele>964</ele>
        <time>2012-11-18T10:59:12Z</time>
      </trkpt>
      <trkpt lat="43.8897" lon="7.28704">
        <ele>963</ele>
        <time>2012-11-18T10:59:15Z</time>
      </trkpt>
      <trkpt lat="43.88972" lon="7.287">
        <ele>963</ele>
        <time>2012-11-18T10:59:19Z</time>
      </trkpt>
      <trkpt lat="43.88973" lon="7.28697">
        <ele>964</ele>
        <time>2012-11-18T10:59:23Z</time>
      </trkpt>
      <trkpt lat="43.88975" lon="7.28694">
        <ele>964</ele>
        <time>2012-11-18T10:59:27Z</time>
      </trkpt>
      <trkpt lat="43.88975" lon="7.28693">
        <ele>964</ele>
        <time>2012-11-18T10:59:30Z</time>
      </trkpt>
      <trkpt lat="43.88977" lon="7.28691">
        <ele>963</ele>
        <time>2012-11-18T10:59:36Z</time>
      </trkpt>
      <trkpt lat="43.88981" lon="7.28687">
        <ele>963</ele>
        <time>2012-11-18T10:59:40Z</time>
      </trkpt>
      <trkpt lat="43.88986" lon="7.28683">
        <ele>963</ele>
        <time>2012-11-18T10:59:44Z</time>
      </trkpt>
      <trkpt lat="43.88989" lon="7.28682">
        <ele>962</ele>
        <time>2012-11-18T10:59:48Z</time>
      </trkpt>
      <trkpt lat="43.8899" lon="7.28681">
        <ele>962</ele>
        <time>2012-11-18T10:59:53Z</time>
      </trkpt>
      <trkpt lat="43.88992" lon="7.28681">
        <ele>962</ele>
        <time>2012-11-18T10:59:58Z</time>
      </trkpt>
      <trkpt lat="43.88993" lon="7.28681">
        <ele>962</ele>
        <time>2012-11-18T11:00:02Z</time>
      </trkpt>
      <trkpt lat="43.88994" lon="7.28681">
        <ele>962</ele>
        <time>2012-11-18T11:00:07Z</time>
      </trkpt>
      <trkpt lat="43.88994" lon="7.2868">
        <ele>962</ele>
        <time>2012-11-18T11:00:10Z</time>
      </trkpt>
      <trkpt lat="43.88997" lon="7.2868">
        <ele>962</ele>
        <time>2012-11-18T11:00:14Z</time>
      </trkpt>
      <trkpt lat="43.89" lon="7.28679">
        <ele>960</ele>
        <time>2012-11-18T11:00:18Z</time>
      </trkpt>
      <trkpt lat="43.89001" lon="7.28679">
        <ele>960</ele>
        <time>2012-11-18T11:00:21Z</time>
      </trkpt>
      <trkpt lat="43.89002" lon="7.28679">
        <ele>960</ele>
        <time>2012-11-18T11:00:24Z</time>
      </trkpt>
      <trkpt lat="43.89003" lon="7.28679">
        <ele>960</ele>
        <time>2012-11-18T11:00:26Z</time>
      </trkpt>
      <trkpt lat="43.89003" lon="7.28679">
        <ele>960</ele>
        <time>2012-11-18T11:00:31Z</time>
      </trkpt>
      <trkpt lat="43.89004" lon="7.28679">
        <ele>960</ele>
        <time>2012-11-18T11:00:37Z</time>
      </trkpt>
      <trkpt lat="43.89004" lon="7.28678">
        <ele>960</ele>
        <time>2012-11-18T11:00:40Z</time>
      </trkpt>
      <trkpt lat="43.89004" lon="7.28678">
        <ele>960</ele>
        <time>2012-11-18T11:00:43Z</time>
      </trkpt>
      <trkpt lat="43.89004" lon="7.28678">
        <ele>960</ele>
        <time>2012-11-18T11:00:47Z</time>
      </trkpt>
      <trkpt lat="43.89004" lon="7.28679">
        <ele>960</ele>
        <time>2012-11-18T11:00:51Z</time>
      </trkpt>
      <trkpt lat="43.89004" lon="7.28679">
        <ele>960</ele>
        <time>2012-11-18T11:00:55Z</time>
      </trkpt>
      <trkpt lat="43.89003" lon="7.2868">
        <ele>960</ele>
        <time>2012-11-18T11:00:58Z</time>
      </trkpt>
      <trkpt lat="43.89003" lon="7.2868">
        <ele>960</ele>
        <time>2012-11-18T11:01:01Z</time>
      </trkpt>
      <trkpt lat="43.89003" lon="7.28682">
        <ele>960</ele>
        <time>2012-11-18T11:01:11Z</time>
      </trkpt>
      <trkpt lat="43.89003" lon="7.28681">
        <ele>960</ele>
        <time>2012-11-18T11:01:16Z</time>
      </trkpt>
      <trkpt lat="43.89004" lon="7.2868">
        <ele>960</ele>
        <time>2012-11-18T11:01:20Z</time>
      </trkpt>
      <trkpt lat="43.89003" lon="7.28679">
        <ele>960</ele>
        <time>2012-11-18T11:01:27Z</time>
      </trkpt>
      <trkpt lat="43.89002" lon="7.28678">
        <ele>960</ele>
        <time>2012-11-18T11:01:31Z</time>
      </trkpt>
      <trkpt lat="43.89003" lon="7.28678">
        <ele>960</ele>
        <time>2012-11-18T11:01:33Z</time>
      </trkpt>
      <trkpt lat="43.89005" lon="7.28677">
        <ele>960</ele>
        <time>2012-11-18T11:01:39Z</time>
      </trkpt>
      <trkpt lat="43.89007" lon="7.28677">
        <ele>961</ele>
        <time>2012-11-18T11:01:43Z</time>
      </trkpt>
      <trkpt lat="43.89011" lon="7.28676">
        <ele>961</ele>
        <time>2012-11-18T11:01:47Z</time>
      </trkpt>
      <trkpt lat="43.89013" lon="7.28675">
        <ele>961</ele>
        <time>2012-11-18T11:01:51Z</time>
      </trkpt>
      <trkpt lat="43.89014" lon="7.28673">
        <ele>961</ele>
        <time>2012-11-18T11:01:55Z</time>
      </trkpt>
      <trkpt lat="43.89016" lon="7.28672">
        <ele>961</ele>
        <time>2012-11-18T11:02:01Z</time>
      </trkpt>
      <trkpt lat="43.89017" lon="7.28672">
        <ele>962</ele>
        <time>2012-11-18T11:02:05Z</time>
      </trkpt>
      <trkpt lat="43.89017" lon="7.28671">
        <ele>962</ele>
        <time>2012-11-18T11:02:09Z</time>
      </trkpt>
      <trkpt lat="43.89017" lon="7.28671">
        <ele>962</ele>
        <time>2012-11-18T11:02:14Z</time>
      </trkpt>
      <trkpt lat="43.89017" lon="7.28671">
        <ele>962</ele>
        <time>2012-11-18T11:02:17Z</time>
      </trkpt>
      <trkpt lat="43.89016" lon="7.28671">
        <ele>962</ele>
        <time>2012-11-18T11:02:20Z</time>
      </trkpt>
      <trkpt lat="43.89016" lon="7.2867">
        <ele>962</ele>
        <time>2012-11-18T11:02:24Z</time>
      </trkpt>
      <trkpt lat="43.89016" lon="7.2867">
        <ele>962</ele>
        <time>2012-11-18T11:02:27Z</time>
      </trkpt>
      <trkpt lat="43.89016" lon="7.2867">
        <ele>962</ele>
        <time>2012-11-18T11:02:30Z</time>
      </trkpt>
      <trkpt lat="43.89016" lon="7.2867">
        <ele>961</ele>
        <time>2012-11-18T11:02:34Z</time>
      </trkpt>
      <trkpt lat="43.89014" lon="7.2867">
        <ele>961</ele>
        <time>2012-11-18T11:02:39Z</time>
      </trkpt>
      <trkpt lat="43.89012" lon="7.2867">
        <ele>961</ele>
        <time>2012-11-18T11:02:45Z</time>
      </trkpt>
      <trkpt lat="43.89012" lon="7.2867">
        <ele>961</ele>
        <time>2012-11-18T11:02:49Z</time>
      </trkpt>
      <trkpt lat="43.89012" lon="7.2867">
        <ele>961</ele>
        <time>2012-11-18T11:02:52Z</time>
      </trkpt>
      <trkpt lat="43.89011" lon="7.28671">
        <ele>961</ele>
        <time>2012-11-18T11:02:56Z</time>
      </trkpt>
      <trkpt lat="43.8901" lon="7.28672">
        <ele>961</ele>
        <time>2012-11-18T11:03:00Z</time>
      </trkpt>
      <trkpt lat="43.8901" lon="7.28673">
        <ele>961</ele>
        <time>2012-11-18T11:03:03Z</time>
      </trkpt>
      <trkpt lat="43.8901" lon="7.28673">
        <ele>961</ele>
        <time>2012-11-18T11:03:06Z</time>
      </trkpt>
      <trkpt lat="43.89009" lon="7.28671">
        <ele>961</ele>
        <time>2012-11-18T11:03:12Z</time>
      </trkpt>
      <trkpt lat="43.8901" lon="7.2867">
        <ele>961</ele>
        <time>2012-11-18T11:03:15Z</time>
      </trkpt>
      <trkpt lat="43.89011" lon="7.2867">
        <ele>961</ele>
        <time>2012-11-18T11:03:20Z</time>
      </trkpt>
      <trkpt lat="43.89012" lon="7.28669">
        <ele>961</ele>
        <time>2012-11-18T11:03:24Z</time>
      </trkpt>
      <trkpt lat="43.89013" lon="7.28668">
        <ele>961</ele>
        <time>2012-11-18T11:03:30Z</time>
      </trkpt>
      <trkpt lat="43.89013" lon="7.28668">
        <ele>961</ele>
        <time>2012-11-18T11:03:33Z</time>
      </trkpt>
      <trkpt lat="43.89014" lon="7.28669">
        <ele>961</ele>
        <time>2012-11-18T11:03:37Z</time>
      </trkpt>
      <trkpt lat="43.89014" lon="7.28669">
        <ele>961</ele>
        <time>2012-11-18T11:03:41Z</time>
      </trkpt>
      <trkpt lat="43.89014" lon="7.2867">
        <ele>961</ele>
        <time>2012-11-18T11:03:45Z</time>
      </trkpt>
      <trkpt lat="43.89016" lon="7.2867">
        <ele>961</ele>
        <time>2012-11-18T11:03:49Z</time>
      </trkpt>
      <trkpt lat="43.89017" lon="7.28671">
        <ele>962</ele>
        <time>2012-11-18T11:03:56Z</time>
      </trkpt>
      <trkpt lat="43.89017" lon="7.28671">
        <ele>962</ele>
        <time>2012-11-18T11:03:59Z</time>
      </trkpt>
      <trkpt lat="43.89017" lon="7.2867">
        <ele>962</ele>
        <time>2012-11-18T11:04:03Z</time>
      </trkpt>
      <trkpt lat="43.89017" lon="7.2867">
        <ele>962</ele>
        <time>2012-11-18T11:04:07Z</time>
      </trkpt>
      <trkpt lat="43.89017" lon="7.28669">
        <ele>962</ele>
        <time>2012-11-18T11:04:13Z</time>
      </trkpt>
      <trkpt lat="43.89018" lon="7.28667">
        <ele>962</ele>
        <time>2012-11-18T11:04:17Z</time>
      </trkpt>
      <trkpt lat="43.89021" lon="7.28665">
        <ele>963</ele>
        <time>2012-11-18T11:04:22Z</time>
      </trkpt>
      <trkpt lat="43.89023" lon="7.28662">
        <ele>963</ele>
        <time>2012-11-18T11:04:27Z</time>
      </trkpt>
      <trkpt lat="43.89026" lon="7.2866">
        <ele>963</ele>
        <time>2012-11-18T11:04:32Z</time>
      </trkpt>
      <trkpt lat="43.89028" lon="7.28658">
        <ele>964</ele>
        <time>2012-11-18T11:04:37Z</time>
      </trkpt>
      <trkpt lat="43.89029" lon="7.28658">
        <ele>964</ele>
        <time>2012-11-18T11:04:40Z</time>
      </trkpt>
      <trkpt lat="43.8903" lon="7.28658">
        <ele>964</ele>
        <time>2012-11-18T11:04:44Z</time>
      </trkpt>
      <trkpt lat="43.89032" lon="7.28656">
        <ele>964</ele>
        <time>2012-11-18T11:04:48Z</time>
      </trkpt>
      <trkpt lat="43.89035" lon="7.28653">
        <ele>965</ele>
        <time>2012-11-18T11:04:55Z</time>
      </trkpt>
      <trkpt lat="43.89037" lon="7.28651">
        <ele>965</ele>
        <time>2012-11-18T11:04:59Z</time>
      </trkpt>
      <trkpt lat="43.89038" lon="7.28649">
        <ele>965</ele>
        <time>2012-11-18T11:05:03Z</time>
      </trkpt>
      <trkpt lat="43.89038" lon="7.28647">
        <ele>965</ele>
        <time>2012-11-18T11:05:06Z</time>
      </trkpt>
      <trkpt lat="43.89037" lon="7.28642">
        <ele>964</ele>
        <time>2012-11-18T11:05:16Z</time>
      </trkpt>
      <trkpt lat="43.89037" lon="7.2864">
        <ele>964</ele>
        <time>2012-11-18T11:05:19Z</time>
      </trkpt>
      <trkpt lat="43.89037" lon="7.28637">
        <ele>963</ele>
        <time>2012-11-18T11:05:23Z</time>
      </trkpt>
      <trkpt lat="43.89037" lon="7.28632">
        <ele>963</ele>
        <time>2012-11-18T11:05:27Z</time>
      </trkpt>
      <trkpt lat="43.89038" lon="7.2863">
        <ele>963</ele>
        <time>2012-11-18T11:05:30Z</time>
      </trkpt>
      <trkpt lat="43.89039" lon="7.28629">
        <ele>963</ele>
        <time>2012-11-18T11:05:33Z</time>
      </trkpt>
      <trkpt lat="43.8904" lon="7.28629">
        <ele>963</ele>
        <time>2012-11-18T11:05:37Z</time>
      </trkpt>
      <trkpt lat="43.89043" lon="7.28628">
        <ele>963</ele>
        <time>2012-11-18T11:05:41Z</time>
      </trkpt>
      <trkpt lat="43.89047" lon="7.28627">
        <ele>963</ele>
        <time>2012-11-18T11:05:46Z</time>
      </trkpt>
      <trkpt lat="43.89052" lon="7.28626">
        <ele>964</ele>
        <time>2012-11-18T11:05:51Z</time>
      </trkpt>
      <trkpt lat="43.89056" lon="7.28626">
        <ele>964</ele>
        <time>2012-11-18T11:05:55Z</time>
      </trkpt>
      <trkpt lat="43.89058" lon="7.28626">
        <ele>965</ele>
        <time>2012-11-18T11:05:58Z</time>
      </trkpt>
      <trkpt lat="43.89063" lon="7.28628">
        <ele>966</ele>
        <time>2012-11-18T11:06:03Z</time>
      </trkpt>
      <trkpt lat="43.89066" lon="7.28629">
        <ele>966</ele>
        <time>2012-11-18T11:06:07Z</time>
      </trkpt>
      <trkpt lat="43.89069" lon="7.2863">
        <ele>967</ele>
        <time>2012-11-18T11:06:11Z</time>
      </trkpt>
      <trkpt lat="43.89071" lon="7.28631">
        <ele>967</ele>
        <time>2012-11-18T11:06:15Z</time>
      </trkpt>
      <trkpt lat="43.89072" lon="7.28631">
        <ele>967</ele>
        <time>2012-11-18T11:06:18Z</time>
      </trkpt>
      <trkpt lat="43.89074" lon="7.2863">
        <ele>967</ele>
        <time>2012-11-18T11:06:21Z</time>
      </trkpt>
      <trkpt lat="43.89078" lon="7.28627">
        <ele>967</ele>
        <time>2012-11-18T11:06:27Z</time>
      </trkpt>
      <trkpt lat="43.89081" lon="7.28624">
        <ele>966</ele>
        <time>2012-11-18T11:06:31Z</time>
      </trkpt>
      <trkpt lat="43.89083" lon="7.28621">
        <ele>984</ele>
        <time>2012-11-18T11:06:34Z</time>
      </trkpt>
      <trkpt lat="43.89085" lon="7.28619">
        <ele>983</ele>
        <time>2012-11-18T11:06:37Z</time>
      </trkpt>
      <trkpt lat="43.89088" lon="7.28616">
        <ele>983</ele>
        <time>2012-11-18T11:06:42Z</time>
      </trkpt>
      <trkpt lat="43.8909" lon="7.28615">
        <ele>982</ele>
        <time>2012-11-18T11:06:46Z</time>
      </trkpt>
      <trkpt lat="43.89091" lon="7.28614">
        <ele>982</ele>
        <time>2012-11-18T11:06:49Z</time>
      </trkpt>
      <trkpt lat="43.89095" lon="7.28614">
        <ele>983</ele>
        <time>2012-11-18T11:06:54Z</time>
      </trkpt>
      <trkpt lat="43.89098" lon="7.28613">
        <ele>983</ele>
        <time>2012-11-18T11:06:58Z</time>
      </trkpt>
      <trkpt lat="43.891" lon="7.28613">
        <ele>984</ele>
        <time>2012-11-18T11:07:01Z</time>
      </trkpt>
      <trkpt lat="43.89104" lon="7.2861">
        <ele>984</ele>
        <time>2012-11-18T11:07:07Z</time>
      </trkpt>
      <trkpt lat="43.89106" lon="7.28609">
        <ele>984</ele>
        <time>2012-11-18T11:07:10Z</time>
      </trkpt>
      <trkpt lat="43.89108" lon="7.28607">
        <ele>984</ele>
        <time>2012-11-18T11:07:14Z</time>
      </trkpt>
      <trkpt lat="43.89109" lon="7.28605">
        <ele>984</ele>
        <time>2012-11-18T11:07:17Z</time>
      </trkpt>
      <trkpt lat="43.89112" lon="7.28603">
        <ele>984</ele>
        <time>2012-11-18T11:07:21Z</time>
      </trkpt>
      <trkpt lat="43.89115" lon="7.286">
        <ele>985</ele>
        <time>2012-11-18T11:07:26Z</time>
      </trkpt>
      <trkpt lat="43.89116" lon="7.28599">
        <ele>985</ele>
        <time>2012-11-18T11:07:29Z</time>
      </trkpt>
      <trkpt lat="43.89119" lon="7.28597">
        <ele>986</ele>
        <time>2012-11-18T11:07:33Z</time>
      </trkpt>
      <trkpt lat="43.89122" lon="7.28596">
        <ele>986</ele>
        <time>2012-11-18T11:07:37Z</time>
      </trkpt>
      <trkpt lat="43.89126" lon="7.28595">
        <ele>987</ele>
        <time>2012-11-18T11:07:41Z</time>
      </trkpt>
      <trkpt lat="43.89129" lon="7.28595">
        <ele>988</ele>
        <time>2012-11-18T11:07:45Z</time>
      </trkpt>
      <trkpt lat="43.89131" lon="7.28594">
        <ele>989</ele>
        <time>2012-11-18T11:07:50Z</time>
      </trkpt>
      <trkpt lat="43.89132" lon="7.28593">
        <ele>989</ele>
        <time>2012-11-18T11:07:54Z</time>
      </trkpt>
      <trkpt lat="43.89134" lon="7.28591">
        <ele>989</ele>
        <time>2012-11-18T11:07:57Z</time>
      </trkpt>
      <trkpt lat="43.89137" lon="7.28587">
        <ele>989</ele>
        <time>2012-11-18T11:08:01Z</time>
      </trkpt>
      <trkpt lat="43.89139" lon="7.28582">
        <ele>968</ele>
        <time>2012-11-18T11:08:05Z</time>
      </trkpt>
      <trkpt lat="43.89142" lon="7.28576">
        <ele>968</ele>
        <time>2012-11-18T11:08:10Z</time>
      </trkpt>
      <trkpt lat="43.89143" lon="7.28572">
        <ele>968</ele>
        <time>2012-11-18T11:08:13Z</time>
      </trkpt>
      <trkpt lat="43.89146" lon="7.28569">
        <ele>968</ele>
        <time>2012-11-18T11:08:17Z</time>
      </trkpt>
      <trkpt lat="43.89148" lon="7.28566">
        <ele>968</ele>
        <time>2012-11-18T11:08:21Z</time>
      </trkpt>
      <trkpt lat="43.89151" lon="7.28563">
        <ele>968</ele>
        <time>2012-11-18T11:08:25Z</time>
      </trkpt>
      <trkpt lat="43.89153" lon="7.28561">
        <ele>968</ele>
        <time>2012-11-18T11:08:29Z</time>
      </trkpt>
      <trkpt lat="43.89156" lon="7.2856">
        <ele>967</ele>
        <time>2012-11-18T11:08:32Z</time>
      </trkpt>
      <trkpt lat="43.89159" lon="7.28559">
        <ele>968</ele>
        <time>2012-11-18T11:08:36Z</time>
      </trkpt>
      <trkpt lat="43.89163" lon="7.28558">
        <ele>968</ele>
        <time>2012-11-18T11:08:40Z</time>
      </trkpt>
      <trkpt lat="43.89167" lon="7.28559">
        <ele>985</ele>
        <time>2012-11-18T11:08:44Z</time>
      </trkpt>
      <trkpt lat="43.8917" lon="7.2856">
        <ele>985</ele>
        <time>2012-11-18T11:08:48Z</time>
      </trkpt>
      <trkpt lat="43.89173" lon="7.28561">
        <ele>986</ele>
        <time>2012-11-18T11:08:52Z</time>
      </trkpt>
      <trkpt lat="43.89175" lon="7.28563">
        <ele>986</ele>
        <time>2012-11-18T11:08:56Z</time>
      </trkpt>
      <trkpt lat="43.89177" lon="7.28565">
        <ele>987</ele>
        <time>2012-11-18T11:09:00Z</time>
      </trkpt>
      <trkpt lat="43.8918" lon="7.28566">
        <ele>987</ele>
        <time>2012-11-18T11:09:05Z</time>
      </trkpt>
      <trkpt lat="43.89182" lon="7.28568">
        <ele>988</ele>
        <time>2012-11-18T11:09:09Z</time>
      </trkpt>
      <trkpt lat="43.89184" lon="7.28568">
        <ele>988</ele>
        <time>2012-11-18T11:09:14Z</time>
      </trkpt>
      <trkpt lat="43.89186" lon="7.28569">
        <ele>988</ele>
        <time>2012-11-18T11:09:18Z</time>
      </trkpt>
      <trkpt lat="43.89189" lon="7.2857">
        <ele>988</ele>
        <time>2012-11-18T11:09:23Z</time>
      </trkpt>
      <trkpt lat="43.89191" lon="7.2857">
        <ele>988</ele>
        <time>2012-11-18T11:09:27Z</time>
      </trkpt>
      <trkpt lat="43.89194" lon="7.2857">
        <ele>988</ele>
        <time>2012-11-18T11:09:32Z</time>
      </trkpt>
      <trkpt lat="43.89195" lon="7.2857">
        <ele>988</ele>
        <time>2012-11-18T11:09:36Z</time>
      </trkpt>
      <trkpt lat="43.89197" lon="7.2857">
        <ele>989</ele>
        <time>2012-11-18T11:09:40Z</time>
      </trkpt>
      <trkpt lat="43.89197" lon="7.2857">
        <ele>989</ele>
        <time>2012-11-18T11:09:43Z</time>
      </trkpt>
      <trkpt lat="43.89197" lon="7.2857">
        <ele>989</ele>
        <time>2012-11-18T11:09:46Z</time>
      </trkpt>
      <trkpt lat="43.89198" lon="7.2857">
        <ele>989</ele>
        <time>2012-11-18T11:09:50Z</time>
      </trkpt>
      <trkpt lat="43.89199" lon="7.2857">
        <ele>989</ele>
        <time>2012-11-18T11:09:55Z</time>
      </trkpt>
      <trkpt lat="43.892" lon="7.2857">
        <ele>989</ele>
        <time>2012-11-18T11:09:59Z</time>
      </trkpt>
      <trkpt lat="43.89201" lon="7.28571">
        <ele>989</ele>
        <time>2012-11-18T11:10:06Z</time>
      </trkpt>
      <trkpt lat="43.89202" lon="7.28571">
        <ele>989</ele>
        <time>2012-11-18T11:10:09Z</time>
      </trkpt>
      <trkpt lat="43.89202" lon="7.2857">
        <ele>989</ele>
        <time>2012-11-18T11:10:12Z</time>
      </trkpt>
      <trkpt lat="43.89202" lon="7.28569">
        <ele>989</ele>
        <time>2012-11-18T11:10:16Z</time>
      </trkpt>
      <trkpt lat="43.89203" lon="7.28569">
        <ele>989</ele>
        <time>2012-11-18T11:10:19Z</time>
      </trkpt>
      <trkpt lat="43.89204" lon="7.28569">
        <ele>989</ele>
        <time>2012-11-18T11:10:23Z</time>
      </trkpt>
      <trkpt lat="43.89207" lon="7.28569">
        <ele>990</ele>
        <time>2012-11-18T11:10:27Z</time>
      </trkpt>
      <trkpt lat="43.8921" lon="7.28569">
        <ele>991</ele>
        <time>2012-11-18T11:10:32Z</time>
      </trkpt>
      <trkpt lat="43.89213" lon="7.28569">
        <ele>991</ele>
        <time>2012-11-18T11:10:37Z</time>
      </trkpt>
      <trkpt lat="43.89213" lon="7.28569">
        <ele>992</ele>
        <time>2012-11-18T11:10:40Z</time>
      </trkpt>
      <trkpt lat="43.89212" lon="7.2857">
        <ele>992</ele>
        <time>2012-11-18T11:10:44Z</time>
      </trkpt>
      <trkpt lat="43.8921" lon="7.28572">
        <ele>992</ele>
        <time>2012-11-18T11:10:49Z</time>
      </trkpt>
      <trkpt lat="43.89209" lon="7.28574">
        <ele>991</ele>
        <time>2012-11-18T11:10:52Z</time>
      </trkpt>
      <trkpt lat="43.89209" lon="7.28575">
        <ele>992</ele>
        <time>2012-11-18T11:10:55Z</time>
      </trkpt>
      <trkpt lat="43.89209" lon="7.28577">
        <ele>992</ele>
        <time>2012-11-18T11:10:58Z</time>
      </trkpt>
      <trkpt lat="43.8921" lon="7.28577">
        <ele>992</ele>
        <time>2012-11-18T11:11:01Z</time>
      </trkpt>
      <trkpt lat="43.89211" lon="7.28578">
        <ele>992</ele>
        <time>2012-11-18T11:11:04Z</time>
      </trkpt>
      <trkpt lat="43.89212" lon="7.28578">
        <ele>993</ele>
        <time>2012-11-18T11:11:08Z</time>
      </trkpt>
      <trkpt lat="43.89215" lon="7.28577">
        <ele>994</ele>
        <time>2012-11-18T11:11:13Z</time>
      </trkpt>
      <trkpt lat="43.89217" lon="7.28578">
        <ele>994</ele>
        <time>2012-11-18T11:11:17Z</time>
      </trkpt>
      <trkpt lat="43.89218" lon="7.28577">
        <ele>995</ele>
        <time>2012-11-18T11:11:21Z</time>
      </trkpt>
      <trkpt lat="43.89217" lon="7.28577">
        <ele>994</ele>
        <time>2012-11-18T11:11:25Z</time>
      </trkpt>
      <trkpt lat="43.89216" lon="7.28575">
        <ele>994</ele>
        <time>2012-11-18T11:11:31Z</time>
      </trkpt>
      <trkpt lat="43.89216" lon="7.28575">
        <ele>994</ele>
        <time>2012-11-18T11:11:35Z</time>
      </trkpt>
      <trkpt lat="43.89216" lon="7.28574">
        <ele>993</ele>
        <time>2012-11-18T11:11:38Z</time>
      </trkpt>
      <trkpt lat="43.89216" lon="7.28574">
        <ele>993</ele>
        <time>2012-11-18T11:11:42Z</time>
      </trkpt>
      <trkpt lat="43.89216" lon="7.28574">
        <ele>993</ele>
        <time>2012-11-18T11:11:45Z</time>
      </trkpt>
      <trkpt lat="43.89217" lon="7.28573">
        <ele>993</ele>
        <time>2012-11-18T11:11:49Z</time>
      </trkpt>
      <trkpt lat="43.89217" lon="7.28572">
        <ele>993</ele>
        <time>2012-11-18T11:11:52Z</time>
      </trkpt>
      <trkpt lat="43.89216" lon="7.28572">
        <ele>993</ele>
        <time>2012-11-18T11:11:57Z</time>
      </trkpt>
      <trkpt lat="43.89216" lon="7.28572">
        <ele>993</ele>
        <time>2012-11-18T11:11:59Z</time>
      </trkpt>
      <trkpt lat="43.89218" lon="7.28572">
        <ele>993</ele>
        <time>2012-11-18T11:12:04Z</time>
      </trkpt>
      <trkpt lat="43.89221" lon="7.28572">
        <ele>995</ele>
        <time>2012-11-18T11:12:08Z</time>
      </trkpt>
      <trkpt lat="43.89223" lon="7.28572">
        <ele>996</ele>
        <time>2012-11-18T11:12:12Z</time>
      </trkpt>
      <trkpt lat="43.89225" lon="7.28571">
        <ele>996</ele>
        <time>2012-11-18T11:12:16Z</time>
      </trkpt>
      <trkpt lat="43.89226" lon="7.28569">
        <ele>996</ele>
        <time>2012-11-18T11:12:20Z</time>
      </trkpt>
      <trkpt lat="43.89228" lon="7.28567">
        <ele>996</ele>
        <time>2012-11-18T11:12:24Z</time>
      </trkpt>
      <trkpt lat="43.89229" lon="7.28566">
        <ele>996</ele>
        <time>2012-11-18T11:12:27Z</time>
      </trkpt>
      <trkpt lat="43.8923" lon="7.28567">
        <ele>997</ele>
        <time>2012-11-18T11:12:30Z</time>
      </trkpt>
      <trkpt lat="43.89231" lon="7.28569">
        <ele>998</ele>
        <time>2012-11-18T11:12:33Z</time>
      </trkpt>
      <trkpt lat="43.89231" lon="7.28571">
        <ele>999</ele>
        <time>2012-11-18T11:12:36Z</time>
      </trkpt>
      <trkpt lat="43.89231" lon="7.28573">
        <ele>1000</ele>
        <time>2012-11-18T11:12:39Z</time>
      </trkpt>
      <trkpt lat="43.89231" lon="7.28575">
        <ele>1000</ele>
        <time>2012-11-18T11:12:42Z</time>
      </trkpt>
      <trkpt lat="43.8923" lon="7.28575">
        <ele>1000</ele>
        <time>2012-11-18T11:12:46Z</time>
      </trkpt>
      <trkpt lat="43.89229" lon="7.28577">
        <ele>1000</ele>
        <time>2012-11-18T11:12:50Z</time>
      </trkpt>
      <trkpt lat="43.89228" lon="7.2858">
        <ele>1000</ele>
        <time>2012-11-18T11:12:54Z</time>
      </trkpt>
      <trkpt lat="43.89227" lon="7.28582">
        <ele>999</ele>
        <time>2012-11-18T11:12:57Z</time>
      </trkpt>
      <trkpt lat="43.89224" lon="7.28585">
        <ele>1023</ele>
        <time>2012-11-18T11:13:01Z</time>
      </trkpt>
      <trkpt lat="43.89222" lon="7.28587">
        <ele>1023</ele>
        <time>2012-11-18T11:13:04Z</time>
      </trkpt>
      <trkpt lat="43.89221" lon="7.28589">
        <ele>1023</ele>
        <time>2012-11-18T11:13:07Z</time>
      </trkpt>
      <trkpt lat="43.89221" lon="7.2859">
        <ele>1023</ele>
        <time>2012-11-18T11:13:09Z</time>
      </trkpt>
      <trkpt lat="43.89223" lon="7.28591">
        <ele>1023</ele>
        <time>2012-11-18T11:13:12Z</time>
      </trkpt>
      <trkpt lat="43.89225" lon="7.28591">
        <ele>1023</ele>
        <time>2012-11-18T11:13:15Z</time>
      </trkpt>
      <trkpt lat="43.89228" lon="7.2859">
        <ele>1024</ele>
        <time>2012-11-18T11:13:19Z</time>
      </trkpt>
      <trkpt lat="43.8923" lon="7.28588">
        <ele>1024</ele>
        <time>2012-11-18T11:13:22Z</time>
      </trkpt>
      <trkpt lat="43.89232" lon="7.28586">
        <ele>1023</ele>
        <time>2012-11-18T11:13:25Z</time>
      </trkpt>
      <trkpt lat="43.89233" lon="7.28584">
        <ele>1023</ele>
        <time>2012-11-18T11:13:29Z</time>
      </trkpt>
      <trkpt lat="43.89233" lon="7.28582">
        <ele>1003</ele>
        <time>2012-11-18T11:13:33Z</time>
      </trkpt>
      <trkpt lat="43.89232" lon="7.28581">
        <ele>1003</ele>
        <time>2012-11-18T11:13:38Z</time>
      </trkpt>
      <trkpt lat="43.89231" lon="7.2858">
        <ele>1002</ele>
        <time>2012-11-18T11:13:43Z</time>
      </trkpt>
      <trkpt lat="43.89231" lon="7.2858">
        <ele>1002</ele>
        <time>2012-11-18T11:13:47Z</time>
      </trkpt>
      <trkpt lat="43.89231" lon="7.28579">
        <ele>1001</ele>
        <time>2012-11-18T11:13:51Z</time>
      </trkpt>
      <trkpt lat="43.89231" lon="7.28579">
        <ele>1001</ele>
        <time>2012-11-18T11:13:55Z</time>
      </trkpt>
      <trkpt lat="43.89231" lon="7.28578">
        <ele>1001</ele>
        <time>2012-11-18T11:14:00Z</time>
      </trkpt>
      <trkpt lat="43.89231" lon="7.28577">
        <ele>1001</ele>
        <time>2012-11-18T11:14:06Z</time>
      </trkpt>
      <trkpt lat="43.89231" lon="7.28577">
        <ele>1001</ele>
        <time>2012-11-18T11:14:10Z</time>
      </trkpt>
      <trkpt lat="43.89231" lon="7.28576">
        <ele>1000</ele>
        <time>2012-11-18T11:14:14Z</time>
      </trkpt>
      <trkpt lat="43.89232" lon="7.28575">
        <ele>1001</ele>
        <time>2012-11-18T11:14:18Z</time>
      </trkpt>
      <trkpt lat="43.89234" lon="7.28573">
        <ele>1001</ele>
        <time>2012-11-18T11:14:23Z</time>
      </trkpt>
      <trkpt lat="43.89236" lon="7.28571">
        <ele>1002</ele>
        <time>2012-11-18T11:14:27Z</time>
      </trkpt>
      <trkpt lat="43.89239" lon="7.28568">
        <ele>1001</ele>
        <time>2012-11-18T11:14:31Z</time>
      </trkpt>
      <trkpt lat="43.8924" lon="7.28566">
        <ele>1000</ele>
        <time>2012-11-18T11:14:35Z</time>
      </trkpt>
      <trkpt lat="43.8924" lon="7.28565">
        <ele>1000</ele>
        <time>2012-11-18T11:14:38Z</time>
      </trkpt>
      <trkpt lat="43.8924" lon="7.28565">
        <ele>999</ele>
        <time>2012-11-18T11:14:40Z</time>
      </trkpt>
      <trkpt lat="43.8924" lon="7.28565">
        <ele>999</ele>
        <time>2012-11-18T11:14:44Z</time>
      </trkpt>
      <trkpt lat="43.8924" lon="7.28565">
        <ele>999</ele>
        <time>2012-11-18T11:14:47Z</time>
      </trkpt>
      <trkpt lat="43.89239" lon="7.28563">
        <ele>998</ele>
        <time>2012-11-18T11:15:07Z</time>
      </trkpt>
      <trkpt lat="43.89248" lon="7.28561">
        <ele>999</ele>
        <time>2012-11-18T11:15:20Z</time>
      </trkpt>
      <trkpt lat="43.89249" lon="7.28561">
        <ele>999</ele>
        <time>2012-11-18T11:15:24Z</time>
      </trkpt>
      <trkpt lat="43.8925" lon="7.28561">
        <ele>999</ele>
        <time>2012-11-18T11:15:27Z</time>
      </trkpt>
      <trkpt lat="43.89251" lon="7.28562">
        <ele>1003</ele>
        <time>2012-11-18T11:15:30Z</time>
      </trkpt>
      <trkpt lat="43.89251" lon="7.28563">
        <ele>1004</ele>
        <time>2012-11-18T11:15:33Z</time>
      </trkpt>
      <trkpt lat="43.89251" lon="7.28563">
        <ele>1004</ele>
        <time>2012-11-18T11:15:35Z</time>
      </trkpt>
      <trkpt lat="43.89251" lon="7.28564">
        <ele>1004</ele>
        <time>2012-11-18T11:15:38Z</time>
      </trkpt>
      <trkpt lat="43.89251" lon="7.28564">
        <ele>1005</ele>
        <time>2012-11-18T11:15:41Z</time>
      </trkpt>
      <trkpt lat="43.8925" lon="7.28563">
        <ele>1004</ele>
        <time>2012-11-18T11:15:45Z</time>
      </trkpt>
      <trkpt lat="43.8925" lon="7.28563">
        <ele>1004</ele>
        <time>2012-11-18T11:15:49Z</time>
      </trkpt>
      <trkpt lat="43.8925" lon="7.28563">
        <ele>1000</ele>
        <time>2012-11-18T11:15:53Z</time>
      </trkpt>
      <trkpt lat="43.8925" lon="7.28562">
        <ele>999</ele>
        <time>2012-11-18T11:15:58Z</time>
      </trkpt>
      <trkpt lat="43.89249" lon="7.28562">
        <ele>999</ele>
        <time>2012-11-18T11:16:02Z</time>
      </trkpt>
      <trkpt lat="43.89249" lon="7.28562">
        <ele>999</ele>
        <time>2012-11-18T11:16:05Z</time>
      </trkpt>
      <trkpt lat="43.89249" lon="7.28562">
        <ele>999</ele>
        <time>2012-11-18T11:16:08Z</time>
      </trkpt>
      <trkpt lat="43.89249" lon="7.28562">
        <ele>999</ele>
        <time>2012-11-18T11:16:11Z</time>
      </trkpt>
      <trkpt lat="43.89249" lon="7.28562">
        <ele>1000</ele>
        <time>2012-11-18T11:16:14Z</time>
      </trkpt>
      <trkpt lat="43.89249" lon="7.28564">
        <ele>1001</ele>
        <time>2012-11-18T11:16:19Z</time>
      </trkpt>
      <trkpt lat="43.89249" lon="7.28566">
        <ele>1002</ele>
        <time>2012-11-18T11:16:23Z</time>
      </trkpt>
      <trkpt lat="43.89249" lon="7.28566">
        <ele>1002</ele>
        <time>2012-11-18T11:16:26Z</time>
      </trkpt>
      <trkpt lat="43.89249" lon="7.28566">
        <ele>1002</ele>
        <time>2012-11-18T11:16:29Z</time>
      </trkpt>
      <trkpt lat="43.89249" lon="7.28566">
        <ele>1002</ele>
        <time>2012-11-18T11:16:32Z</time>
      </trkpt>
      <trkpt lat="43.89249" lon="7.28566">
        <ele>1002</ele>
        <time>2012-11-18T11:16:35Z</time>
      </trkpt>
      <trkpt lat="43.89249" lon="7.28566">
        <ele>1002</ele>
        <time>2012-11-18T11:16:38Z</time>
      </trkpt>
      <trkpt lat="43.89249" lon="7.28566">
        <ele>1002</ele>
        <time>2012-11-18T11:16:41Z</time>
      </trkpt>
      <trkpt lat="43.89249" lon="7.28566">
        <ele>1002</ele>
        <time>2012-11-18T11:16:44Z</time>
      </trkpt>
      <trkpt lat="43.89248" lon="7.28566">
        <ele>1002</ele>
        <time>2012-11-18T11:16:47Z</time>
      </trkpt>
      <trkpt lat="43.89248" lon="7.28566">
        <ele>1002</ele>
        <time>2012-11-18T11:16:50Z</time>
      </trkpt>
      <trkpt lat="43.89248" lon="7.28566">
        <ele>1002</ele>
        <time>2012-11-18T11:16:52Z</time>
      </trkpt>
      <trkpt lat="43.89248" lon="7.28567">
        <ele>1003</ele>
        <time>2012-11-18T11:16:55Z</time>
      </trkpt>
      <trkpt lat="43.89248" lon="7.28567">
        <ele>1003</ele>
        <time>2012-11-18T11:16:58Z</time>
      </trkpt>
      <trkpt lat="43.89248" lon="7.28567">
        <ele>1003</ele>
        <time>2012-11-18T11:17:02Z</time>
      </trkpt>
      <trkpt lat="43.89248" lon="7.28567">
        <ele>1003</ele>
        <time>2012-11-18T11:17:06Z</time>
      </trkpt>
      <trkpt lat="43.89249" lon="7.28566">
        <ele>1002</ele>
        <time>2012-11-18T11:17:10Z</time>
      </trkpt>
      <trkpt lat="43.8925" lon="7.28565">
        <ele>1001</ele>
        <time>2012-11-18T11:17:14Z</time>
      </trkpt>
      <trkpt lat="43.8925" lon="7.28564">
        <ele>1001</ele>
        <time>2012-11-18T11:17:17Z</time>
      </trkpt>
      <trkpt lat="43.8925" lon="7.28564">
        <ele>1004</ele>
        <time>2012-11-18T11:17:22Z</time>
      </trkpt>
      <trkpt lat="43.8925" lon="7.28563">
        <ele>1004</ele>
        <time>2012-11-18T11:17:25Z</time>
      </trkpt>
      <trkpt lat="43.8925" lon="7.28563">
        <ele>1004</ele>
        <time>2012-11-18T11:17:28Z</time>
      </trkpt>
      <trkpt lat="43.8925" lon="7.28563">
        <ele>1004</ele>
        <time>2012-11-18T11:17:30Z</time>
      </trkpt>
      <trkpt lat="43.8925" lon="7.28564">
        <ele>1001</ele>
        <time>2012-11-18T11:17:34Z</time>
      </trkpt>
      <trkpt lat="43.89249" lon="7.28567">
        <ele>1003</ele>
        <time>2012-11-18T11:17:39Z</time>
      </trkpt>
      <trkpt lat="43.89249" lon="7.28569">
        <ele>1004</ele>
        <time>2012-11-18T11:17:44Z</time>
      </trkpt>
      <trkpt lat="43.89248" lon="7.28569">
        <ele>1005</ele>
        <time>2012-11-18T11:17:47Z</time>
      </trkpt>
      <trkpt lat="43.89247" lon="7.2857">
        <ele>1005</ele>
        <time>2012-11-18T11:17:50Z</time>
      </trkpt>
      <trkpt lat="43.89247" lon="7.2857">
        <ele>1005</ele>
        <time>2012-11-18T11:17:53Z</time>
      </trkpt>
      <trkpt lat="43.89245" lon="7.2857">
        <ele>1005</ele>
        <time>2012-11-18T11:17:58Z</time>
      </trkpt>
      <trkpt lat="43.89244" lon="7.28571">
        <ele>1005</ele>
        <time>2012-11-18T11:18:03Z</time>
      </trkpt>
      <trkpt lat="43.89243" lon="7.28571">
        <ele>1005</ele>
        <time>2012-11-18T11:18:06Z</time>
      </trkpt>
      <trkpt lat="43.89241" lon="7.28571">
        <ele>1004</ele>
        <time>2012-11-18T11:18:10Z</time>
      </trkpt>
      <trkpt lat="43.89241" lon="7.28571">
        <ele>1004</ele>
        <time>2012-11-18T11:18:13Z</time>
      </trkpt>
      <trkpt lat="43.89242" lon="7.28571">
        <ele>1004</ele>
        <time>2012-11-18T11:18:17Z</time>
      </trkpt>
      <trkpt lat="43.89242" lon="7.2857">
        <ele>1004</ele>
        <time>2012-11-18T11:18:21Z</time>
      </trkpt>
      <trkpt lat="43.89244" lon="7.28571">
        <ele>1005</ele>
        <time>2012-11-18T11:18:31Z</time>
      </trkpt>
      <trkpt lat="43.89243" lon="7.28574">
        <ele>1007</ele>
        <time>2012-11-18T11:18:35Z</time>
      </trkpt>
      <trkpt lat="43.89243" lon="7.28578">
        <ele>1010</ele>
        <time>2012-11-18T11:18:40Z</time>
      </trkpt>
      <trkpt lat="43.89242" lon="7.28583">
        <ele>1011</ele>
        <time>2012-11-18T11:18:44Z</time>
      </trkpt>
      <trkpt lat="43.89241" lon="7.2859">
        <ele>1024</ele>
        <time>2012-11-18T11:18:50Z</time>
      </trkpt>
      <trkpt lat="43.89241" lon="7.28595">
        <ele>1025</ele>
        <time>2012-11-18T11:18:56Z</time>
      </trkpt>
      <trkpt lat="43.89241" lon="7.28599">
        <ele>1025</ele>
        <time>2012-11-18T11:19:00Z</time>
      </trkpt>
      <trkpt lat="43.89241" lon="7.28602">
        <ele>1026</ele>
        <time>2012-11-18T11:19:04Z</time>
      </trkpt>
      <trkpt lat="43.8924" lon="7.28606">
        <ele>1027</ele>
        <time>2012-11-18T11:19:08Z</time>
      </trkpt>
      <trkpt lat="43.89241" lon="7.28608">
        <ele>1027</ele>
        <time>2012-11-18T11:19:11Z</time>
      </trkpt>
      <trkpt lat="43.89241" lon="7.28608">
        <ele>1027</ele>
        <time>2012-11-18T11:19:14Z</time>
      </trkpt>
      <trkpt lat="43.89243" lon="7.28608">
        <ele>1027</ele>
        <time>2012-11-18T11:19:17Z</time>
      </trkpt>
      <trkpt lat="43.89245" lon="7.28608">
        <ele>1027</ele>
        <time>2012-11-18T11:19:21Z</time>
      </trkpt>
      <trkpt lat="43.89248" lon="7.28606">
        <ele>1027</ele>
        <time>2012-11-18T11:19:25Z</time>
      </trkpt>
      <trkpt lat="43.89249" lon="7.28606">
        <ele>1027</ele>
        <time>2012-11-18T11:19:28Z</time>
      </trkpt>
      <trkpt lat="43.89251" lon="7.28604">
        <ele>1036</ele>
        <time>2012-11-18T11:19:31Z</time>
      </trkpt>
      <trkpt lat="43.89253" lon="7.28601">
        <ele>1035</ele>
        <time>2012-11-18T11:19:35Z</time>
      </trkpt>
      <trkpt lat="43.89256" lon="7.28598">
        <ele>1033</ele>
        <time>2012-11-18T11:19:41Z</time>
      </trkpt>
      <trkpt lat="43.89257" lon="7.28597">
        <ele>1033</ele>
        <time>2012-11-18T11:19:45Z</time>
      </trkpt>
      <trkpt lat="43.89258" lon="7.28596">
        <ele>1033</ele>
        <time>2012-11-18T11:19:49Z</time>
      </trkpt>
      <trkpt lat="43.89258" lon="7.28596">
        <ele>1033</ele>
        <time>2012-11-18T11:19:51Z</time>
      </trkpt>
      <trkpt lat="43.89258" lon="7.28597">
        <ele>1033</ele>
        <time>2012-11-18T11:19:54Z</time>
      </trkpt>
      <trkpt lat="43.89258" lon="7.28598">
        <ele>1033</ele>
        <time>2012-11-18T11:19:58Z</time>
      </trkpt>
      <trkpt lat="43.89258" lon="7.28598">
        <ele>1033</ele>
        <time>2012-11-18T11:20:01Z</time>
      </trkpt>
      <trkpt lat="43.89257" lon="7.28599">
        <ele>1034</ele>
        <time>2012-11-18T11:20:04Z</time>
      </trkpt>
      <trkpt lat="43.89257" lon="7.286">
        <ele>1034</ele>
        <time>2012-11-18T11:20:07Z</time>
      </trkpt>
      <trkpt lat="43.89257" lon="7.28601">
        <ele>1035</ele>
        <time>2012-11-18T11:20:10Z</time>
      </trkpt>
      <trkpt lat="43.89258" lon="7.28602">
        <ele>1036</ele>
        <time>2012-11-18T11:20:13Z</time>
      </trkpt>
      <trkpt lat="43.8926" lon="7.28603">
        <ele>1036</ele>
        <time>2012-11-18T11:20:16Z</time>
      </trkpt>
      <trkpt lat="43.89261" lon="7.28602">
        <ele>1036</ele>
        <time>2012-11-18T11:20:19Z</time>
      </trkpt>
      <trkpt lat="43.89266" lon="7.286">
        <ele>1036</ele>
        <time>2012-11-18T11:20:24Z</time>
      </trkpt>
      <trkpt lat="43.89271" lon="7.28598">
        <ele>1036</ele>
        <time>2012-11-18T11:20:29Z</time>
      </trkpt>
      <trkpt lat="43.89275" lon="7.28596">
        <ele>1036</ele>
        <time>2012-11-18T11:20:33Z</time>
      </trkpt>
      <trkpt lat="43.8928" lon="7.28593">
        <ele>1036</ele>
        <time>2012-11-18T11:20:39Z</time>
      </trkpt>
      <trkpt lat="43.89282" lon="7.28592">
        <ele>1036</ele>
        <time>2012-11-18T11:20:42Z</time>
      </trkpt>
      <trkpt lat="43.89284" lon="7.28593">
        <ele>1037</ele>
        <time>2012-11-18T11:20:45Z</time>
      </trkpt>
      <trkpt lat="43.89286" lon="7.28595">
        <ele>1037</ele>
        <time>2012-11-18T11:20:48Z</time>
      </trkpt>
      <trkpt lat="43.89287" lon="7.286">
        <ele>1038</ele>
        <time>2012-11-18T11:20:53Z</time>
      </trkpt>
      <trkpt lat="43.89288" lon="7.28603">
        <ele>1039</ele>
        <time>2012-11-18T11:20:56Z</time>
      </trkpt>
      <trkpt lat="43.8929" lon="7.28606">
        <ele>1040</ele>
        <time>2012-11-18T11:21:00Z</time>
      </trkpt>
      <trkpt lat="43.89292" lon="7.28608">
        <ele>1041</ele>
        <time>2012-11-18T11:21:04Z</time>
      </trkpt>
      <trkpt lat="43.89295" lon="7.2861">
        <ele>1041</ele>
        <time>2012-11-18T11:21:09Z</time>
      </trkpt>
      <trkpt lat="43.89298" lon="7.28613">
        <ele>1042</ele>
        <time>2012-11-18T11:21:14Z</time>
      </trkpt>
      <trkpt lat="43.89299" lon="7.28617">
        <ele>1043</ele>
        <time>2012-11-18T11:21:19Z</time>
      </trkpt>
      <trkpt lat="43.893" lon="7.28619">
        <ele>1044</ele>
        <time>2012-11-18T11:21:23Z</time>
      </trkpt>
      <trkpt lat="43.89299" lon="7.28621">
        <ele>1045</ele>
        <time>2012-11-18T11:21:26Z</time>
      </trkpt>
      <trkpt lat="43.89297" lon="7.28622">
        <ele>1046</ele>
        <time>2012-11-18T11:21:29Z</time>
      </trkpt>
      <trkpt lat="43.89294" lon="7.28623">
        <ele>1046</ele>
        <time>2012-11-18T11:21:33Z</time>
      </trkpt>
      <trkpt lat="43.8929" lon="7.28623">
        <ele>1046</ele>
        <time>2012-11-18T11:21:37Z</time>
      </trkpt>
      <trkpt lat="43.89286" lon="7.28624">
        <ele>1046</ele>
        <time>2012-11-18T11:21:42Z</time>
      </trkpt>
      <trkpt lat="43.89284" lon="7.28623">
        <ele>1046</ele>
        <time>2012-11-18T11:21:45Z</time>
      </trkpt>
      <trkpt lat="43.89282" lon="7.28621">
        <ele>1045</ele>
        <time>2012-11-18T11:21:48Z</time>
      </trkpt>
      <trkpt lat="43.8928" lon="7.28621">
        <ele>1045</ele>
        <time>2012-11-18T11:21:52Z</time>
      </trkpt>
      <trkpt lat="43.89278" lon="7.2862">
        <ele>1044</ele>
        <time>2012-11-18T11:21:57Z</time>
      </trkpt>
      <trkpt lat="43.89277" lon="7.2862">
        <ele>1044</ele>
        <time>2012-11-18T11:22:00Z</time>
      </trkpt>
      <trkpt lat="43.89274" lon="7.2862">
        <ele>1044</ele>
        <time>2012-11-18T11:22:06Z</time>
      </trkpt>
      <trkpt lat="43.89269" lon="7.28622">
        <ele>1045</ele>
        <time>2012-11-18T11:22:15Z</time>
      </trkpt>
      <trkpt lat="43.89267" lon="7.28623">
        <ele>1045</ele>
        <time>2012-11-18T11:22:19Z</time>
      </trkpt>
      <trkpt lat="43.89265" lon="7.28626">
        <ele>1046</ele>
        <time>2012-11-18T11:22:23Z</time>
      </trkpt>
      <trkpt lat="43.89263" lon="7.28628">
        <ele>1047</ele>
        <time>2012-11-18T11:22:26Z</time>
      </trkpt>
      <trkpt lat="43.89262" lon="7.28631">
        <ele>1048</ele>
        <time>2012-11-18T11:22:30Z</time>
      </trkpt>
      <trkpt lat="43.89262" lon="7.28633">
        <ele>1049</ele>
        <time>2012-11-18T11:22:32Z</time>
      </trkpt>
      <trkpt lat="43.89264" lon="7.28635">
        <ele>1049</ele>
        <time>2012-11-18T11:22:35Z</time>
      </trkpt>
      <trkpt lat="43.89265" lon="7.28636">
        <ele>1050</ele>
        <time>2012-11-18T11:22:38Z</time>
      </trkpt>
      <trkpt lat="43.89268" lon="7.28636">
        <ele>1050</ele>
        <time>2012-11-18T11:22:44Z</time>
      </trkpt>
      <trkpt lat="43.89269" lon="7.28635">
        <ele>1049</ele>
        <time>2012-11-18T11:22:48Z</time>
      </trkpt>
      <trkpt lat="43.89269" lon="7.28633">
        <ele>1049</ele>
        <time>2012-11-18T11:22:55Z</time>
      </trkpt>
      <trkpt lat="43.8927" lon="7.28632">
        <ele>1048</ele>
        <time>2012-11-18T11:23:00Z</time>
      </trkpt>
      <trkpt lat="43.8927" lon="7.28632">
        <ele>1048</ele>
        <time>2012-11-18T11:23:03Z</time>
      </trkpt>
      <trkpt lat="43.8927" lon="7.28631">
        <ele>1048</ele>
        <time>2012-11-18T11:23:07Z</time>
      </trkpt>
      <trkpt lat="43.89271" lon="7.28631">
        <ele>1048</ele>
        <time>2012-11-18T11:23:12Z</time>
      </trkpt>
      <trkpt lat="43.89272" lon="7.28631">
        <ele>1048</ele>
        <time>2012-11-18T11:23:15Z</time>
      </trkpt>
      <trkpt lat="43.89274" lon="7.28631">
        <ele>1048</ele>
        <time>2012-11-18T11:23:19Z</time>
      </trkpt>
      <trkpt lat="43.89275" lon="7.28633">
        <ele>1049</ele>
        <time>2012-11-18T11:23:26Z</time>
      </trkpt>
      <trkpt lat="43.89275" lon="7.28635">
        <ele>1049</ele>
        <time>2012-11-18T11:23:30Z</time>
      </trkpt>
      <trkpt lat="43.89274" lon="7.28637">
        <ele>1050</ele>
        <time>2012-11-18T11:23:33Z</time>
      </trkpt>
      <trkpt lat="43.89273" lon="7.28639">
        <ele>1051</ele>
        <time>2012-11-18T11:23:37Z</time>
      </trkpt>
      <trkpt lat="43.89272" lon="7.28643">
        <ele>1052</ele>
        <time>2012-11-18T11:23:42Z</time>
      </trkpt>
      <trkpt lat="43.89271" lon="7.28646">
        <ele>1053</ele>
        <time>2012-11-18T11:23:46Z</time>
      </trkpt>
      <trkpt lat="43.8927" lon="7.2865">
        <ele>1054</ele>
        <time>2012-11-18T11:23:51Z</time>
      </trkpt>
      <trkpt lat="43.89268" lon="7.28653">
        <ele>1055</ele>
        <time>2012-11-18T11:23:55Z</time>
      </trkpt>
      <trkpt lat="43.89268" lon="7.28656">
        <ele>1056</ele>
        <time>2012-11-18T11:23:59Z</time>
      </trkpt>
      <trkpt lat="43.89266" lon="7.28659">
        <ele>1057</ele>
        <time>2012-11-18T11:24:03Z</time>
      </trkpt>
      <trkpt lat="43.89264" lon="7.28661">
        <ele>1058</ele>
        <time>2012-11-18T11:24:06Z</time>
      </trkpt>
      <trkpt lat="43.8926" lon="7.28663">
        <ele>1059</ele>
        <time>2012-11-18T11:24:10Z</time>
      </trkpt>
      <trkpt lat="43.89257" lon="7.28665">
        <ele>1061</ele>
        <time>2012-11-18T11:24:14Z</time>
      </trkpt>
      <trkpt lat="43.8925" lon="7.28667">
        <ele>1065</ele>
        <time>2012-11-18T11:24:19Z</time>
      </trkpt>
      <trkpt lat="43.89246" lon="7.28668">
        <ele>1060</ele>
        <time>2012-11-18T11:24:23Z</time>
      </trkpt>
      <trkpt lat="43.89242" lon="7.28668">
        <ele>1057</ele>
        <time>2012-11-18T11:24:27Z</time>
      </trkpt>
      <trkpt lat="43.8924" lon="7.28668">
        <ele>1055</ele>
        <time>2012-11-18T11:24:31Z</time>
      </trkpt>
      <trkpt lat="43.89236" lon="7.2867">
        <ele>1052</ele>
        <time>2012-11-18T11:24:36Z</time>
      </trkpt>
      <trkpt lat="43.89234" lon="7.28671">
        <ele>1051</ele>
        <time>2012-11-18T11:24:39Z</time>
      </trkpt>
      <trkpt lat="43.89233" lon="7.28671">
        <ele>1050</ele>
        <time>2012-11-18T11:24:42Z</time>
      </trkpt>
      <trkpt lat="43.89233" lon="7.28671">
        <ele>1050</ele>
        <time>2012-11-18T11:24:45Z</time>
      </trkpt>
      <trkpt lat="43.89233" lon="7.28669">
        <ele>1051</ele>
        <time>2012-11-18T11:24:52Z</time>
      </trkpt>
      <trkpt lat="43.89233" lon="7.28667">
        <ele>1051</ele>
        <time>2012-11-18T11:24:57Z</time>
      </trkpt>
      <trkpt lat="43.89234" lon="7.28666">
        <ele>1047</ele>
        <time>2012-11-18T11:25:03Z</time>
      </trkpt>
      <trkpt lat="43.89233" lon="7.28665">
        <ele>1047</ele>
        <time>2012-11-18T11:25:07Z</time>
      </trkpt>
      <trkpt lat="43.89233" lon="7.28665">
        <ele>1047</ele>
        <time>2012-11-18T11:25:11Z</time>
      </trkpt>
      <trkpt lat="43.89234" lon="7.28664">
        <ele>1047</ele>
        <time>2012-11-18T11:25:14Z</time>
      </trkpt>
      <trkpt lat="43.89235" lon="7.28663">
        <ele>1047</ele>
        <time>2012-11-18T11:25:25Z</time>
      </trkpt>
      <trkpt lat="43.89235" lon="7.28663">
        <ele>1047</ele>
        <time>2012-11-18T11:25:29Z</time>
      </trkpt>
      <trkpt lat="43.89235" lon="7.28663">
        <ele>1048</ele>
        <time>2012-11-18T11:25:33Z</time>
      </trkpt>
      <trkpt lat="43.89235" lon="7.28663">
        <ele>1048</ele>
        <time>2012-11-18T11:25:39Z</time>
      </trkpt>
      <trkpt lat="43.89237" lon="7.28663">
        <ele>1049</ele>
        <time>2012-11-18T11:25:49Z</time>
      </trkpt>
      <trkpt lat="43.89238" lon="7.28663">
        <ele>1050</ele>
        <time>2012-11-18T11:25:55Z</time>
      </trkpt>
      <trkpt lat="43.89238" lon="7.28663">
        <ele>1050</ele>
        <time>2012-11-18T11:25:59Z</time>
      </trkpt>
      <trkpt lat="43.89238" lon="7.28663">
        <ele>1050</ele>
        <time>2012-11-18T11:26:03Z</time>
      </trkpt>
      <trkpt lat="43.89238" lon="7.28663">
        <ele>1050</ele>
        <time>2012-11-18T11:26:06Z</time>
      </trkpt>
      <trkpt lat="43.89238" lon="7.28663">
        <ele>1050</ele>
        <time>2012-11-18T11:26:10Z</time>
      </trkpt>
      <trkpt lat="43.89237" lon="7.28663">
        <ele>1049</ele>
        <time>2012-11-18T11:26:14Z</time>
      </trkpt>
      <trkpt lat="43.89237" lon="7.28663">
        <ele>1049</ele>
        <time>2012-11-18T11:26:28Z</time>
      </trkpt>
      <trkpt lat="43.89238" lon="7.28662">
        <ele>1050</ele>
        <time>2012-11-18T11:26:36Z</time>
      </trkpt>
      <trkpt lat="43.89239" lon="7.28662">
        <ele>1050</ele>
        <time>2012-11-18T11:26:38Z</time>
      </trkpt>
    </trkseg>
  </trk>
</gpx>